<?xml version="1.0" encoding="UTF-8" standalone="no" ?>
<gpx xmlns="http://www.topografix.com/GPX/1/1" xmlns:xsi="http://www.w3.org/2001/XMLSchema-instance" xsi:schemaLocation="http://www.topografix.com/GPX/1/1 http://www.topografix.com/GPX/1/1/gpx.xsd" version="1.1" creator="VisuGPX - https://www.visugpx.com">
  <metadata>
    <name>Autour de la Dubambanderie (erreur de parcours^^)</name>
    <desc><![CDATA[Au départ nous devions aller vers le Tartre Gaudran... N'ayant pas pris la bonne direction au début, nous tentons de rejoindre le carrefour de la croix Pater... Après pas mal de "détours", nous sommes enfin sur la bonne route mais.... un arbre nous coupe la route (Sur le GR1, point 175, carrefour de l'Archet, le 12/10/2014). Impossible d'aller plus loin ! Il commence à pleuvoir, nous avons déjà fait une belle balade, nous décidons de rentrer!]]></desc>
  </metadata>
  <trk>
    <name><![CDATA[Untitled]]></name>
    <trkseg>
      <trkpt lat="48.70897" lon="1.75032">
        <ele>174.39999389648</ele>
        <time>2014-10-12T05:19:59.000Z</time>
      </trkpt>
      <trkpt lat="48.70903" lon="1.75022">
        <ele>174.60000610352</ele>
        <time>2014-10-12T05:20:06.000Z</time>
      </trkpt>
      <trkpt lat="48.70904" lon="1.75019">
        <ele>174.60000610352</ele>
        <time>2014-10-12T05:20:08.000Z</time>
      </trkpt>
      <trkpt lat="48.70906" lon="1.75013">
        <ele>174.60000610352</ele>
        <time>2014-10-12T05:20:14.000Z</time>
      </trkpt>
      <trkpt lat="48.70913" lon="1.75001">
        <ele>174.80000305176</ele>
        <time>2014-10-12T05:20:26.000Z</time>
      </trkpt>
      <trkpt lat="48.70917" lon="1.74991">
        <ele>175</ele>
        <time>2014-10-12T05:20:32.000Z</time>
      </trkpt>
      <trkpt lat="48.70922" lon="1.74982">
        <ele>175</ele>
        <time>2014-10-12T05:20:38.000Z</time>
      </trkpt>
      <trkpt lat="48.70929" lon="1.74969">
        <ele>175</ele>
        <time>2014-10-12T05:20:48.000Z</time>
      </trkpt>
      <trkpt lat="48.70935" lon="1.74956">
        <ele>175</ele>
        <time>2014-10-12T05:20:56.000Z</time>
      </trkpt>
      <trkpt lat="48.70937" lon="1.7495">
        <ele>175</ele>
        <time>2014-10-12T05:20:59.000Z</time>
      </trkpt>
      <trkpt lat="48.70943" lon="1.74941">
        <ele>175.19999694824</ele>
        <time>2014-10-12T05:21:06.000Z</time>
      </trkpt>
      <trkpt lat="48.70951" lon="1.7493">
        <ele>175.60000610352</ele>
        <time>2014-10-12T05:21:15.000Z</time>
      </trkpt>
      <trkpt lat="48.70953" lon="1.74928">
        <ele>175.60000610352</ele>
        <time>2014-10-12T05:21:17.000Z</time>
      </trkpt>
      <trkpt lat="48.70961" lon="1.74917">
        <ele>176</ele>
        <time>2014-10-12T05:21:26.000Z</time>
      </trkpt>
      <trkpt lat="48.70967" lon="1.74909">
        <ele>176.39999389648</ele>
        <time>2014-10-12T05:21:33.000Z</time>
      </trkpt>
      <trkpt lat="48.70976" lon="1.74898">
        <ele>177.19999694824</ele>
        <time>2014-10-12T05:21:41.000Z</time>
      </trkpt>
      <trkpt lat="48.70986" lon="1.74885">
        <ele>178</ele>
        <time>2014-10-12T05:21:50.000Z</time>
      </trkpt>
      <trkpt lat="48.70996" lon="1.7487">
        <ele>178.80000305176</ele>
        <time>2014-10-12T05:22:00.000Z</time>
      </trkpt>
      <trkpt lat="48.71006" lon="1.74859">
        <ele>178.80000305176</ele>
        <time>2014-10-12T05:22:09.000Z</time>
      </trkpt>
      <trkpt lat="48.71012" lon="1.74847">
        <ele>178.80000305176</ele>
        <time>2014-10-12T05:22:16.000Z</time>
      </trkpt>
      <trkpt lat="48.71012" lon="1.74838">
        <ele>179</ele>
        <time>2014-10-12T05:22:21.000Z</time>
      </trkpt>
      <trkpt lat="48.71007" lon="1.74828">
        <ele>178.80000305176</ele>
        <time>2014-10-12T05:22:29.000Z</time>
      </trkpt>
      <trkpt lat="48.71008" lon="1.74829">
        <ele>178.80000305176</ele>
        <time>2014-10-12T05:22:33.000Z</time>
      </trkpt>
      <trkpt lat="48.71001" lon="1.74817">
        <ele>178.80000305176</ele>
        <time>2014-10-12T05:23:07.000Z</time>
      </trkpt>
      <trkpt lat="48.70997" lon="1.74812">
        <ele>178.80000305176</ele>
        <time>2014-10-12T05:23:10.000Z</time>
      </trkpt>
      <trkpt lat="48.70989" lon="1.74802">
        <ele>178.60000610352</ele>
        <time>2014-10-12T05:23:18.000Z</time>
      </trkpt>
      <trkpt lat="48.70984" lon="1.74792">
        <ele>178.60000610352</ele>
        <time>2014-10-12T05:23:24.000Z</time>
      </trkpt>
      <trkpt lat="48.70977" lon="1.74785">
        <ele>178.39999389648</ele>
        <time>2014-10-12T05:23:30.000Z</time>
      </trkpt>
      <trkpt lat="48.70972" lon="1.7478">
        <ele>178.39999389648</ele>
        <time>2014-10-12T05:23:34.000Z</time>
      </trkpt>
      <trkpt lat="48.70965" lon="1.74768">
        <ele>178.39999389648</ele>
        <time>2014-10-12T05:23:42.000Z</time>
      </trkpt>
      <trkpt lat="48.70955" lon="1.74758">
        <ele>178.19999694824</ele>
        <time>2014-10-12T05:23:52.000Z</time>
      </trkpt>
      <trkpt lat="48.70947" lon="1.7475">
        <ele>178.19999694824</ele>
        <time>2014-10-12T05:24:00.000Z</time>
      </trkpt>
      <trkpt lat="48.70938" lon="1.74739">
        <ele>178</ele>
        <time>2014-10-12T05:24:09.000Z</time>
      </trkpt>
      <trkpt lat="48.70932" lon="1.7473">
        <ele>177.80000305176</ele>
        <time>2014-10-12T05:24:15.000Z</time>
      </trkpt>
      <trkpt lat="48.70924" lon="1.74721">
        <ele>177.60000610352</ele>
        <time>2014-10-12T05:24:22.000Z</time>
      </trkpt>
      <trkpt lat="48.70915" lon="1.74707">
        <ele>177.19999694824</ele>
        <time>2014-10-12T05:24:32.000Z</time>
      </trkpt>
      <trkpt lat="48.70905" lon="1.74692">
        <ele>177</ele>
        <time>2014-10-12T05:24:43.000Z</time>
      </trkpt>
      <trkpt lat="48.70893" lon="1.74675">
        <ele>176.60000610352</ele>
        <time>2014-10-12T05:24:56.000Z</time>
      </trkpt>
      <trkpt lat="48.70883" lon="1.74661">
        <ele>176.19999694824</ele>
        <time>2014-10-12T05:25:07.000Z</time>
      </trkpt>
      <trkpt lat="48.70871" lon="1.74646">
        <ele>176</ele>
        <time>2014-10-12T05:25:19.000Z</time>
      </trkpt>
      <trkpt lat="48.70866" lon="1.74638">
        <ele>176</ele>
        <time>2014-10-12T05:25:25.000Z</time>
      </trkpt>
      <trkpt lat="48.70857" lon="1.74627">
        <ele>176</ele>
        <time>2014-10-12T05:25:34.000Z</time>
      </trkpt>
      <trkpt lat="48.70849" lon="1.74617">
        <ele>176</ele>
        <time>2014-10-12T05:25:42.000Z</time>
      </trkpt>
      <trkpt lat="48.70848" lon="1.74616">
        <ele>176</ele>
        <time>2014-10-12T05:25:43.000Z</time>
      </trkpt>
      <trkpt lat="48.7084" lon="1.74607">
        <ele>176.19999694824</ele>
        <time>2014-10-12T05:25:50.000Z</time>
      </trkpt>
      <trkpt lat="48.70839" lon="1.74606">
        <ele>176.19999694824</ele>
        <time>2014-10-12T05:25:51.000Z</time>
      </trkpt>
      <trkpt lat="48.70831" lon="1.74597">
        <ele>176.19999694824</ele>
        <time>2014-10-12T05:25:58.000Z</time>
      </trkpt>
      <trkpt lat="48.70821" lon="1.74582">
        <ele>176.39999389648</ele>
        <time>2014-10-12T05:26:08.000Z</time>
      </trkpt>
      <trkpt lat="48.7082" lon="1.74581">
        <ele>176.39999389648</ele>
        <time>2014-10-12T05:26:09.000Z</time>
      </trkpt>
      <trkpt lat="48.70816" lon="1.74576">
        <ele>176.39999389648</ele>
        <time>2014-10-12T05:26:13.000Z</time>
      </trkpt>
      <trkpt lat="48.70812" lon="1.74568">
        <ele>176.60000610352</ele>
        <time>2014-10-12T05:26:18.000Z</time>
      </trkpt>
      <trkpt lat="48.7081" lon="1.74567">
        <ele>176.60000610352</ele>
        <time>2014-10-12T05:26:19.000Z</time>
      </trkpt>
      <trkpt lat="48.70801" lon="1.74554">
        <ele>176.60000610352</ele>
        <time>2014-10-12T05:26:29.000Z</time>
      </trkpt>
      <trkpt lat="48.70792" lon="1.74543">
        <ele>176.80000305176</ele>
        <time>2014-10-12T05:26:38.000Z</time>
      </trkpt>
      <trkpt lat="48.70784" lon="1.74536">
        <ele>176.80000305176</ele>
        <time>2014-10-12T05:26:46.000Z</time>
      </trkpt>
      <trkpt lat="48.70775" lon="1.74527">
        <ele>177</ele>
        <time>2014-10-12T05:26:55.000Z</time>
      </trkpt>
      <trkpt lat="48.70766" lon="1.74514">
        <ele>177.19999694824</ele>
        <time>2014-10-12T05:27:06.000Z</time>
      </trkpt>
      <trkpt lat="48.70759" lon="1.74507">
        <ele>177.39999389648</ele>
        <time>2014-10-12T05:27:13.000Z</time>
      </trkpt>
      <trkpt lat="48.7075" lon="1.74496">
        <ele>177.80000305176</ele>
        <time>2014-10-12T05:27:22.000Z</time>
      </trkpt>
      <trkpt lat="48.70742" lon="1.74485">
        <ele>178</ele>
        <time>2014-10-12T05:27:31.000Z</time>
      </trkpt>
      <trkpt lat="48.70732" lon="1.74473">
        <ele>178.60000610352</ele>
        <time>2014-10-12T05:27:41.000Z</time>
      </trkpt>
      <trkpt lat="48.7073" lon="1.74464">
        <ele>178.80000305176</ele>
        <time>2014-10-12T05:27:47.000Z</time>
      </trkpt>
      <trkpt lat="48.70732" lon="1.74462">
        <ele>178.60000610352</ele>
        <time>2014-10-12T05:27:51.000Z</time>
      </trkpt>
      <trkpt lat="48.70743" lon="1.74445">
        <ele>178.39999389648</ele>
        <time>2014-10-12T05:29:30.000Z</time>
      </trkpt>
      <trkpt lat="48.7075" lon="1.74441">
        <ele>178.19999694824</ele>
        <time>2014-10-12T05:29:36.000Z</time>
      </trkpt>
      <trkpt lat="48.7076" lon="1.74436">
        <ele>178</ele>
        <time>2014-10-12T05:29:44.000Z</time>
      </trkpt>
      <trkpt lat="48.70764" lon="1.74431">
        <ele>177.80000305176</ele>
        <time>2014-10-12T05:29:49.000Z</time>
      </trkpt>
      <trkpt lat="48.70772" lon="1.74427">
        <ele>177.80000305176</ele>
        <time>2014-10-12T05:29:55.000Z</time>
      </trkpt>
      <trkpt lat="48.7078" lon="1.74421">
        <ele>177.60000610352</ele>
        <time>2014-10-12T05:30:03.000Z</time>
      </trkpt>
      <trkpt lat="48.70782" lon="1.74419">
        <ele>177.60000610352</ele>
        <time>2014-10-12T05:30:07.000Z</time>
      </trkpt>
      <trkpt lat="48.70786" lon="1.74418">
        <ele>177.60000610352</ele>
        <time>2014-10-12T05:30:12.000Z</time>
      </trkpt>
      <trkpt lat="48.70789" lon="1.74415">
        <ele>177.60000610352</ele>
        <time>2014-10-12T05:30:17.000Z</time>
      </trkpt>
      <trkpt lat="48.70795" lon="1.74413">
        <ele>177.39999389648</ele>
        <time>2014-10-12T05:30:24.000Z</time>
      </trkpt>
      <trkpt lat="48.708" lon="1.74409">
        <ele>177.19999694824</ele>
        <time>2014-10-12T05:30:29.000Z</time>
      </trkpt>
      <trkpt lat="48.70808" lon="1.74404">
        <ele>177</ele>
        <time>2014-10-12T05:30:37.000Z</time>
      </trkpt>
      <trkpt lat="48.70815" lon="1.744">
        <ele>177</ele>
        <time>2014-10-12T05:30:44.000Z</time>
      </trkpt>
      <trkpt lat="48.70817" lon="1.74398">
        <ele>177</ele>
        <time>2014-10-12T05:30:46.000Z</time>
      </trkpt>
      <trkpt lat="48.7082" lon="1.74393">
        <ele>177</ele>
        <time>2014-10-12T05:30:50.000Z</time>
      </trkpt>
      <trkpt lat="48.70831" lon="1.74383">
        <ele>176.80000305176</ele>
        <time>2014-10-12T05:31:00.000Z</time>
      </trkpt>
      <trkpt lat="48.70838" lon="1.74374">
        <ele>176.80000305176</ele>
        <time>2014-10-12T05:31:07.000Z</time>
      </trkpt>
      <trkpt lat="48.70842" lon="1.74369">
        <ele>176.80000305176</ele>
        <time>2014-10-12T05:31:11.000Z</time>
      </trkpt>
      <trkpt lat="48.70849" lon="1.74357">
        <ele>176.60000610352</ele>
        <time>2014-10-12T05:31:20.000Z</time>
      </trkpt>
      <trkpt lat="48.70852" lon="1.74351">
        <ele>176.60000610352</ele>
        <time>2014-10-12T05:31:24.000Z</time>
      </trkpt>
      <trkpt lat="48.70855" lon="1.74341">
        <ele>176.80000305176</ele>
        <time>2014-10-12T05:31:31.000Z</time>
      </trkpt>
      <trkpt lat="48.70861" lon="1.74332">
        <ele>176.80000305176</ele>
        <time>2014-10-12T05:31:37.000Z</time>
      </trkpt>
      <trkpt lat="48.70867" lon="1.74324">
        <ele>176.80000305176</ele>
        <time>2014-10-12T05:31:44.000Z</time>
      </trkpt>
      <trkpt lat="48.70868" lon="1.74322">
        <ele>176.80000305176</ele>
        <time>2014-10-12T05:31:45.000Z</time>
      </trkpt>
      <trkpt lat="48.70873" lon="1.7431">
        <ele>177.19999694824</ele>
        <time>2014-10-12T05:31:53.000Z</time>
      </trkpt>
      <trkpt lat="48.70873" lon="1.7431">
        <ele>177.19999694824</ele>
        <time>2014-10-12T05:31:55.000Z</time>
      </trkpt>
      <trkpt lat="48.70884" lon="1.74285">
        <ele>178</ele>
        <time>2014-10-12T05:32:46.000Z</time>
      </trkpt>
      <trkpt lat="48.7089" lon="1.74276">
        <ele>178.19999694824</ele>
        <time>2014-10-12T05:32:52.000Z</time>
      </trkpt>
      <trkpt lat="48.70894" lon="1.74269">
        <ele>178.60000610352</ele>
        <time>2014-10-12T05:32:57.000Z</time>
      </trkpt>
      <trkpt lat="48.70899" lon="1.74258">
        <ele>179.19999694824</ele>
        <time>2014-10-12T05:33:03.000Z</time>
      </trkpt>
      <trkpt lat="48.70904" lon="1.74248">
        <ele>180</ele>
        <time>2014-10-12T05:33:10.000Z</time>
      </trkpt>
      <trkpt lat="48.70906" lon="1.74241">
        <ele>180.39999389648</ele>
        <time>2014-10-12T05:33:17.000Z</time>
      </trkpt>
      <trkpt lat="48.70914" lon="1.74208">
        <ele>181.80000305176</ele>
        <time>2014-10-12T05:35:40.000Z</time>
      </trkpt>
      <trkpt lat="48.70915" lon="1.74198">
        <ele>182.19999694824</ele>
        <time>2014-10-12T05:35:47.000Z</time>
      </trkpt>
      <trkpt lat="48.70915" lon="1.74198">
        <ele>182.19999694824</ele>
        <time>2014-10-12T05:35:49.000Z</time>
      </trkpt>
      <trkpt lat="48.70922" lon="1.74179">
        <ele>183</ele>
        <time>2014-10-12T05:36:03.000Z</time>
      </trkpt>
      <trkpt lat="48.70923" lon="1.74171">
        <ele>183.19999694824</ele>
        <time>2014-10-12T05:36:10.000Z</time>
      </trkpt>
      <trkpt lat="48.70922" lon="1.74163">
        <ele>183.60000610352</ele>
        <time>2014-10-12T05:36:15.000Z</time>
      </trkpt>
      <trkpt lat="48.70924" lon="1.74151">
        <ele>183.80000305176</ele>
        <time>2014-10-12T05:36:22.000Z</time>
      </trkpt>
      <trkpt lat="48.70924" lon="1.7415">
        <ele>183.80000305176</ele>
        <time>2014-10-12T05:36:25.000Z</time>
      </trkpt>
      <trkpt lat="48.70926" lon="1.74143">
        <ele>184</ele>
        <time>2014-10-12T05:36:32.000Z</time>
      </trkpt>
      <trkpt lat="48.70927" lon="1.74141">
        <ele>184</ele>
        <time>2014-10-12T05:36:33.000Z</time>
      </trkpt>
      <trkpt lat="48.70932" lon="1.74133">
        <ele>183.80000305176</ele>
        <time>2014-10-12T05:36:38.000Z</time>
      </trkpt>
      <trkpt lat="48.70932" lon="1.74131">
        <ele>183.80000305176</ele>
        <time>2014-10-12T05:36:39.000Z</time>
      </trkpt>
      <trkpt lat="48.70933" lon="1.74122">
        <ele>183.60000610352</ele>
        <time>2014-10-12T05:36:46.000Z</time>
      </trkpt>
      <trkpt lat="48.70934" lon="1.74112">
        <ele>183.60000610352</ele>
        <time>2014-10-12T05:36:53.000Z</time>
      </trkpt>
      <trkpt lat="48.70938" lon="1.74103">
        <ele>183.39999389648</ele>
        <time>2014-10-12T05:36:59.000Z</time>
      </trkpt>
      <trkpt lat="48.7094" lon="1.74099">
        <ele>183.19999694824</ele>
        <time>2014-10-12T05:37:03.000Z</time>
      </trkpt>
      <trkpt lat="48.7094" lon="1.74091">
        <ele>183.19999694824</ele>
        <time>2014-10-12T05:37:07.000Z</time>
      </trkpt>
      <trkpt lat="48.70941" lon="1.74078">
        <ele>182.80000305176</ele>
        <time>2014-10-12T05:37:16.000Z</time>
      </trkpt>
      <trkpt lat="48.70946" lon="1.74066">
        <ele>182.80000305176</ele>
        <time>2014-10-12T05:37:24.000Z</time>
      </trkpt>
      <trkpt lat="48.70949" lon="1.74058">
        <ele>182.80000305176</ele>
        <time>2014-10-12T05:37:30.000Z</time>
      </trkpt>
      <trkpt lat="48.7095" lon="1.74056">
        <ele>182.80000305176</ele>
        <time>2014-10-12T05:37:31.000Z</time>
      </trkpt>
      <trkpt lat="48.7095" lon="1.7405">
        <ele>183</ele>
        <time>2014-10-12T05:37:35.000Z</time>
      </trkpt>
      <trkpt lat="48.70952" lon="1.74043">
        <ele>183</ele>
        <time>2014-10-12T05:37:42.000Z</time>
      </trkpt>
      <trkpt lat="48.70954" lon="1.74033">
        <ele>183</ele>
        <time>2014-10-12T05:37:49.000Z</time>
      </trkpt>
      <trkpt lat="48.70958" lon="1.74023">
        <ele>183</ele>
        <time>2014-10-12T05:37:56.000Z</time>
      </trkpt>
      <trkpt lat="48.70961" lon="1.74012">
        <ele>183.19999694824</ele>
        <time>2014-10-12T05:38:03.000Z</time>
      </trkpt>
      <trkpt lat="48.70965" lon="1.74005">
        <ele>183.19999694824</ele>
        <time>2014-10-12T05:38:08.000Z</time>
      </trkpt>
      <trkpt lat="48.70966" lon="1.74002">
        <ele>183.19999694824</ele>
        <time>2014-10-12T05:38:12.000Z</time>
      </trkpt>
      <trkpt lat="48.70968" lon="1.7399">
        <ele>183.19999694824</ele>
        <time>2014-10-12T05:38:21.000Z</time>
      </trkpt>
      <trkpt lat="48.70968" lon="1.73988">
        <ele>183.19999694824</ele>
        <time>2014-10-12T05:38:22.000Z</time>
      </trkpt>
      <trkpt lat="48.70969" lon="1.73984">
        <ele>183.19999694824</ele>
        <time>2014-10-12T05:38:24.000Z</time>
      </trkpt>
      <trkpt lat="48.70971" lon="1.73971">
        <ele>183</ele>
        <time>2014-10-12T05:38:31.000Z</time>
      </trkpt>
      <trkpt lat="48.70971" lon="1.73959">
        <ele>182.80000305176</ele>
        <time>2014-10-12T05:38:37.000Z</time>
      </trkpt>
      <trkpt lat="48.70973" lon="1.73946">
        <ele>182.60000610352</ele>
        <time>2014-10-12T05:38:44.000Z</time>
      </trkpt>
      <trkpt lat="48.70976" lon="1.73936">
        <ele>182.80000305176</ele>
        <time>2014-10-12T05:38:51.000Z</time>
      </trkpt>
      <trkpt lat="48.70978" lon="1.73925">
        <ele>183.19999694824</ele>
        <time>2014-10-12T05:38:57.000Z</time>
      </trkpt>
      <trkpt lat="48.70982" lon="1.73911">
        <ele>183.80000305176</ele>
        <time>2014-10-12T05:39:06.000Z</time>
      </trkpt>
      <trkpt lat="48.70986" lon="1.739">
        <ele>184</ele>
        <time>2014-10-12T05:39:14.000Z</time>
      </trkpt>
      <trkpt lat="48.70988" lon="1.7389">
        <ele>183.80000305176</ele>
        <time>2014-10-12T05:39:21.000Z</time>
      </trkpt>
      <trkpt lat="48.70988" lon="1.73882">
        <ele>183.39999389648</ele>
        <time>2014-10-12T05:39:26.000Z</time>
      </trkpt>
      <trkpt lat="48.70991" lon="1.73868">
        <ele>183</ele>
        <time>2014-10-12T05:39:34.000Z</time>
      </trkpt>
      <trkpt lat="48.70991" lon="1.73865">
        <ele>183</ele>
        <time>2014-10-12T05:39:36.000Z</time>
      </trkpt>
      <trkpt lat="48.70993" lon="1.73856">
        <ele>182.80000305176</ele>
        <time>2014-10-12T05:39:41.000Z</time>
      </trkpt>
      <trkpt lat="48.70994" lon="1.73851">
        <ele>182.80000305176</ele>
        <time>2014-10-12T05:39:44.000Z</time>
      </trkpt>
      <trkpt lat="48.70999" lon="1.73843">
        <ele>182.80000305176</ele>
        <time>2014-10-12T05:39:50.000Z</time>
      </trkpt>
      <trkpt lat="48.71003" lon="1.73836">
        <ele>182.80000305176</ele>
        <time>2014-10-12T05:39:55.000Z</time>
      </trkpt>
      <trkpt lat="48.71005" lon="1.73829">
        <ele>182.60000610352</ele>
        <time>2014-10-12T05:40:00.000Z</time>
      </trkpt>
      <trkpt lat="48.71005" lon="1.73826">
        <ele>182.60000610352</ele>
        <time>2014-10-12T05:40:03.000Z</time>
      </trkpt>
      <trkpt lat="48.71006" lon="1.73816">
        <ele>182.39999389648</ele>
        <time>2014-10-12T05:40:09.000Z</time>
      </trkpt>
      <trkpt lat="48.71008" lon="1.73807">
        <ele>182</ele>
        <time>2014-10-12T05:40:17.000Z</time>
      </trkpt>
      <trkpt lat="48.71012" lon="1.73802">
        <ele>182.19999694824</ele>
        <time>2014-10-12T05:40:21.000Z</time>
      </trkpt>
      <trkpt lat="48.71016" lon="1.73799">
        <ele>182.19999694824</ele>
        <time>2014-10-12T05:40:27.000Z</time>
      </trkpt>
      <trkpt lat="48.71022" lon="1.73793">
        <ele>182.39999389648</ele>
        <time>2014-10-12T05:40:33.000Z</time>
      </trkpt>
      <trkpt lat="48.71026" lon="1.73786">
        <ele>182.19999694824</ele>
        <time>2014-10-12T05:40:41.000Z</time>
      </trkpt>
      <trkpt lat="48.71032" lon="1.73781">
        <ele>182</ele>
        <time>2014-10-12T05:40:46.000Z</time>
      </trkpt>
      <trkpt lat="48.71037" lon="1.73775">
        <ele>181.60000610352</ele>
        <time>2014-10-12T05:40:52.000Z</time>
      </trkpt>
      <trkpt lat="48.71042" lon="1.73766">
        <ele>181.39999389648</ele>
        <time>2014-10-12T05:40:58.000Z</time>
      </trkpt>
      <trkpt lat="48.71048" lon="1.73758">
        <ele>181.39999389648</ele>
        <time>2014-10-12T05:41:05.000Z</time>
      </trkpt>
      <trkpt lat="48.71053" lon="1.73754">
        <ele>181.60000610352</ele>
        <time>2014-10-12T05:41:10.000Z</time>
      </trkpt>
      <trkpt lat="48.71058" lon="1.73747">
        <ele>181.80000305176</ele>
        <time>2014-10-12T05:41:16.000Z</time>
      </trkpt>
      <trkpt lat="48.71067" lon="1.73738">
        <ele>182.19999694824</ele>
        <time>2014-10-12T05:41:24.000Z</time>
      </trkpt>
      <trkpt lat="48.71069" lon="1.73737">
        <ele>182.19999694824</ele>
        <time>2014-10-12T05:41:25.000Z</time>
      </trkpt>
      <trkpt lat="48.71075" lon="1.73731">
        <ele>182</ele>
        <time>2014-10-12T05:41:31.000Z</time>
      </trkpt>
      <trkpt lat="48.7108" lon="1.73729">
        <ele>182.19999694824</ele>
        <time>2014-10-12T05:41:36.000Z</time>
      </trkpt>
      <trkpt lat="48.71087" lon="1.73722">
        <ele>182</ele>
        <time>2014-10-12T05:41:43.000Z</time>
      </trkpt>
      <trkpt lat="48.71092" lon="1.73715">
        <ele>181.80000305176</ele>
        <time>2014-10-12T05:41:49.000Z</time>
      </trkpt>
      <trkpt lat="48.71097" lon="1.73712">
        <ele>181.60000610352</ele>
        <time>2014-10-12T05:41:55.000Z</time>
      </trkpt>
      <trkpt lat="48.71102" lon="1.73705">
        <ele>181.39999389648</ele>
        <time>2014-10-12T05:42:02.000Z</time>
      </trkpt>
      <trkpt lat="48.71108" lon="1.737">
        <ele>181.19999694824</ele>
        <time>2014-10-12T05:42:07.000Z</time>
      </trkpt>
      <trkpt lat="48.71109" lon="1.73699">
        <ele>181.19999694824</ele>
        <time>2014-10-12T05:42:08.000Z</time>
      </trkpt>
      <trkpt lat="48.71117" lon="1.73691">
        <ele>181</ele>
        <time>2014-10-12T05:42:17.000Z</time>
      </trkpt>
      <trkpt lat="48.71119" lon="1.73688">
        <ele>180.80000305176</ele>
        <time>2014-10-12T05:42:19.000Z</time>
      </trkpt>
      <trkpt lat="48.71127" lon="1.7368">
        <ele>180.60000610352</ele>
        <time>2014-10-12T05:42:26.000Z</time>
      </trkpt>
      <trkpt lat="48.71135" lon="1.73673">
        <ele>180.80000305176</ele>
        <time>2014-10-12T05:42:35.000Z</time>
      </trkpt>
      <trkpt lat="48.71142" lon="1.73664">
        <ele>181</ele>
        <time>2014-10-12T05:42:43.000Z</time>
      </trkpt>
      <trkpt lat="48.71148" lon="1.73659">
        <ele>181.19999694824</ele>
        <time>2014-10-12T05:42:49.000Z</time>
      </trkpt>
      <trkpt lat="48.71154" lon="1.73653">
        <ele>181.39999389648</ele>
        <time>2014-10-12T05:42:55.000Z</time>
      </trkpt>
      <trkpt lat="48.71155" lon="1.73651">
        <ele>181.39999389648</ele>
        <time>2014-10-12T05:42:56.000Z</time>
      </trkpt>
      <trkpt lat="48.71161" lon="1.73643">
        <ele>181.60000610352</ele>
        <time>2014-10-12T05:43:03.000Z</time>
      </trkpt>
      <trkpt lat="48.71163" lon="1.7364">
        <ele>181.60000610352</ele>
        <time>2014-10-12T05:43:05.000Z</time>
      </trkpt>
      <trkpt lat="48.71171" lon="1.73632">
        <ele>181.80000305176</ele>
        <time>2014-10-12T05:43:12.000Z</time>
      </trkpt>
      <trkpt lat="48.71181" lon="1.73624">
        <ele>181.80000305176</ele>
        <time>2014-10-12T05:43:20.000Z</time>
      </trkpt>
      <trkpt lat="48.71192" lon="1.73613">
        <ele>181.60000610352</ele>
        <time>2014-10-12T05:43:29.000Z</time>
      </trkpt>
      <trkpt lat="48.71196" lon="1.73605">
        <ele>181.19999694824</ele>
        <time>2014-10-12T05:43:36.000Z</time>
      </trkpt>
      <trkpt lat="48.712" lon="1.73601">
        <ele>181.19999694824</ele>
        <time>2014-10-12T05:43:42.000Z</time>
      </trkpt>
      <trkpt lat="48.71204" lon="1.73602">
        <ele>181.19999694824</ele>
        <time>2014-10-12T05:43:45.000Z</time>
      </trkpt>
      <trkpt lat="48.71211" lon="1.73608">
        <ele>181.39999389648</ele>
        <time>2014-10-12T05:43:52.000Z</time>
      </trkpt>
      <trkpt lat="48.71217" lon="1.73612">
        <ele>181.39999389648</ele>
        <time>2014-10-12T05:43:58.000Z</time>
      </trkpt>
      <trkpt lat="48.7122" lon="1.73613">
        <ele>181.60000610352</ele>
        <time>2014-10-12T05:44:01.000Z</time>
      </trkpt>
      <trkpt lat="48.71229" lon="1.7361">
        <ele>181.60000610352</ele>
        <time>2014-10-12T05:44:09.000Z</time>
      </trkpt>
      <trkpt lat="48.71238" lon="1.73612">
        <ele>182</ele>
        <time>2014-10-12T05:44:17.000Z</time>
      </trkpt>
      <trkpt lat="48.71246" lon="1.73615">
        <ele>182.39999389648</ele>
        <time>2014-10-12T05:44:25.000Z</time>
      </trkpt>
      <trkpt lat="48.71247" lon="1.73615">
        <ele>182.60000610352</ele>
        <time>2014-10-12T05:44:27.000Z</time>
      </trkpt>
      <trkpt lat="48.71283" lon="1.73598">
        <ele>182</ele>
        <time>2014-10-12T05:45:23.000Z</time>
      </trkpt>
      <trkpt lat="48.71292" lon="1.73584">
        <ele>181</ele>
        <time>2014-10-12T05:45:31.000Z</time>
      </trkpt>
      <trkpt lat="48.71296" lon="1.73577">
        <ele>180.60000610352</ele>
        <time>2014-10-12T05:45:36.000Z</time>
      </trkpt>
      <trkpt lat="48.71298" lon="1.7357">
        <ele>180.80000305176</ele>
        <time>2014-10-12T05:45:40.000Z</time>
      </trkpt>
      <trkpt lat="48.71302" lon="1.73557">
        <ele>179.60000610352</ele>
        <time>2014-10-12T05:45:48.000Z</time>
      </trkpt>
      <trkpt lat="48.71307" lon="1.73548">
        <ele>178.39999389648</ele>
        <time>2014-10-12T05:45:54.000Z</time>
      </trkpt>
      <trkpt lat="48.71311" lon="1.73539">
        <ele>177.60000610352</ele>
        <time>2014-10-12T05:46:00.000Z</time>
      </trkpt>
      <trkpt lat="48.71311" lon="1.73538">
        <ele>177.39999389648</ele>
        <time>2014-10-12T05:46:01.000Z</time>
      </trkpt>
      <trkpt lat="48.71318" lon="1.73536">
        <ele>176.19999694824</ele>
        <time>2014-10-12T05:46:08.000Z</time>
      </trkpt>
      <trkpt lat="48.7132" lon="1.73533">
        <ele>176.19999694824</ele>
        <time>2014-10-12T05:46:11.000Z</time>
      </trkpt>
      <trkpt lat="48.71326" lon="1.73529">
        <ele>176.19999694824</ele>
        <time>2014-10-12T05:46:18.000Z</time>
      </trkpt>
      <trkpt lat="48.71329" lon="1.73526">
        <ele>176.19999694824</ele>
        <time>2014-10-12T05:46:21.000Z</time>
      </trkpt>
      <trkpt lat="48.71331" lon="1.73524">
        <ele>176.19999694824</ele>
        <time>2014-10-12T05:46:23.000Z</time>
      </trkpt>
      <trkpt lat="48.71335" lon="1.73522">
        <ele>176</ele>
        <time>2014-10-12T05:46:26.000Z</time>
      </trkpt>
      <trkpt lat="48.7134" lon="1.73522">
        <ele>175.80000305176</ele>
        <time>2014-10-12T05:46:30.000Z</time>
      </trkpt>
      <trkpt lat="48.7135" lon="1.73535">
        <ele>174.39999389648</ele>
        <time>2014-10-12T05:46:38.000Z</time>
      </trkpt>
      <trkpt lat="48.71356" lon="1.73541">
        <ele>173.60000610352</ele>
        <time>2014-10-12T05:46:44.000Z</time>
      </trkpt>
      <trkpt lat="48.71357" lon="1.73541">
        <ele>173.39999389648</ele>
        <time>2014-10-12T05:46:45.000Z</time>
      </trkpt>
      <trkpt lat="48.71364" lon="1.73548">
        <ele>172.19999694824</ele>
        <time>2014-10-12T05:46:52.000Z</time>
      </trkpt>
      <trkpt lat="48.7137" lon="1.73557">
        <ele>170.80000305176</ele>
        <time>2014-10-12T05:46:58.000Z</time>
      </trkpt>
      <trkpt lat="48.71379" lon="1.73566">
        <ele>169.19999694824</ele>
        <time>2014-10-12T05:47:07.000Z</time>
      </trkpt>
      <trkpt lat="48.71384" lon="1.73572">
        <ele>168.19999694824</ele>
        <time>2014-10-12T05:47:13.000Z</time>
      </trkpt>
      <trkpt lat="48.71391" lon="1.73577">
        <ele>167.19999694824</ele>
        <time>2014-10-12T05:47:20.000Z</time>
      </trkpt>
      <trkpt lat="48.71396" lon="1.73581">
        <ele>166.39999389648</ele>
        <time>2014-10-12T05:47:25.000Z</time>
      </trkpt>
      <trkpt lat="48.71401" lon="1.73578">
        <ele>166</ele>
        <time>2014-10-12T05:47:30.000Z</time>
      </trkpt>
      <trkpt lat="48.71411" lon="1.73574">
        <ele>165</ele>
        <time>2014-10-12T05:47:36.000Z</time>
      </trkpt>
      <trkpt lat="48.71418" lon="1.73573">
        <ele>164.19999694824</ele>
        <time>2014-10-12T05:47:41.000Z</time>
      </trkpt>
      <trkpt lat="48.71425" lon="1.73572">
        <ele>163.39999389648</ele>
        <time>2014-10-12T05:47:48.000Z</time>
      </trkpt>
      <trkpt lat="48.71434" lon="1.7357">
        <ele>162.39999389648</ele>
        <time>2014-10-12T05:47:55.000Z</time>
      </trkpt>
      <trkpt lat="48.71441" lon="1.73568">
        <ele>161.80000305176</ele>
        <time>2014-10-12T05:48:02.000Z</time>
      </trkpt>
      <trkpt lat="48.71447" lon="1.73563">
        <ele>161.60000610352</ele>
        <time>2014-10-12T05:48:07.000Z</time>
      </trkpt>
      <trkpt lat="48.71456" lon="1.73558">
        <ele>161</ele>
        <time>2014-10-12T05:48:14.000Z</time>
      </trkpt>
      <trkpt lat="48.71458" lon="1.73558">
        <ele>160.80000305176</ele>
        <time>2014-10-12T05:48:16.000Z</time>
      </trkpt>
      <trkpt lat="48.71469" lon="1.73556">
        <ele>160</ele>
        <time>2014-10-12T05:48:24.000Z</time>
      </trkpt>
      <trkpt lat="48.71477" lon="1.73554">
        <ele>159.39999389648</ele>
        <time>2014-10-12T05:48:31.000Z</time>
      </trkpt>
      <trkpt lat="48.71485" lon="1.73555">
        <ele>158.60000610352</ele>
        <time>2014-10-12T05:48:39.000Z</time>
      </trkpt>
      <trkpt lat="48.71496" lon="1.73551">
        <ele>158</ele>
        <time>2014-10-12T05:48:48.000Z</time>
      </trkpt>
      <trkpt lat="48.71505" lon="1.73548">
        <ele>156.80000305176</ele>
        <time>2014-10-12T05:48:56.000Z</time>
      </trkpt>
      <trkpt lat="48.71511" lon="1.73547">
        <ele>155.60000610352</ele>
        <time>2014-10-12T05:49:03.000Z</time>
      </trkpt>
      <trkpt lat="48.71521" lon="1.73548">
        <ele>154</ele>
        <time>2014-10-12T05:49:10.000Z</time>
      </trkpt>
      <trkpt lat="48.71531" lon="1.73545">
        <ele>152.80000305176</ele>
        <time>2014-10-12T05:49:17.000Z</time>
      </trkpt>
      <trkpt lat="48.7154" lon="1.7354">
        <ele>151.39999389648</ele>
        <time>2014-10-12T05:49:23.000Z</time>
      </trkpt>
      <trkpt lat="48.71542" lon="1.7354">
        <ele>151.39999389648</ele>
        <time>2014-10-12T05:49:24.000Z</time>
      </trkpt>
      <trkpt lat="48.71552" lon="1.7354">
        <ele>150</ele>
        <time>2014-10-12T05:49:32.000Z</time>
      </trkpt>
      <trkpt lat="48.7156" lon="1.73539">
        <ele>149</ele>
        <time>2014-10-12T05:49:39.000Z</time>
      </trkpt>
      <trkpt lat="48.71565" lon="1.73535">
        <ele>148.39999389648</ele>
        <time>2014-10-12T05:49:45.000Z</time>
      </trkpt>
      <trkpt lat="48.71567" lon="1.73535">
        <ele>148.19999694824</ele>
        <time>2014-10-12T05:49:46.000Z</time>
      </trkpt>
      <trkpt lat="48.71577" lon="1.73533">
        <ele>147</ele>
        <time>2014-10-12T05:49:55.000Z</time>
      </trkpt>
      <trkpt lat="48.71584" lon="1.73532">
        <ele>146.39999389648</ele>
        <time>2014-10-12T05:50:00.000Z</time>
      </trkpt>
      <trkpt lat="48.71587" lon="1.73531">
        <ele>146.19999694824</ele>
        <time>2014-10-12T05:50:02.000Z</time>
      </trkpt>
      <trkpt lat="48.71597" lon="1.73531">
        <ele>145.19999694824</ele>
        <time>2014-10-12T05:50:09.000Z</time>
      </trkpt>
      <trkpt lat="48.71604" lon="1.73531">
        <ele>144.60000610352</ele>
        <time>2014-10-12T05:50:14.000Z</time>
      </trkpt>
      <trkpt lat="48.71607" lon="1.7353">
        <ele>144.39999389648</ele>
        <time>2014-10-12T05:50:18.000Z</time>
      </trkpt>
      <trkpt lat="48.71612" lon="1.73526">
        <ele>144</ele>
        <time>2014-10-12T05:50:25.000Z</time>
      </trkpt>
      <trkpt lat="48.7162" lon="1.73521">
        <ele>143.39999389648</ele>
        <time>2014-10-12T05:50:32.000Z</time>
      </trkpt>
      <trkpt lat="48.71627" lon="1.73517">
        <ele>143</ele>
        <time>2014-10-12T05:50:38.000Z</time>
      </trkpt>
      <trkpt lat="48.71631" lon="1.73515">
        <ele>142.80000305176</ele>
        <time>2014-10-12T05:50:41.000Z</time>
      </trkpt>
      <trkpt lat="48.71641" lon="1.73511">
        <ele>142.19999694824</ele>
        <time>2014-10-12T05:50:49.000Z</time>
      </trkpt>
      <trkpt lat="48.71646" lon="1.73513">
        <ele>142</ele>
        <time>2014-10-12T05:50:53.000Z</time>
      </trkpt>
      <trkpt lat="48.71653" lon="1.73514">
        <ele>141.60000610352</ele>
        <time>2014-10-12T05:50:59.000Z</time>
      </trkpt>
      <trkpt lat="48.71661" lon="1.7351">
        <ele>141.19999694824</ele>
        <time>2014-10-12T05:51:06.000Z</time>
      </trkpt>
      <trkpt lat="48.71668" lon="1.73508">
        <ele>140.80000305176</ele>
        <time>2014-10-12T05:51:11.000Z</time>
      </trkpt>
      <trkpt lat="48.71677" lon="1.73505">
        <ele>140.39999389648</ele>
        <time>2014-10-12T05:51:18.000Z</time>
      </trkpt>
      <trkpt lat="48.71683" lon="1.73502">
        <ele>140.19999694824</ele>
        <time>2014-10-12T05:51:22.000Z</time>
      </trkpt>
      <trkpt lat="48.71691" lon="1.735">
        <ele>140</ele>
        <time>2014-10-12T05:51:29.000Z</time>
      </trkpt>
      <trkpt lat="48.71701" lon="1.73497">
        <ele>139.80000305176</ele>
        <time>2014-10-12T05:51:36.000Z</time>
      </trkpt>
      <trkpt lat="48.7171" lon="1.73498">
        <ele>139.60000610352</ele>
        <time>2014-10-12T05:51:43.000Z</time>
      </trkpt>
      <trkpt lat="48.71719" lon="1.73496">
        <ele>139.19999694824</ele>
        <time>2014-10-12T05:51:50.000Z</time>
      </trkpt>
      <trkpt lat="48.71725" lon="1.73493">
        <ele>138.80000305176</ele>
        <time>2014-10-12T05:51:55.000Z</time>
      </trkpt>
      <trkpt lat="48.71737" lon="1.73492">
        <ele>138.39999389648</ele>
        <time>2014-10-12T05:52:03.000Z</time>
      </trkpt>
      <trkpt lat="48.71746" lon="1.73491">
        <ele>138</ele>
        <time>2014-10-12T05:52:10.000Z</time>
      </trkpt>
      <trkpt lat="48.71752" lon="1.73489">
        <ele>137.80000305176</ele>
        <time>2014-10-12T05:52:14.000Z</time>
      </trkpt>
      <trkpt lat="48.71762" lon="1.73487">
        <ele>137.19999694824</ele>
        <time>2014-10-12T05:52:21.000Z</time>
      </trkpt>
      <trkpt lat="48.71765" lon="1.73488">
        <ele>137.19999694824</ele>
        <time>2014-10-12T05:52:23.000Z</time>
      </trkpt>
      <trkpt lat="48.7177" lon="1.73488">
        <ele>137</ele>
        <time>2014-10-12T05:52:27.000Z</time>
      </trkpt>
      <trkpt lat="48.71778" lon="1.73484">
        <ele>136.80000305176</ele>
        <time>2014-10-12T05:52:34.000Z</time>
      </trkpt>
      <trkpt lat="48.71786" lon="1.73482">
        <ele>136.39999389648</ele>
        <time>2014-10-12T05:52:41.000Z</time>
      </trkpt>
      <trkpt lat="48.71789" lon="1.73481">
        <ele>136.39999389648</ele>
        <time>2014-10-12T05:52:43.000Z</time>
      </trkpt>
      <trkpt lat="48.71794" lon="1.73478">
        <ele>136.19999694824</ele>
        <time>2014-10-12T05:52:47.000Z</time>
      </trkpt>
      <trkpt lat="48.71798" lon="1.73475">
        <ele>136</ele>
        <time>2014-10-12T05:52:50.000Z</time>
      </trkpt>
      <trkpt lat="48.71802" lon="1.73474">
        <ele>135.80000305176</ele>
        <time>2014-10-12T05:52:53.000Z</time>
      </trkpt>
      <trkpt lat="48.7181" lon="1.73475">
        <ele>135.60000610352</ele>
        <time>2014-10-12T05:53:00.000Z</time>
      </trkpt>
      <trkpt lat="48.71819" lon="1.73473">
        <ele>135.19999694824</ele>
        <time>2014-10-12T05:53:07.000Z</time>
      </trkpt>
      <trkpt lat="48.71831" lon="1.7347">
        <ele>134.80000305176</ele>
        <time>2014-10-12T05:53:15.000Z</time>
      </trkpt>
      <trkpt lat="48.71839" lon="1.73469">
        <ele>134.39999389648</ele>
        <time>2014-10-12T05:53:22.000Z</time>
      </trkpt>
      <trkpt lat="48.71846" lon="1.73468">
        <ele>134</ele>
        <time>2014-10-12T05:53:27.000Z</time>
      </trkpt>
      <trkpt lat="48.71855" lon="1.73468">
        <ele>133.60000610352</ele>
        <time>2014-10-12T05:53:34.000Z</time>
      </trkpt>
      <trkpt lat="48.71857" lon="1.73467">
        <ele>133.39999389648</ele>
        <time>2014-10-12T05:53:36.000Z</time>
      </trkpt>
      <trkpt lat="48.71865" lon="1.73467">
        <ele>133.19999694824</ele>
        <time>2014-10-12T05:53:42.000Z</time>
      </trkpt>
      <trkpt lat="48.71869" lon="1.73466">
        <ele>133.19999694824</ele>
        <time>2014-10-12T05:53:46.000Z</time>
      </trkpt>
      <trkpt lat="48.71872" lon="1.73466">
        <ele>133</ele>
        <time>2014-10-12T05:53:48.000Z</time>
      </trkpt>
      <trkpt lat="48.71881" lon="1.73465">
        <ele>132.80000305176</ele>
        <time>2014-10-12T05:53:55.000Z</time>
      </trkpt>
      <trkpt lat="48.71892" lon="1.7346">
        <ele>132.39999389648</ele>
        <time>2014-10-12T05:54:03.000Z</time>
      </trkpt>
      <trkpt lat="48.71898" lon="1.73459">
        <ele>132.19999694824</ele>
        <time>2014-10-12T05:54:09.000Z</time>
      </trkpt>
      <trkpt lat="48.7191" lon="1.73453">
        <ele>131.80000305176</ele>
        <time>2014-10-12T05:54:18.000Z</time>
      </trkpt>
      <trkpt lat="48.7192" lon="1.73451">
        <ele>131.60000610352</ele>
        <time>2014-10-12T05:54:25.000Z</time>
      </trkpt>
      <trkpt lat="48.71929" lon="1.7345">
        <ele>131.19999694824</ele>
        <time>2014-10-12T05:54:32.000Z</time>
      </trkpt>
      <trkpt lat="48.7194" lon="1.73448">
        <ele>131</ele>
        <time>2014-10-12T05:54:40.000Z</time>
      </trkpt>
      <trkpt lat="48.71947" lon="1.73445">
        <ele>131</ele>
        <time>2014-10-12T05:54:45.000Z</time>
      </trkpt>
      <trkpt lat="48.71949" lon="1.73445">
        <ele>131</ele>
        <time>2014-10-12T05:54:47.000Z</time>
      </trkpt>
      <trkpt lat="48.71955" lon="1.73443">
        <ele>131</ele>
        <time>2014-10-12T05:54:53.000Z</time>
      </trkpt>
      <trkpt lat="48.71962" lon="1.73443">
        <ele>131</ele>
        <time>2014-10-12T05:54:59.000Z</time>
      </trkpt>
      <trkpt lat="48.71973" lon="1.7344">
        <ele>130.80000305176</ele>
        <time>2014-10-12T05:55:07.000Z</time>
      </trkpt>
      <trkpt lat="48.71976" lon="1.73439">
        <ele>130.80000305176</ele>
        <time>2014-10-12T05:55:09.000Z</time>
      </trkpt>
      <trkpt lat="48.71978" lon="1.73439">
        <ele>130.80000305176</ele>
        <time>2014-10-12T05:55:13.000Z</time>
      </trkpt>
      <trkpt lat="48.71984" lon="1.73436">
        <ele>130.80000305176</ele>
        <time>2014-10-12T05:55:21.000Z</time>
      </trkpt>
      <trkpt lat="48.71994" lon="1.73433">
        <ele>130.60000610352</ele>
        <time>2014-10-12T05:55:27.000Z</time>
      </trkpt>
      <trkpt lat="48.72005" lon="1.7343">
        <ele>130.60000610352</ele>
        <time>2014-10-12T05:55:35.000Z</time>
      </trkpt>
      <trkpt lat="48.72014" lon="1.73424">
        <ele>130.39999389648</ele>
        <time>2014-10-12T05:55:41.000Z</time>
      </trkpt>
      <trkpt lat="48.72023" lon="1.73419">
        <ele>130.19999694824</ele>
        <time>2014-10-12T05:55:48.000Z</time>
      </trkpt>
      <trkpt lat="48.7203" lon="1.73416">
        <ele>130</ele>
        <time>2014-10-12T05:55:55.000Z</time>
      </trkpt>
      <trkpt lat="48.72032" lon="1.73416">
        <ele>129.80000305176</ele>
        <time>2014-10-12T05:55:57.000Z</time>
      </trkpt>
      <trkpt lat="48.72038" lon="1.73418">
        <ele>129.80000305176</ele>
        <time>2014-10-12T05:56:03.000Z</time>
      </trkpt>
      <trkpt lat="48.72049" lon="1.73411">
        <ele>130</ele>
        <time>2014-10-12T05:56:11.000Z</time>
      </trkpt>
      <trkpt lat="48.72053" lon="1.73413">
        <ele>129.80000305176</ele>
        <time>2014-10-12T05:56:15.000Z</time>
      </trkpt>
      <trkpt lat="48.72059" lon="1.73413">
        <ele>129.80000305176</ele>
        <time>2014-10-12T05:56:20.000Z</time>
      </trkpt>
      <trkpt lat="48.72064" lon="1.73415">
        <ele>129.80000305176</ele>
        <time>2014-10-12T05:56:25.000Z</time>
      </trkpt>
      <trkpt lat="48.72067" lon="1.73415">
        <ele>129.80000305176</ele>
        <time>2014-10-12T05:56:31.000Z</time>
      </trkpt>
      <trkpt lat="48.7208" lon="1.73411">
        <ele>130</ele>
        <time>2014-10-12T05:56:55.000Z</time>
      </trkpt>
      <trkpt lat="48.72083" lon="1.73407">
        <ele>130</ele>
        <time>2014-10-12T05:56:58.000Z</time>
      </trkpt>
      <trkpt lat="48.72086" lon="1.73409">
        <ele>130</ele>
        <time>2014-10-12T05:57:04.000Z</time>
      </trkpt>
      <trkpt lat="48.72092" lon="1.73406">
        <ele>130</ele>
        <time>2014-10-12T05:57:09.000Z</time>
      </trkpt>
      <trkpt lat="48.72093" lon="1.73405">
        <ele>130</ele>
        <time>2014-10-12T05:57:10.000Z</time>
      </trkpt>
      <trkpt lat="48.72101" lon="1.73402">
        <ele>130</ele>
        <time>2014-10-12T05:57:15.000Z</time>
      </trkpt>
      <trkpt lat="48.7211" lon="1.73397">
        <ele>129.60000610352</ele>
        <time>2014-10-12T05:57:22.000Z</time>
      </trkpt>
      <trkpt lat="48.72117" lon="1.73393">
        <ele>129.19999694824</ele>
        <time>2014-10-12T05:57:28.000Z</time>
      </trkpt>
      <trkpt lat="48.72123" lon="1.73395">
        <ele>129.19999694824</ele>
        <time>2014-10-12T05:57:34.000Z</time>
      </trkpt>
      <trkpt lat="48.72129" lon="1.73397">
        <ele>129</ele>
        <time>2014-10-12T05:57:39.000Z</time>
      </trkpt>
      <trkpt lat="48.72137" lon="1.73401">
        <ele>128.80000305176</ele>
        <time>2014-10-12T05:57:46.000Z</time>
      </trkpt>
      <trkpt lat="48.72146" lon="1.73396">
        <ele>128.19999694824</ele>
        <time>2014-10-12T05:57:53.000Z</time>
      </trkpt>
      <trkpt lat="48.72152" lon="1.73394">
        <ele>128</ele>
        <time>2014-10-12T05:57:58.000Z</time>
      </trkpt>
      <trkpt lat="48.72158" lon="1.73393">
        <ele>127.80000305176</ele>
        <time>2014-10-12T05:58:04.000Z</time>
      </trkpt>
      <trkpt lat="48.72159" lon="1.73391">
        <ele>127.59999847412</ele>
        <time>2014-10-12T05:58:06.000Z</time>
      </trkpt>
      <trkpt lat="48.72164" lon="1.73392">
        <ele>127.59999847412</ele>
        <time>2014-10-12T05:58:12.000Z</time>
      </trkpt>
      <trkpt lat="48.72171" lon="1.73393">
        <ele>127.40000152588</ele>
        <time>2014-10-12T05:58:18.000Z</time>
      </trkpt>
      <trkpt lat="48.72178" lon="1.73394">
        <ele>127</ele>
        <time>2014-10-12T05:58:25.000Z</time>
      </trkpt>
      <trkpt lat="48.72181" lon="1.73393">
        <ele>127</ele>
        <time>2014-10-12T05:58:27.000Z</time>
      </trkpt>
      <trkpt lat="48.72185" lon="1.73391">
        <ele>126.80000305176</ele>
        <time>2014-10-12T05:58:30.000Z</time>
      </trkpt>
      <trkpt lat="48.72191" lon="1.7339">
        <ele>126.80000305176</ele>
        <time>2014-10-12T05:58:36.000Z</time>
      </trkpt>
      <trkpt lat="48.72192" lon="1.73389">
        <ele>126.80000305176</ele>
        <time>2014-10-12T05:58:37.000Z</time>
      </trkpt>
      <trkpt lat="48.72201" lon="1.73388">
        <ele>126.80000305176</ele>
        <time>2014-10-12T05:58:45.000Z</time>
      </trkpt>
      <trkpt lat="48.72208" lon="1.73391">
        <ele>127</ele>
        <time>2014-10-12T05:58:51.000Z</time>
      </trkpt>
      <trkpt lat="48.72214" lon="1.73391">
        <ele>127</ele>
        <time>2014-10-12T05:58:57.000Z</time>
      </trkpt>
      <trkpt lat="48.7222" lon="1.7339">
        <ele>127</ele>
        <time>2014-10-12T05:59:02.000Z</time>
      </trkpt>
      <trkpt lat="48.72225" lon="1.7339">
        <ele>127.19999694824</ele>
        <time>2014-10-12T05:59:06.000Z</time>
      </trkpt>
      <trkpt lat="48.72231" lon="1.73386">
        <ele>127</ele>
        <time>2014-10-12T05:59:11.000Z</time>
      </trkpt>
      <trkpt lat="48.72234" lon="1.73383">
        <ele>127</ele>
        <time>2014-10-12T05:59:13.000Z</time>
      </trkpt>
      <trkpt lat="48.7224" lon="1.7338">
        <ele>127</ele>
        <time>2014-10-12T05:59:17.000Z</time>
      </trkpt>
      <trkpt lat="48.72243" lon="1.73381">
        <ele>127.19999694824</ele>
        <time>2014-10-12T05:59:20.000Z</time>
      </trkpt>
      <trkpt lat="48.7225" lon="1.73381">
        <ele>127.19999694824</ele>
        <time>2014-10-12T05:59:25.000Z</time>
      </trkpt>
      <trkpt lat="48.72257" lon="1.73382">
        <ele>127.40000152588</ele>
        <time>2014-10-12T05:59:31.000Z</time>
      </trkpt>
      <trkpt lat="48.72263" lon="1.73388">
        <ele>127.80000305176</ele>
        <time>2014-10-12T05:59:40.000Z</time>
      </trkpt>
      <trkpt lat="48.72266" lon="1.73392">
        <ele>127.80000305176</ele>
        <time>2014-10-12T05:59:47.000Z</time>
      </trkpt>
      <trkpt lat="48.72273" lon="1.73393">
        <ele>128</ele>
        <time>2014-10-12T05:59:57.000Z</time>
      </trkpt>
      <trkpt lat="48.72281" lon="1.73395">
        <ele>128</ele>
        <time>2014-10-12T06:00:03.000Z</time>
      </trkpt>
      <trkpt lat="48.72288" lon="1.73392">
        <ele>128</ele>
        <time>2014-10-12T06:00:10.000Z</time>
      </trkpt>
      <trkpt lat="48.72296" lon="1.73396">
        <ele>128</ele>
        <time>2014-10-12T06:00:17.000Z</time>
      </trkpt>
      <trkpt lat="48.72304" lon="1.73405">
        <ele>128</ele>
        <time>2014-10-12T06:00:25.000Z</time>
      </trkpt>
      <trkpt lat="48.72307" lon="1.73407">
        <ele>128</ele>
        <time>2014-10-12T06:00:28.000Z</time>
      </trkpt>
      <trkpt lat="48.72311" lon="1.73409">
        <ele>128</ele>
        <time>2014-10-12T06:00:32.000Z</time>
      </trkpt>
      <trkpt lat="48.7232" lon="1.7341">
        <ele>128</ele>
        <time>2014-10-12T06:00:39.000Z</time>
      </trkpt>
      <trkpt lat="48.72326" lon="1.73405">
        <ele>128</ele>
        <time>2014-10-12T06:00:44.000Z</time>
      </trkpt>
      <trkpt lat="48.72331" lon="1.73404">
        <ele>128</ele>
        <time>2014-10-12T06:00:48.000Z</time>
      </trkpt>
      <trkpt lat="48.72341" lon="1.73402">
        <ele>128</ele>
        <time>2014-10-12T06:00:55.000Z</time>
      </trkpt>
      <trkpt lat="48.72346" lon="1.73403">
        <ele>128</ele>
        <time>2014-10-12T06:00:59.000Z</time>
      </trkpt>
      <trkpt lat="48.72352" lon="1.73403">
        <ele>128</ele>
        <time>2014-10-12T06:01:04.000Z</time>
      </trkpt>
      <trkpt lat="48.72362" lon="1.73408">
        <ele>127.80000305176</ele>
        <time>2014-10-12T06:01:11.000Z</time>
      </trkpt>
      <trkpt lat="48.72364" lon="1.73411">
        <ele>127.80000305176</ele>
        <time>2014-10-12T06:01:13.000Z</time>
      </trkpt>
      <trkpt lat="48.72367" lon="1.73412">
        <ele>127.59999847412</ele>
        <time>2014-10-12T06:01:17.000Z</time>
      </trkpt>
      <trkpt lat="48.72376" lon="1.73413">
        <ele>127.40000152588</ele>
        <time>2014-10-12T06:01:24.000Z</time>
      </trkpt>
      <trkpt lat="48.7238" lon="1.73414">
        <ele>127.40000152588</ele>
        <time>2014-10-12T06:01:28.000Z</time>
      </trkpt>
      <trkpt lat="48.72386" lon="1.73414">
        <ele>127.19999694824</ele>
        <time>2014-10-12T06:01:33.000Z</time>
      </trkpt>
      <trkpt lat="48.72393" lon="1.73415">
        <ele>127</ele>
        <time>2014-10-12T06:01:39.000Z</time>
      </trkpt>
      <trkpt lat="48.72402" lon="1.73417">
        <ele>126.80000305176</ele>
        <time>2014-10-12T06:01:46.000Z</time>
      </trkpt>
      <trkpt lat="48.72413" lon="1.73422">
        <ele>126.59999847412</ele>
        <time>2014-10-12T06:01:54.000Z</time>
      </trkpt>
      <trkpt lat="48.72415" lon="1.73423">
        <ele>126.59999847412</ele>
        <time>2014-10-12T06:01:56.000Z</time>
      </trkpt>
      <trkpt lat="48.72424" lon="1.73427">
        <ele>126.40000152588</ele>
        <time>2014-10-12T06:02:04.000Z</time>
      </trkpt>
      <trkpt lat="48.7243" lon="1.7343">
        <ele>126.19999694824</ele>
        <time>2014-10-12T06:02:09.000Z</time>
      </trkpt>
      <trkpt lat="48.72436" lon="1.73432">
        <ele>126</ele>
        <time>2014-10-12T06:02:14.000Z</time>
      </trkpt>
      <trkpt lat="48.72445" lon="1.73434">
        <ele>126.19999694824</ele>
        <time>2014-10-12T06:02:21.000Z</time>
      </trkpt>
      <trkpt lat="48.72454" lon="1.73434">
        <ele>126.40000152588</ele>
        <time>2014-10-12T06:02:28.000Z</time>
      </trkpt>
      <trkpt lat="48.72462" lon="1.73435">
        <ele>126.59999847412</ele>
        <time>2014-10-12T06:02:34.000Z</time>
      </trkpt>
      <trkpt lat="48.72469" lon="1.73435">
        <ele>126.80000305176</ele>
        <time>2014-10-12T06:02:40.000Z</time>
      </trkpt>
      <trkpt lat="48.72474" lon="1.73436">
        <ele>127</ele>
        <time>2014-10-12T06:02:44.000Z</time>
      </trkpt>
      <trkpt lat="48.72481" lon="1.73437">
        <ele>127.19999694824</ele>
        <time>2014-10-12T06:02:49.000Z</time>
      </trkpt>
      <trkpt lat="48.72483" lon="1.73438">
        <ele>127.19999694824</ele>
        <time>2014-10-12T06:02:51.000Z</time>
      </trkpt>
      <trkpt lat="48.72493" lon="1.73441">
        <ele>127.59999847412</ele>
        <time>2014-10-12T06:03:00.000Z</time>
      </trkpt>
      <trkpt lat="48.72496" lon="1.73441">
        <ele>127.59999847412</ele>
        <time>2014-10-12T06:03:02.000Z</time>
      </trkpt>
      <trkpt lat="48.72507" lon="1.73444">
        <ele>128</ele>
        <time>2014-10-12T06:03:10.000Z</time>
      </trkpt>
      <trkpt lat="48.72514" lon="1.73445">
        <ele>128.19999694824</ele>
        <time>2014-10-12T06:03:16.000Z</time>
      </trkpt>
      <trkpt lat="48.7252" lon="1.73447">
        <ele>128.39999389648</ele>
        <time>2014-10-12T06:03:21.000Z</time>
      </trkpt>
      <trkpt lat="48.72527" lon="1.73452">
        <ele>128.39999389648</ele>
        <time>2014-10-12T06:03:28.000Z</time>
      </trkpt>
      <trkpt lat="48.72537" lon="1.73455">
        <ele>128.19999694824</ele>
        <time>2014-10-12T06:03:36.000Z</time>
      </trkpt>
      <trkpt lat="48.72542" lon="1.73459">
        <ele>128</ele>
        <time>2014-10-12T06:03:42.000Z</time>
      </trkpt>
      <trkpt lat="48.72549" lon="1.73467">
        <ele>127.80000305176</ele>
        <time>2014-10-12T06:03:48.000Z</time>
      </trkpt>
      <trkpt lat="48.72551" lon="1.73469">
        <ele>127.80000305176</ele>
        <time>2014-10-12T06:03:50.000Z</time>
      </trkpt>
      <trkpt lat="48.72557" lon="1.73476">
        <ele>127.59999847412</ele>
        <time>2014-10-12T06:03:56.000Z</time>
      </trkpt>
      <trkpt lat="48.72558" lon="1.73477">
        <ele>127.59999847412</ele>
        <time>2014-10-12T06:03:57.000Z</time>
      </trkpt>
      <trkpt lat="48.7257" lon="1.73487">
        <ele>127.40000152588</ele>
        <time>2014-10-12T06:04:06.000Z</time>
      </trkpt>
      <trkpt lat="48.72573" lon="1.73489">
        <ele>127.40000152588</ele>
        <time>2014-10-12T06:04:09.000Z</time>
      </trkpt>
      <trkpt lat="48.72575" lon="1.73491">
        <ele>127.40000152588</ele>
        <time>2014-10-12T06:04:11.000Z</time>
      </trkpt>
      <trkpt lat="48.72582" lon="1.735">
        <ele>127.40000152588</ele>
        <time>2014-10-12T06:04:19.000Z</time>
      </trkpt>
      <trkpt lat="48.72588" lon="1.73509">
        <ele>127.40000152588</ele>
        <time>2014-10-12T06:04:26.000Z</time>
      </trkpt>
      <trkpt lat="48.72593" lon="1.73517">
        <ele>127.40000152588</ele>
        <time>2014-10-12T06:04:32.000Z</time>
      </trkpt>
      <trkpt lat="48.72601" lon="1.73524">
        <ele>127.40000152588</ele>
        <time>2014-10-12T06:04:39.000Z</time>
      </trkpt>
      <trkpt lat="48.72604" lon="1.73528">
        <ele>127.40000152588</ele>
        <time>2014-10-12T06:04:42.000Z</time>
      </trkpt>
      <trkpt lat="48.72613" lon="1.73534">
        <ele>127.59999847412</ele>
        <time>2014-10-12T06:04:50.000Z</time>
      </trkpt>
      <trkpt lat="48.72615" lon="1.73535">
        <ele>127.59999847412</ele>
        <time>2014-10-12T06:04:51.000Z</time>
      </trkpt>
      <trkpt lat="48.72621" lon="1.73544">
        <ele>127.59999847412</ele>
        <time>2014-10-12T06:04:57.000Z</time>
      </trkpt>
      <trkpt lat="48.72627" lon="1.7355">
        <ele>127.80000305176</ele>
        <time>2014-10-12T06:05:02.000Z</time>
      </trkpt>
      <trkpt lat="48.72628" lon="1.73551">
        <ele>127.80000305176</ele>
        <time>2014-10-12T06:05:03.000Z</time>
      </trkpt>
      <trkpt lat="48.72633" lon="1.73557">
        <ele>127.80000305176</ele>
        <time>2014-10-12T06:05:08.000Z</time>
      </trkpt>
      <trkpt lat="48.72642" lon="1.73563">
        <ele>128</ele>
        <time>2014-10-12T06:05:16.000Z</time>
      </trkpt>
      <trkpt lat="48.72643" lon="1.73564">
        <ele>128</ele>
        <time>2014-10-12T06:05:17.000Z</time>
      </trkpt>
      <trkpt lat="48.7265" lon="1.73569">
        <ele>128</ele>
        <time>2014-10-12T06:05:23.000Z</time>
      </trkpt>
      <trkpt lat="48.72651" lon="1.7357">
        <ele>128</ele>
        <time>2014-10-12T06:05:24.000Z</time>
      </trkpt>
      <trkpt lat="48.72656" lon="1.73574">
        <ele>128</ele>
        <time>2014-10-12T06:05:28.000Z</time>
      </trkpt>
      <trkpt lat="48.72658" lon="1.73576">
        <ele>128.19999694824</ele>
        <time>2014-10-12T06:05:30.000Z</time>
      </trkpt>
      <trkpt lat="48.72665" lon="1.7358">
        <ele>128.19999694824</ele>
        <time>2014-10-12T06:05:36.000Z</time>
      </trkpt>
      <trkpt lat="48.72672" lon="1.73588">
        <ele>128.39999389648</ele>
        <time>2014-10-12T06:05:43.000Z</time>
      </trkpt>
      <trkpt lat="48.72673" lon="1.7359">
        <ele>128.39999389648</ele>
        <time>2014-10-12T06:05:44.000Z</time>
      </trkpt>
      <trkpt lat="48.72677" lon="1.73595">
        <ele>128.60000610352</ele>
        <time>2014-10-12T06:05:48.000Z</time>
      </trkpt>
      <trkpt lat="48.72683" lon="1.73601">
        <ele>128.80000305176</ele>
        <time>2014-10-12T06:05:56.000Z</time>
      </trkpt>
      <trkpt lat="48.72688" lon="1.73607">
        <ele>128.80000305176</ele>
        <time>2014-10-12T06:06:02.000Z</time>
      </trkpt>
      <trkpt lat="48.72695" lon="1.73611">
        <ele>129</ele>
        <time>2014-10-12T06:06:09.000Z</time>
      </trkpt>
      <trkpt lat="48.72697" lon="1.73611">
        <ele>129</ele>
        <time>2014-10-12T06:06:11.000Z</time>
      </trkpt>
      <trkpt lat="48.72704" lon="1.73617">
        <ele>129.39999389648</ele>
        <time>2014-10-12T06:06:17.000Z</time>
      </trkpt>
      <trkpt lat="48.72707" lon="1.73621">
        <ele>129.39999389648</ele>
        <time>2014-10-12T06:06:20.000Z</time>
      </trkpt>
      <trkpt lat="48.72709" lon="1.73623">
        <ele>129.60000610352</ele>
        <time>2014-10-12T06:06:22.000Z</time>
      </trkpt>
      <trkpt lat="48.72715" lon="1.73636">
        <ele>129.80000305176</ele>
        <time>2014-10-12T06:06:30.000Z</time>
      </trkpt>
      <trkpt lat="48.72722" lon="1.73645">
        <ele>130.19999694824</ele>
        <time>2014-10-12T06:06:38.000Z</time>
      </trkpt>
      <trkpt lat="48.72724" lon="1.73647">
        <ele>130.19999694824</ele>
        <time>2014-10-12T06:06:40.000Z</time>
      </trkpt>
      <trkpt lat="48.72731" lon="1.73654">
        <ele>130.60000610352</ele>
        <time>2014-10-12T06:06:47.000Z</time>
      </trkpt>
      <trkpt lat="48.7274" lon="1.73663">
        <ele>130.80000305176</ele>
        <time>2014-10-12T06:06:56.000Z</time>
      </trkpt>
      <trkpt lat="48.72743" lon="1.73667">
        <ele>130.80000305176</ele>
        <time>2014-10-12T06:06:59.000Z</time>
      </trkpt>
      <trkpt lat="48.7275" lon="1.73673">
        <ele>131</ele>
        <time>2014-10-12T06:07:06.000Z</time>
      </trkpt>
      <trkpt lat="48.72753" lon="1.73676">
        <ele>131</ele>
        <time>2014-10-12T06:07:09.000Z</time>
      </trkpt>
      <trkpt lat="48.72759" lon="1.7368">
        <ele>131.19999694824</ele>
        <time>2014-10-12T06:07:14.000Z</time>
      </trkpt>
      <trkpt lat="48.72764" lon="1.73685">
        <ele>131.19999694824</ele>
        <time>2014-10-12T06:07:19.000Z</time>
      </trkpt>
      <trkpt lat="48.72769" lon="1.73693">
        <ele>131.39999389648</ele>
        <time>2014-10-12T06:07:25.000Z</time>
      </trkpt>
      <trkpt lat="48.72779" lon="1.73703">
        <ele>131.60000610352</ele>
        <time>2014-10-12T06:07:33.000Z</time>
      </trkpt>
      <trkpt lat="48.72786" lon="1.73708">
        <ele>131.80000305176</ele>
        <time>2014-10-12T06:07:39.000Z</time>
      </trkpt>
      <trkpt lat="48.72793" lon="1.73718">
        <ele>132</ele>
        <time>2014-10-12T06:07:47.000Z</time>
      </trkpt>
      <trkpt lat="48.72799" lon="1.73725">
        <ele>132.19999694824</ele>
        <time>2014-10-12T06:07:53.000Z</time>
      </trkpt>
      <trkpt lat="48.72807" lon="1.73733">
        <ele>132.39999389648</ele>
        <time>2014-10-12T06:08:00.000Z</time>
      </trkpt>
      <trkpt lat="48.72814" lon="1.7374">
        <ele>132.60000610352</ele>
        <time>2014-10-12T06:08:07.000Z</time>
      </trkpt>
      <trkpt lat="48.72819" lon="1.73744">
        <ele>132.80000305176</ele>
        <time>2014-10-12T06:08:12.000Z</time>
      </trkpt>
      <trkpt lat="48.72824" lon="1.73749">
        <ele>133</ele>
        <time>2014-10-12T06:08:17.000Z</time>
      </trkpt>
      <trkpt lat="48.72826" lon="1.73753">
        <ele>133</ele>
        <time>2014-10-12T06:08:20.000Z</time>
      </trkpt>
      <trkpt lat="48.72833" lon="1.73759">
        <ele>133.19999694824</ele>
        <time>2014-10-12T06:08:27.000Z</time>
      </trkpt>
      <trkpt lat="48.72839" lon="1.73763">
        <ele>133.39999389648</ele>
        <time>2014-10-12T06:08:33.000Z</time>
      </trkpt>
      <trkpt lat="48.72841" lon="1.73767">
        <ele>133.60000610352</ele>
        <time>2014-10-12T06:08:35.000Z</time>
      </trkpt>
      <trkpt lat="48.72849" lon="1.73775">
        <ele>133.80000305176</ele>
        <time>2014-10-12T06:08:42.000Z</time>
      </trkpt>
      <trkpt lat="48.72853" lon="1.73781">
        <ele>134</ele>
        <time>2014-10-12T06:08:47.000Z</time>
      </trkpt>
      <trkpt lat="48.72862" lon="1.7379">
        <ele>134.19999694824</ele>
        <time>2014-10-12T06:08:55.000Z</time>
      </trkpt>
      <trkpt lat="48.72864" lon="1.73792">
        <ele>134.39999389648</ele>
        <time>2014-10-12T06:08:57.000Z</time>
      </trkpt>
      <trkpt lat="48.72872" lon="1.73801">
        <ele>134.60000610352</ele>
        <time>2014-10-12T06:09:05.000Z</time>
      </trkpt>
      <trkpt lat="48.72874" lon="1.73802">
        <ele>134.60000610352</ele>
        <time>2014-10-12T06:09:06.000Z</time>
      </trkpt>
      <trkpt lat="48.72881" lon="1.73809">
        <ele>134.80000305176</ele>
        <time>2014-10-12T06:09:13.000Z</time>
      </trkpt>
      <trkpt lat="48.72883" lon="1.73811">
        <ele>134.80000305176</ele>
        <time>2014-10-12T06:09:15.000Z</time>
      </trkpt>
      <trkpt lat="48.72892" lon="1.73821">
        <ele>135</ele>
        <time>2014-10-12T06:09:25.000Z</time>
      </trkpt>
      <trkpt lat="48.72902" lon="1.7383">
        <ele>135.19999694824</ele>
        <time>2014-10-12T06:09:34.000Z</time>
      </trkpt>
      <trkpt lat="48.72909" lon="1.73837">
        <ele>135.39999389648</ele>
        <time>2014-10-12T06:09:42.000Z</time>
      </trkpt>
      <trkpt lat="48.72916" lon="1.73843">
        <ele>135.60000610352</ele>
        <time>2014-10-12T06:09:50.000Z</time>
      </trkpt>
      <trkpt lat="48.72924" lon="1.73852">
        <ele>135.80000305176</ele>
        <time>2014-10-12T06:09:57.000Z</time>
      </trkpt>
      <trkpt lat="48.72936" lon="1.73866">
        <ele>136</ele>
        <time>2014-10-12T06:10:09.000Z</time>
      </trkpt>
      <trkpt lat="48.72941" lon="1.7387">
        <ele>136.19999694824</ele>
        <time>2014-10-12T06:10:13.000Z</time>
      </trkpt>
      <trkpt lat="48.72951" lon="1.73877">
        <ele>136.60000610352</ele>
        <time>2014-10-12T06:10:21.000Z</time>
      </trkpt>
      <trkpt lat="48.72962" lon="1.73888">
        <ele>137</ele>
        <time>2014-10-12T06:10:31.000Z</time>
      </trkpt>
      <trkpt lat="48.72965" lon="1.73891">
        <ele>137</ele>
        <time>2014-10-12T06:10:34.000Z</time>
      </trkpt>
      <trkpt lat="48.72972" lon="1.73896">
        <ele>137.19999694824</ele>
        <time>2014-10-12T06:10:40.000Z</time>
      </trkpt>
      <trkpt lat="48.72979" lon="1.73904">
        <ele>137.39999389648</ele>
        <time>2014-10-12T06:10:47.000Z</time>
      </trkpt>
      <trkpt lat="48.7298" lon="1.73905">
        <ele>137.60000610352</ele>
        <time>2014-10-12T06:10:48.000Z</time>
      </trkpt>
      <trkpt lat="48.72981" lon="1.73907">
        <ele>137.60000610352</ele>
        <time>2014-10-12T06:10:50.000Z</time>
      </trkpt>
      <trkpt lat="48.72986" lon="1.73915">
        <ele>137.60000610352</ele>
        <time>2014-10-12T06:10:56.000Z</time>
      </trkpt>
      <trkpt lat="48.7299" lon="1.73918">
        <ele>137.60000610352</ele>
        <time>2014-10-12T06:10:59.000Z</time>
      </trkpt>
      <trkpt lat="48.72994" lon="1.73918">
        <ele>137.60000610352</ele>
        <time>2014-10-12T06:11:06.000Z</time>
      </trkpt>
      <trkpt lat="48.72994" lon="1.73918">
        <ele>137.60000610352</ele>
        <time>2014-10-12T06:11:08.000Z</time>
      </trkpt>
      <trkpt lat="48.73004" lon="1.73936">
        <ele>137.80000305176</ele>
        <time>2014-10-12T06:13:23.000Z</time>
      </trkpt>
      <trkpt lat="48.73002" lon="1.73937">
        <ele>137.80000305176</ele>
        <time>2014-10-12T06:13:26.000Z</time>
      </trkpt>
      <trkpt lat="48.72995" lon="1.7394">
        <ele>137.60000610352</ele>
        <time>2014-10-12T06:17:43.000Z</time>
      </trkpt>
      <trkpt lat="48.72998" lon="1.73939">
        <ele>137.80000305176</ele>
        <time>2014-10-12T06:18:08.000Z</time>
      </trkpt>
      <trkpt lat="48.72998" lon="1.73938">
        <ele>137.80000305176</ele>
        <time>2014-10-12T06:18:16.000Z</time>
      </trkpt>
      <trkpt lat="48.72991" lon="1.73945">
        <ele>137.60000610352</ele>
        <time>2014-10-12T06:18:37.000Z</time>
      </trkpt>
      <trkpt lat="48.72987" lon="1.73951">
        <ele>137.60000610352</ele>
        <time>2014-10-12T06:18:45.000Z</time>
      </trkpt>
      <trkpt lat="48.72992" lon="1.73949">
        <ele>137.60000610352</ele>
        <time>2014-10-12T06:18:53.000Z</time>
      </trkpt>
      <trkpt lat="48.72989" lon="1.73947">
        <ele>137.60000610352</ele>
        <time>2014-10-12T06:19:04.000Z</time>
      </trkpt>
      <trkpt lat="48.72996" lon="1.7394">
        <ele>137.60000610352</ele>
        <time>2014-10-12T06:19:34.000Z</time>
      </trkpt>
      <trkpt lat="48.72996" lon="1.73936">
        <ele>137.80000305176</ele>
        <time>2014-10-12T06:19:40.000Z</time>
      </trkpt>
      <trkpt lat="48.72998" lon="1.7393">
        <ele>137.80000305176</ele>
        <time>2014-10-12T06:19:51.000Z</time>
      </trkpt>
      <trkpt lat="48.72998" lon="1.73934">
        <ele>137.80000305176</ele>
        <time>2014-10-12T06:20:07.000Z</time>
      </trkpt>
      <trkpt lat="48.72994" lon="1.7394">
        <ele>137.60000610352</ele>
        <time>2014-10-12T06:20:17.000Z</time>
      </trkpt>
      <trkpt lat="48.72996" lon="1.7394">
        <ele>137.80000305176</ele>
        <time>2014-10-12T06:21:09.000Z</time>
      </trkpt>
      <trkpt lat="48.73002" lon="1.73939">
        <ele>137.80000305176</ele>
        <time>2014-10-12T06:21:13.000Z</time>
      </trkpt>
      <trkpt lat="48.73003" lon="1.73938">
        <ele>137.80000305176</ele>
        <time>2014-10-12T06:21:14.000Z</time>
      </trkpt>
      <trkpt lat="48.73012" lon="1.73938">
        <ele>137.80000305176</ele>
        <time>2014-10-12T06:21:21.000Z</time>
      </trkpt>
      <trkpt lat="48.7302" lon="1.73941">
        <ele>138</ele>
        <time>2014-10-12T06:21:29.000Z</time>
      </trkpt>
      <trkpt lat="48.73022" lon="1.73945">
        <ele>138</ele>
        <time>2014-10-12T06:21:36.000Z</time>
      </trkpt>
      <trkpt lat="48.73023" lon="1.73945">
        <ele>138</ele>
        <time>2014-10-12T06:21:37.000Z</time>
      </trkpt>
      <trkpt lat="48.73049" lon="1.73976">
        <ele>137.39999389648</ele>
        <time>2014-10-12T06:22:47.000Z</time>
      </trkpt>
      <trkpt lat="48.73057" lon="1.7398">
        <ele>137.19999694824</ele>
        <time>2014-10-12T06:22:52.000Z</time>
      </trkpt>
      <trkpt lat="48.73064" lon="1.73989">
        <ele>137</ele>
        <time>2014-10-12T06:22:59.000Z</time>
      </trkpt>
      <trkpt lat="48.73068" lon="1.73992">
        <ele>137</ele>
        <time>2014-10-12T06:23:04.000Z</time>
      </trkpt>
      <trkpt lat="48.7307" lon="1.73993">
        <ele>137</ele>
        <time>2014-10-12T06:23:06.000Z</time>
      </trkpt>
      <trkpt lat="48.73072" lon="1.73993">
        <ele>136.80000305176</ele>
        <time>2014-10-12T06:23:10.000Z</time>
      </trkpt>
      <trkpt lat="48.73067" lon="1.74008">
        <ele>137.39999389648</ele>
        <time>2014-10-12T06:24:37.000Z</time>
      </trkpt>
      <trkpt lat="48.73065" lon="1.74008">
        <ele>137.39999389648</ele>
        <time>2014-10-12T06:24:39.000Z</time>
      </trkpt>
      <trkpt lat="48.73071" lon="1.74018">
        <ele>137.60000610352</ele>
        <time>2014-10-12T06:25:03.000Z</time>
      </trkpt>
      <trkpt lat="48.73071" lon="1.7402">
        <ele>137.60000610352</ele>
        <time>2014-10-12T06:25:04.000Z</time>
      </trkpt>
      <trkpt lat="48.73071" lon="1.74021">
        <ele>137.60000610352</ele>
        <time>2014-10-12T06:25:06.000Z</time>
      </trkpt>
      <trkpt lat="48.73085" lon="1.74035">
        <ele>137.60000610352</ele>
        <time>2014-10-12T06:26:57.000Z</time>
      </trkpt>
      <trkpt lat="48.73089" lon="1.74035">
        <ele>137.39999389648</ele>
        <time>2014-10-12T06:26:58.000Z</time>
      </trkpt>
      <trkpt lat="48.73094" lon="1.74036">
        <ele>137.39999389648</ele>
        <time>2014-10-12T06:27:04.000Z</time>
      </trkpt>
      <trkpt lat="48.73103" lon="1.74043">
        <ele>137.39999389648</ele>
        <time>2014-10-12T06:27:11.000Z</time>
      </trkpt>
      <trkpt lat="48.73107" lon="1.74048">
        <ele>137.60000610352</ele>
        <time>2014-10-12T06:27:16.000Z</time>
      </trkpt>
      <trkpt lat="48.73109" lon="1.7405">
        <ele>137.60000610352</ele>
        <time>2014-10-12T06:27:18.000Z</time>
      </trkpt>
      <trkpt lat="48.73111" lon="1.7405">
        <ele>137.80000305176</ele>
        <time>2014-10-12T06:27:20.000Z</time>
      </trkpt>
      <trkpt lat="48.73113" lon="1.74053">
        <ele>138</ele>
        <time>2014-10-12T06:27:25.000Z</time>
      </trkpt>
      <trkpt lat="48.73118" lon="1.74057">
        <ele>138.19999694824</ele>
        <time>2014-10-12T06:27:30.000Z</time>
      </trkpt>
      <trkpt lat="48.73124" lon="1.74061">
        <ele>138.60000610352</ele>
        <time>2014-10-12T06:27:35.000Z</time>
      </trkpt>
      <trkpt lat="48.73126" lon="1.74067">
        <ele>138.60000610352</ele>
        <time>2014-10-12T06:27:41.000Z</time>
      </trkpt>
      <trkpt lat="48.73128" lon="1.74072">
        <ele>138.80000305176</ele>
        <time>2014-10-12T06:27:47.000Z</time>
      </trkpt>
      <trkpt lat="48.73135" lon="1.74077">
        <ele>139.19999694824</ele>
        <time>2014-10-12T06:27:53.000Z</time>
      </trkpt>
      <trkpt lat="48.73137" lon="1.74079">
        <ele>139.19999694824</ele>
        <time>2014-10-12T06:27:55.000Z</time>
      </trkpt>
      <trkpt lat="48.73141" lon="1.74081">
        <ele>139.39999389648</ele>
        <time>2014-10-12T06:27:58.000Z</time>
      </trkpt>
      <trkpt lat="48.73142" lon="1.74082">
        <ele>139.39999389648</ele>
        <time>2014-10-12T06:28:00.000Z</time>
      </trkpt>
      <trkpt lat="48.73147" lon="1.74086">
        <ele>139.60000610352</ele>
        <time>2014-10-12T06:28:07.000Z</time>
      </trkpt>
      <trkpt lat="48.7315" lon="1.74088">
        <ele>139.60000610352</ele>
        <time>2014-10-12T06:28:10.000Z</time>
      </trkpt>
      <trkpt lat="48.73154" lon="1.74091">
        <ele>139.80000305176</ele>
        <time>2014-10-12T06:28:16.000Z</time>
      </trkpt>
      <trkpt lat="48.73157" lon="1.74097">
        <ele>140</ele>
        <time>2014-10-12T06:28:22.000Z</time>
      </trkpt>
      <trkpt lat="48.7316" lon="1.74102">
        <ele>140</ele>
        <time>2014-10-12T06:28:29.000Z</time>
      </trkpt>
      <trkpt lat="48.73164" lon="1.74104">
        <ele>140.19999694824</ele>
        <time>2014-10-12T06:28:33.000Z</time>
      </trkpt>
      <trkpt lat="48.73164" lon="1.74104">
        <ele>140.19999694824</ele>
        <time>2014-10-12T06:28:34.000Z</time>
      </trkpt>
      <trkpt lat="48.73169" lon="1.7411">
        <ele>140.39999389648</ele>
        <time>2014-10-12T06:28:39.000Z</time>
      </trkpt>
      <trkpt lat="48.73175" lon="1.74115">
        <ele>140.60000610352</ele>
        <time>2014-10-12T06:28:44.000Z</time>
      </trkpt>
      <trkpt lat="48.7318" lon="1.7412">
        <ele>140.80000305176</ele>
        <time>2014-10-12T06:28:50.000Z</time>
      </trkpt>
      <trkpt lat="48.73181" lon="1.74121">
        <ele>140.80000305176</ele>
        <time>2014-10-12T06:28:51.000Z</time>
      </trkpt>
      <trkpt lat="48.73186" lon="1.74124">
        <ele>141</ele>
        <time>2014-10-12T06:28:56.000Z</time>
      </trkpt>
      <trkpt lat="48.73193" lon="1.74131">
        <ele>141</ele>
        <time>2014-10-12T06:29:03.000Z</time>
      </trkpt>
      <trkpt lat="48.73195" lon="1.74132">
        <ele>141</ele>
        <time>2014-10-12T06:29:04.000Z</time>
      </trkpt>
      <trkpt lat="48.732" lon="1.74138">
        <ele>141.19999694824</ele>
        <time>2014-10-12T06:29:10.000Z</time>
      </trkpt>
      <trkpt lat="48.73203" lon="1.74141">
        <ele>141.19999694824</ele>
        <time>2014-10-12T06:29:15.000Z</time>
      </trkpt>
      <trkpt lat="48.73209" lon="1.74147">
        <ele>141.19999694824</ele>
        <time>2014-10-12T06:29:21.000Z</time>
      </trkpt>
      <trkpt lat="48.73212" lon="1.74151">
        <ele>141.39999389648</ele>
        <time>2014-10-12T06:29:26.000Z</time>
      </trkpt>
      <trkpt lat="48.73218" lon="1.74159">
        <ele>141.39999389648</ele>
        <time>2014-10-12T06:29:33.000Z</time>
      </trkpt>
      <trkpt lat="48.73222" lon="1.74164">
        <ele>141.39999389648</ele>
        <time>2014-10-12T06:29:39.000Z</time>
      </trkpt>
      <trkpt lat="48.73229" lon="1.74171">
        <ele>141.19999694824</ele>
        <time>2014-10-12T06:29:47.000Z</time>
      </trkpt>
      <trkpt lat="48.73237" lon="1.74178">
        <ele>141.39999389648</ele>
        <time>2014-10-12T06:29:55.000Z</time>
      </trkpt>
      <trkpt lat="48.73238" lon="1.7418">
        <ele>141.39999389648</ele>
        <time>2014-10-12T06:29:56.000Z</time>
      </trkpt>
      <trkpt lat="48.73242" lon="1.74184">
        <ele>141.19999694824</ele>
        <time>2014-10-12T06:30:00.000Z</time>
      </trkpt>
      <trkpt lat="48.73249" lon="1.74191">
        <ele>141.19999694824</ele>
        <time>2014-10-12T06:30:08.000Z</time>
      </trkpt>
      <trkpt lat="48.73253" lon="1.74196">
        <ele>141.19999694824</ele>
        <time>2014-10-12T06:30:13.000Z</time>
      </trkpt>
      <trkpt lat="48.73258" lon="1.74201">
        <ele>141.19999694824</ele>
        <time>2014-10-12T06:30:18.000Z</time>
      </trkpt>
      <trkpt lat="48.73261" lon="1.74203">
        <ele>141.19999694824</ele>
        <time>2014-10-12T06:30:21.000Z</time>
      </trkpt>
      <trkpt lat="48.73268" lon="1.74211">
        <ele>141.19999694824</ele>
        <time>2014-10-12T06:30:28.000Z</time>
      </trkpt>
      <trkpt lat="48.73272" lon="1.74216">
        <ele>141.19999694824</ele>
        <time>2014-10-12T06:30:33.000Z</time>
      </trkpt>
      <trkpt lat="48.73275" lon="1.74222">
        <ele>141.19999694824</ele>
        <time>2014-10-12T06:30:38.000Z</time>
      </trkpt>
      <trkpt lat="48.73277" lon="1.74224">
        <ele>141</ele>
        <time>2014-10-12T06:30:40.000Z</time>
      </trkpt>
      <trkpt lat="48.73282" lon="1.74228">
        <ele>141</ele>
        <time>2014-10-12T06:30:45.000Z</time>
      </trkpt>
      <trkpt lat="48.73289" lon="1.74232">
        <ele>140.80000305176</ele>
        <time>2014-10-12T06:30:50.000Z</time>
      </trkpt>
      <trkpt lat="48.73296" lon="1.74239">
        <ele>140.80000305176</ele>
        <time>2014-10-12T06:30:56.000Z</time>
      </trkpt>
      <trkpt lat="48.73303" lon="1.74242">
        <ele>140.60000610352</ele>
        <time>2014-10-12T06:31:02.000Z</time>
      </trkpt>
      <trkpt lat="48.73304" lon="1.7424">
        <ele>140.60000610352</ele>
        <time>2014-10-12T06:31:04.000Z</time>
      </trkpt>
      <trkpt lat="48.73309" lon="1.74233">
        <ele>140.60000610352</ele>
        <time>2014-10-12T06:31:10.000Z</time>
      </trkpt>
      <trkpt lat="48.73309" lon="1.74235">
        <ele>140.60000610352</ele>
        <time>2014-10-12T06:31:14.000Z</time>
      </trkpt>
      <trkpt lat="48.73307" lon="1.74234">
        <ele>140.60000610352</ele>
        <time>2014-10-12T06:31:17.000Z</time>
      </trkpt>
      <trkpt lat="48.73311" lon="1.7421">
        <ele>140.80000305176</ele>
        <time>2014-10-12T06:31:50.000Z</time>
      </trkpt>
      <trkpt lat="48.73315" lon="1.74202">
        <ele>140.80000305176</ele>
        <time>2014-10-12T06:31:55.000Z</time>
      </trkpt>
      <trkpt lat="48.73317" lon="1.74197">
        <ele>141</ele>
        <time>2014-10-12T06:32:01.000Z</time>
      </trkpt>
      <trkpt lat="48.73324" lon="1.74184">
        <ele>141.19999694824</ele>
        <time>2014-10-12T06:32:34.000Z</time>
      </trkpt>
      <trkpt lat="48.73324" lon="1.7418">
        <ele>141.39999389648</ele>
        <time>2014-10-12T06:32:35.000Z</time>
      </trkpt>
      <trkpt lat="48.73327" lon="1.7417">
        <ele>141.60000610352</ele>
        <time>2014-10-12T06:32:41.000Z</time>
      </trkpt>
      <trkpt lat="48.7333" lon="1.74155">
        <ele>142</ele>
        <time>2014-10-12T06:32:49.000Z</time>
      </trkpt>
      <trkpt lat="48.73332" lon="1.74149">
        <ele>142</ele>
        <time>2014-10-12T06:32:53.000Z</time>
      </trkpt>
      <trkpt lat="48.73335" lon="1.74142">
        <ele>141.80000305176</ele>
        <time>2014-10-12T06:32:59.000Z</time>
      </trkpt>
      <trkpt lat="48.7334" lon="1.74134">
        <ele>141.80000305176</ele>
        <time>2014-10-12T06:33:04.000Z</time>
      </trkpt>
      <trkpt lat="48.73344" lon="1.74123">
        <ele>141.60000610352</ele>
        <time>2014-10-12T06:33:11.000Z</time>
      </trkpt>
      <trkpt lat="48.73347" lon="1.74111">
        <ele>141.39999389648</ele>
        <time>2014-10-12T06:33:18.000Z</time>
      </trkpt>
      <trkpt lat="48.73348" lon="1.74106">
        <ele>141.39999389648</ele>
        <time>2014-10-12T06:33:20.000Z</time>
      </trkpt>
      <trkpt lat="48.73354" lon="1.74089">
        <ele>141.19999694824</ele>
        <time>2014-10-12T06:33:28.000Z</time>
      </trkpt>
      <trkpt lat="48.73354" lon="1.74087">
        <ele>141.19999694824</ele>
        <time>2014-10-12T06:33:29.000Z</time>
      </trkpt>
      <trkpt lat="48.73356" lon="1.74079">
        <ele>141</ele>
        <time>2014-10-12T06:33:34.000Z</time>
      </trkpt>
      <trkpt lat="48.73362" lon="1.74071">
        <ele>141</ele>
        <time>2014-10-12T06:33:40.000Z</time>
      </trkpt>
      <trkpt lat="48.73366" lon="1.74058">
        <ele>141.19999694824</ele>
        <time>2014-10-12T06:33:48.000Z</time>
      </trkpt>
      <trkpt lat="48.73373" lon="1.74044">
        <ele>141.19999694824</ele>
        <time>2014-10-12T06:33:56.000Z</time>
      </trkpt>
      <trkpt lat="48.73374" lon="1.74041">
        <ele>141.19999694824</ele>
        <time>2014-10-12T06:33:58.000Z</time>
      </trkpt>
      <trkpt lat="48.7338" lon="1.7403">
        <ele>141.39999389648</ele>
        <time>2014-10-12T06:34:05.000Z</time>
      </trkpt>
      <trkpt lat="48.73388" lon="1.74013">
        <ele>141.19999694824</ele>
        <time>2014-10-12T06:34:14.000Z</time>
      </trkpt>
      <trkpt lat="48.7339" lon="1.74007">
        <ele>141</ele>
        <time>2014-10-12T06:34:17.000Z</time>
      </trkpt>
      <trkpt lat="48.73396" lon="1.73996">
        <ele>140.80000305176</ele>
        <time>2014-10-12T06:34:25.000Z</time>
      </trkpt>
      <trkpt lat="48.73401" lon="1.73984">
        <ele>140.39999389648</ele>
        <time>2014-10-12T06:34:32.000Z</time>
      </trkpt>
      <trkpt lat="48.73403" lon="1.73978">
        <ele>140.39999389648</ele>
        <time>2014-10-12T06:34:35.000Z</time>
      </trkpt>
      <trkpt lat="48.73407" lon="1.73963">
        <ele>140.39999389648</ele>
        <time>2014-10-12T06:34:43.000Z</time>
      </trkpt>
      <trkpt lat="48.73407" lon="1.73961">
        <ele>140.39999389648</ele>
        <time>2014-10-12T06:34:44.000Z</time>
      </trkpt>
      <trkpt lat="48.73407" lon="1.73955">
        <ele>140.39999389648</ele>
        <time>2014-10-12T06:34:47.000Z</time>
      </trkpt>
      <trkpt lat="48.73405" lon="1.73947">
        <ele>140.39999389648</ele>
        <time>2014-10-12T06:34:55.000Z</time>
      </trkpt>
      <trkpt lat="48.73396" lon="1.73936">
        <ele>140.60000610352</ele>
        <time>2014-10-12T06:38:20.000Z</time>
      </trkpt>
      <trkpt lat="48.73395" lon="1.73935">
        <ele>140.60000610352</ele>
        <time>2014-10-12T06:38:21.000Z</time>
      </trkpt>
      <trkpt lat="48.73393" lon="1.73928">
        <ele>140.80000305176</ele>
        <time>2014-10-12T06:38:24.000Z</time>
      </trkpt>
      <trkpt lat="48.73392" lon="1.73926">
        <ele>140.80000305176</ele>
        <time>2014-10-12T06:38:27.000Z</time>
      </trkpt>
      <trkpt lat="48.73384" lon="1.73911">
        <ele>141</ele>
        <time>2014-10-12T06:38:51.000Z</time>
      </trkpt>
      <trkpt lat="48.7338" lon="1.73903">
        <ele>141</ele>
        <time>2014-10-12T06:38:55.000Z</time>
      </trkpt>
      <trkpt lat="48.73376" lon="1.73894">
        <ele>141</ele>
        <time>2014-10-12T06:39:02.000Z</time>
      </trkpt>
      <trkpt lat="48.73374" lon="1.73888">
        <ele>141</ele>
        <time>2014-10-12T06:39:07.000Z</time>
      </trkpt>
      <trkpt lat="48.73372" lon="1.73885">
        <ele>141</ele>
        <time>2014-10-12T06:39:09.000Z</time>
      </trkpt>
      <trkpt lat="48.73367" lon="1.73878">
        <ele>141</ele>
        <time>2014-10-12T06:39:15.000Z</time>
      </trkpt>
      <trkpt lat="48.73361" lon="1.73869">
        <ele>141</ele>
        <time>2014-10-12T06:39:21.000Z</time>
      </trkpt>
      <trkpt lat="48.73356" lon="1.7386">
        <ele>141</ele>
        <time>2014-10-12T06:39:27.000Z</time>
      </trkpt>
      <trkpt lat="48.73351" lon="1.73851">
        <ele>141</ele>
        <time>2014-10-12T06:39:33.000Z</time>
      </trkpt>
      <trkpt lat="48.73342" lon="1.73839">
        <ele>140.80000305176</ele>
        <time>2014-10-12T06:39:41.000Z</time>
      </trkpt>
      <trkpt lat="48.73338" lon="1.73831">
        <ele>140.80000305176</ele>
        <time>2014-10-12T06:39:46.000Z</time>
      </trkpt>
      <trkpt lat="48.7333" lon="1.73818">
        <ele>140.80000305176</ele>
        <time>2014-10-12T06:39:54.000Z</time>
      </trkpt>
      <trkpt lat="48.73323" lon="1.73807">
        <ele>140.60000610352</ele>
        <time>2014-10-12T06:40:01.000Z</time>
      </trkpt>
      <trkpt lat="48.73322" lon="1.73806">
        <ele>140.60000610352</ele>
        <time>2014-10-12T06:40:02.000Z</time>
      </trkpt>
      <trkpt lat="48.73315" lon="1.73794">
        <ele>140.60000610352</ele>
        <time>2014-10-12T06:40:09.000Z</time>
      </trkpt>
      <trkpt lat="48.73313" lon="1.73793">
        <ele>140.60000610352</ele>
        <time>2014-10-12T06:40:10.000Z</time>
      </trkpt>
      <trkpt lat="48.73307" lon="1.73784">
        <ele>140.39999389648</ele>
        <time>2014-10-12T06:40:15.000Z</time>
      </trkpt>
      <trkpt lat="48.73303" lon="1.73775">
        <ele>140.39999389648</ele>
        <time>2014-10-12T06:40:21.000Z</time>
      </trkpt>
      <trkpt lat="48.73297" lon="1.73764">
        <ele>140.39999389648</ele>
        <time>2014-10-12T06:40:29.000Z</time>
      </trkpt>
      <trkpt lat="48.73293" lon="1.73757">
        <ele>140.19999694824</ele>
        <time>2014-10-12T06:40:34.000Z</time>
      </trkpt>
      <trkpt lat="48.73289" lon="1.73751">
        <ele>140.19999694824</ele>
        <time>2014-10-12T06:40:38.000Z</time>
      </trkpt>
      <trkpt lat="48.73282" lon="1.73741">
        <ele>140.19999694824</ele>
        <time>2014-10-12T06:40:45.000Z</time>
      </trkpt>
      <trkpt lat="48.73277" lon="1.73733">
        <ele>140</ele>
        <time>2014-10-12T06:40:50.000Z</time>
      </trkpt>
      <trkpt lat="48.73271" lon="1.73722">
        <ele>140</ele>
        <time>2014-10-12T06:40:57.000Z</time>
      </trkpt>
      <trkpt lat="48.73269" lon="1.73718">
        <ele>140</ele>
        <time>2014-10-12T06:41:00.000Z</time>
      </trkpt>
      <trkpt lat="48.73266" lon="1.73716">
        <ele>139.80000305176</ele>
        <time>2014-10-12T06:41:02.000Z</time>
      </trkpt>
      <trkpt lat="48.73263" lon="1.73708">
        <ele>139.80000305176</ele>
        <time>2014-10-12T06:41:07.000Z</time>
      </trkpt>
      <trkpt lat="48.7326" lon="1.73707">
        <ele>139.60000610352</ele>
        <time>2014-10-12T06:41:09.000Z</time>
      </trkpt>
      <trkpt lat="48.73257" lon="1.73699">
        <ele>139.60000610352</ele>
        <time>2014-10-12T06:41:13.000Z</time>
      </trkpt>
      <trkpt lat="48.73255" lon="1.73691">
        <ele>139.39999389648</ele>
        <time>2014-10-12T06:41:18.000Z</time>
      </trkpt>
      <trkpt lat="48.73252" lon="1.73682">
        <ele>139.39999389648</ele>
        <time>2014-10-12T06:41:23.000Z</time>
      </trkpt>
      <trkpt lat="48.73246" lon="1.73671">
        <ele>139.19999694824</ele>
        <time>2014-10-12T06:41:30.000Z</time>
      </trkpt>
      <trkpt lat="48.7324" lon="1.73664">
        <ele>139</ele>
        <time>2014-10-12T06:41:35.000Z</time>
      </trkpt>
      <trkpt lat="48.73236" lon="1.73658">
        <ele>138.80000305176</ele>
        <time>2014-10-12T06:41:40.000Z</time>
      </trkpt>
      <trkpt lat="48.73234" lon="1.73655">
        <ele>138.60000610352</ele>
        <time>2014-10-12T06:41:42.000Z</time>
      </trkpt>
      <trkpt lat="48.73228" lon="1.73648">
        <ele>138.60000610352</ele>
        <time>2014-10-12T06:41:48.000Z</time>
      </trkpt>
      <trkpt lat="48.73224" lon="1.73644">
        <ele>138.39999389648</ele>
        <time>2014-10-12T06:41:54.000Z</time>
      </trkpt>
      <trkpt lat="48.73221" lon="1.73633">
        <ele>138.39999389648</ele>
        <time>2014-10-12T06:41:58.000Z</time>
      </trkpt>
      <trkpt lat="48.73218" lon="1.73625">
        <ele>138.39999389648</ele>
        <time>2014-10-12T06:42:02.000Z</time>
      </trkpt>
      <trkpt lat="48.73217" lon="1.73621">
        <ele>138.39999389648</ele>
        <time>2014-10-12T06:42:04.000Z</time>
      </trkpt>
      <trkpt lat="48.73208" lon="1.73607">
        <ele>138.39999389648</ele>
        <time>2014-10-12T06:42:09.000Z</time>
      </trkpt>
      <trkpt lat="48.73196" lon="1.7359">
        <ele>138</ele>
        <time>2014-10-12T06:42:15.000Z</time>
      </trkpt>
      <trkpt lat="48.73184" lon="1.7357">
        <ele>137.80000305176</ele>
        <time>2014-10-12T06:42:21.000Z</time>
      </trkpt>
      <trkpt lat="48.73173" lon="1.73554">
        <ele>137.39999389648</ele>
        <time>2014-10-12T06:42:26.000Z</time>
      </trkpt>
      <trkpt lat="48.73159" lon="1.73532">
        <ele>136.80000305176</ele>
        <time>2014-10-12T06:42:32.000Z</time>
      </trkpt>
      <trkpt lat="48.73148" lon="1.73515">
        <ele>136.39999389648</ele>
        <time>2014-10-12T06:42:37.000Z</time>
      </trkpt>
      <trkpt lat="48.73141" lon="1.73497">
        <ele>136</ele>
        <time>2014-10-12T06:42:42.000Z</time>
      </trkpt>
      <trkpt lat="48.73138" lon="1.73491">
        <ele>135.80000305176</ele>
        <time>2014-10-12T06:42:44.000Z</time>
      </trkpt>
      <trkpt lat="48.73131" lon="1.73481">
        <ele>135.80000305176</ele>
        <time>2014-10-12T06:42:48.000Z</time>
      </trkpt>
      <trkpt lat="48.73118" lon="1.73455">
        <ele>136.19999694824</ele>
        <time>2014-10-12T06:42:55.000Z</time>
      </trkpt>
      <trkpt lat="48.73105" lon="1.73433">
        <ele>136.39999389648</ele>
        <time>2014-10-12T06:43:01.000Z</time>
      </trkpt>
      <trkpt lat="48.73101" lon="1.73426">
        <ele>136.39999389648</ele>
        <time>2014-10-12T06:43:03.000Z</time>
      </trkpt>
      <trkpt lat="48.73086" lon="1.73401">
        <ele>136.39999389648</ele>
        <time>2014-10-12T06:43:10.000Z</time>
      </trkpt>
      <trkpt lat="48.73076" lon="1.73382">
        <ele>136</ele>
        <time>2014-10-12T06:43:16.000Z</time>
      </trkpt>
      <trkpt lat="48.73063" lon="1.73365">
        <ele>135.60000610352</ele>
        <time>2014-10-12T06:43:21.000Z</time>
      </trkpt>
      <trkpt lat="48.73056" lon="1.73347">
        <ele>135.19999694824</ele>
        <time>2014-10-12T06:43:25.000Z</time>
      </trkpt>
      <trkpt lat="48.73047" lon="1.73332">
        <ele>135</ele>
        <time>2014-10-12T06:43:29.000Z</time>
      </trkpt>
      <trkpt lat="48.73033" lon="1.73311">
        <ele>134.39999389648</ele>
        <time>2014-10-12T06:43:35.000Z</time>
      </trkpt>
      <trkpt lat="48.73026" lon="1.73303">
        <ele>134</ele>
        <time>2014-10-12T06:43:38.000Z</time>
      </trkpt>
      <trkpt lat="48.73015" lon="1.73284">
        <ele>133.39999389648</ele>
        <time>2014-10-12T06:43:43.000Z</time>
      </trkpt>
      <trkpt lat="48.73002" lon="1.73263">
        <ele>132.60000610352</ele>
        <time>2014-10-12T06:43:49.000Z</time>
      </trkpt>
      <trkpt lat="48.72992" lon="1.73248">
        <ele>132</ele>
        <time>2014-10-12T06:43:54.000Z</time>
      </trkpt>
      <trkpt lat="48.72974" lon="1.73217">
        <ele>131.39999389648</ele>
        <time>2014-10-12T06:44:02.000Z</time>
      </trkpt>
      <trkpt lat="48.72962" lon="1.73196">
        <ele>130.80000305176</ele>
        <time>2014-10-12T06:44:08.000Z</time>
      </trkpt>
      <trkpt lat="48.72952" lon="1.73178">
        <ele>130.60000610352</ele>
        <time>2014-10-12T06:44:14.000Z</time>
      </trkpt>
      <trkpt lat="48.72941" lon="1.73158">
        <ele>130.19999694824</ele>
        <time>2014-10-12T06:44:20.000Z</time>
      </trkpt>
      <trkpt lat="48.72929" lon="1.73138">
        <ele>129.80000305176</ele>
        <time>2014-10-12T06:44:27.000Z</time>
      </trkpt>
      <trkpt lat="48.72916" lon="1.73122">
        <ele>129.39999389648</ele>
        <time>2014-10-12T06:44:32.000Z</time>
      </trkpt>
      <trkpt lat="48.72905" lon="1.73102">
        <ele>129</ele>
        <time>2014-10-12T06:44:38.000Z</time>
      </trkpt>
      <trkpt lat="48.72903" lon="1.73099">
        <ele>129</ele>
        <time>2014-10-12T06:44:39.000Z</time>
      </trkpt>
      <trkpt lat="48.72898" lon="1.73085">
        <ele>128.80000305176</ele>
        <time>2014-10-12T06:44:43.000Z</time>
      </trkpt>
      <trkpt lat="48.7289" lon="1.7307">
        <ele>128.39999389648</ele>
        <time>2014-10-12T06:44:49.000Z</time>
      </trkpt>
      <trkpt lat="48.72888" lon="1.73059">
        <ele>128.19999694824</ele>
        <time>2014-10-12T06:44:55.000Z</time>
      </trkpt>
      <trkpt lat="48.72887" lon="1.73054">
        <ele>128.19999694824</ele>
        <time>2014-10-12T06:44:58.000Z</time>
      </trkpt>
      <trkpt lat="48.72888" lon="1.73041">
        <ele>128</ele>
        <time>2014-10-12T06:45:06.000Z</time>
      </trkpt>
      <trkpt lat="48.72886" lon="1.73041">
        <ele>128</ele>
        <time>2014-10-12T06:45:11.000Z</time>
      </trkpt>
      <trkpt lat="48.72885" lon="1.7304">
        <ele>128</ele>
        <time>2014-10-12T06:45:16.000Z</time>
      </trkpt>
      <trkpt lat="48.72884" lon="1.73039">
        <ele>128</ele>
        <time>2014-10-12T06:45:19.000Z</time>
      </trkpt>
      <trkpt lat="48.72846" lon="1.73003">
        <ele>127</ele>
        <time>2014-10-12T06:47:46.000Z</time>
      </trkpt>
      <trkpt lat="48.72842" lon="1.72995">
        <ele>127</ele>
        <time>2014-10-12T06:47:50.000Z</time>
      </trkpt>
      <trkpt lat="48.72836" lon="1.72985">
        <ele>126.80000305176</ele>
        <time>2014-10-12T06:47:56.000Z</time>
      </trkpt>
      <trkpt lat="48.7283" lon="1.72974">
        <ele>126.80000305176</ele>
        <time>2014-10-12T06:48:03.000Z</time>
      </trkpt>
      <trkpt lat="48.72828" lon="1.72972">
        <ele>126.80000305176</ele>
        <time>2014-10-12T06:48:05.000Z</time>
      </trkpt>
      <trkpt lat="48.72823" lon="1.7296">
        <ele>127</ele>
        <time>2014-10-12T06:48:12.000Z</time>
      </trkpt>
      <trkpt lat="48.72822" lon="1.72959">
        <ele>127</ele>
        <time>2014-10-12T06:48:13.000Z</time>
      </trkpt>
      <trkpt lat="48.72818" lon="1.72953">
        <ele>127</ele>
        <time>2014-10-12T06:48:17.000Z</time>
      </trkpt>
      <trkpt lat="48.72812" lon="1.72944">
        <ele>127</ele>
        <time>2014-10-12T06:48:23.000Z</time>
      </trkpt>
      <trkpt lat="48.72808" lon="1.72939">
        <ele>127</ele>
        <time>2014-10-12T06:48:27.000Z</time>
      </trkpt>
      <trkpt lat="48.72805" lon="1.72935">
        <ele>127</ele>
        <time>2014-10-12T06:48:30.000Z</time>
      </trkpt>
      <trkpt lat="48.72798" lon="1.72924">
        <ele>127</ele>
        <time>2014-10-12T06:48:37.000Z</time>
      </trkpt>
      <trkpt lat="48.72794" lon="1.72913">
        <ele>127.19999694824</ele>
        <time>2014-10-12T06:48:44.000Z</time>
      </trkpt>
      <trkpt lat="48.7279" lon="1.72901">
        <ele>127.19999694824</ele>
        <time>2014-10-12T06:48:51.000Z</time>
      </trkpt>
      <trkpt lat="48.72784" lon="1.7289">
        <ele>127.40000152588</ele>
        <time>2014-10-12T06:48:58.000Z</time>
      </trkpt>
      <trkpt lat="48.7278" lon="1.72884">
        <ele>127.40000152588</ele>
        <time>2014-10-12T06:49:03.000Z</time>
      </trkpt>
      <trkpt lat="48.72777" lon="1.72878">
        <ele>127.40000152588</ele>
        <time>2014-10-12T06:49:08.000Z</time>
      </trkpt>
      <trkpt lat="48.72777" lon="1.72877">
        <ele>127.40000152588</ele>
        <time>2014-10-12T06:49:12.000Z</time>
      </trkpt>
      <trkpt lat="48.72775" lon="1.72874">
        <ele>127.40000152588</ele>
        <time>2014-10-12T06:49:17.000Z</time>
      </trkpt>
      <trkpt lat="48.72775" lon="1.72873">
        <ele>127.40000152588</ele>
        <time>2014-10-12T06:49:18.000Z</time>
      </trkpt>
      <trkpt lat="48.72767" lon="1.72859">
        <ele>127.40000152588</ele>
        <time>2014-10-12T06:49:26.000Z</time>
      </trkpt>
      <trkpt lat="48.72759" lon="1.72848">
        <ele>127.40000152588</ele>
        <time>2014-10-12T06:49:33.000Z</time>
      </trkpt>
      <trkpt lat="48.7275" lon="1.72834">
        <ele>127.40000152588</ele>
        <time>2014-10-12T06:49:42.000Z</time>
      </trkpt>
      <trkpt lat="48.72742" lon="1.72824">
        <ele>127.19999694824</ele>
        <time>2014-10-12T06:49:49.000Z</time>
      </trkpt>
      <trkpt lat="48.72737" lon="1.72815">
        <ele>127.19999694824</ele>
        <time>2014-10-12T06:49:55.000Z</time>
      </trkpt>
      <trkpt lat="48.72729" lon="1.72805">
        <ele>127.19999694824</ele>
        <time>2014-10-12T06:50:02.000Z</time>
      </trkpt>
      <trkpt lat="48.72722" lon="1.7279">
        <ele>127.19999694824</ele>
        <time>2014-10-12T06:50:10.000Z</time>
      </trkpt>
      <trkpt lat="48.72714" lon="1.72777">
        <ele>127.19999694824</ele>
        <time>2014-10-12T06:50:18.000Z</time>
      </trkpt>
      <trkpt lat="48.72708" lon="1.72767">
        <ele>127.19999694824</ele>
        <time>2014-10-12T06:50:24.000Z</time>
      </trkpt>
      <trkpt lat="48.72703" lon="1.72759">
        <ele>127.19999694824</ele>
        <time>2014-10-12T06:50:29.000Z</time>
      </trkpt>
      <trkpt lat="48.72699" lon="1.7275">
        <ele>127.19999694824</ele>
        <time>2014-10-12T06:50:35.000Z</time>
      </trkpt>
      <trkpt lat="48.72699" lon="1.72749">
        <ele>127.19999694824</ele>
        <time>2014-10-12T06:50:36.000Z</time>
      </trkpt>
      <trkpt lat="48.72694" lon="1.72737">
        <ele>127.19999694824</ele>
        <time>2014-10-12T06:50:44.000Z</time>
      </trkpt>
      <trkpt lat="48.72687" lon="1.7273">
        <ele>127</ele>
        <time>2014-10-12T06:50:50.000Z</time>
      </trkpt>
      <trkpt lat="48.72683" lon="1.72721">
        <ele>126.59999847412</ele>
        <time>2014-10-12T06:50:56.000Z</time>
      </trkpt>
      <trkpt lat="48.72678" lon="1.72715">
        <ele>126.40000152588</ele>
        <time>2014-10-12T06:51:01.000Z</time>
      </trkpt>
      <trkpt lat="48.72675" lon="1.72708">
        <ele>126</ele>
        <time>2014-10-12T06:51:06.000Z</time>
      </trkpt>
      <trkpt lat="48.72672" lon="1.72703">
        <ele>125.80000305176</ele>
        <time>2014-10-12T06:51:10.000Z</time>
      </trkpt>
      <trkpt lat="48.7267" lon="1.72695">
        <ele>125.59999847412</ele>
        <time>2014-10-12T06:51:14.000Z</time>
      </trkpt>
      <trkpt lat="48.72666" lon="1.72689">
        <ele>125.40000152588</ele>
        <time>2014-10-12T06:51:19.000Z</time>
      </trkpt>
      <trkpt lat="48.72663" lon="1.72685">
        <ele>125.19999694824</ele>
        <time>2014-10-12T06:51:24.000Z</time>
      </trkpt>
      <trkpt lat="48.72657" lon="1.72676">
        <ele>124.80000305176</ele>
        <time>2014-10-12T06:51:30.000Z</time>
      </trkpt>
      <trkpt lat="48.72653" lon="1.72667">
        <ele>124.59999847412</ele>
        <time>2014-10-12T06:51:36.000Z</time>
      </trkpt>
      <trkpt lat="48.72648" lon="1.72661">
        <ele>124.19999694824</ele>
        <time>2014-10-12T06:51:42.000Z</time>
      </trkpt>
      <trkpt lat="48.7264" lon="1.72651">
        <ele>123.80000305176</ele>
        <time>2014-10-12T06:51:50.000Z</time>
      </trkpt>
      <trkpt lat="48.72632" lon="1.72646">
        <ele>123.40000152588</ele>
        <time>2014-10-12T06:51:56.000Z</time>
      </trkpt>
      <trkpt lat="48.72629" lon="1.72644">
        <ele>123.40000152588</ele>
        <time>2014-10-12T06:52:02.000Z</time>
      </trkpt>
      <trkpt lat="48.72628" lon="1.72635">
        <ele>123.40000152588</ele>
        <time>2014-10-12T06:52:13.000Z</time>
      </trkpt>
      <trkpt lat="48.72624" lon="1.72628">
        <ele>123.19999694824</ele>
        <time>2014-10-12T06:52:17.000Z</time>
      </trkpt>
      <trkpt lat="48.72616" lon="1.72615">
        <ele>123</ele>
        <time>2014-10-12T06:52:25.000Z</time>
      </trkpt>
      <trkpt lat="48.7261" lon="1.72604">
        <ele>123</ele>
        <time>2014-10-12T06:52:32.000Z</time>
      </trkpt>
      <trkpt lat="48.72605" lon="1.72596">
        <ele>122.80000305176</ele>
        <time>2014-10-12T06:52:38.000Z</time>
      </trkpt>
      <trkpt lat="48.72595" lon="1.72582">
        <ele>122.80000305176</ele>
        <time>2014-10-12T06:52:46.000Z</time>
      </trkpt>
      <trkpt lat="48.72591" lon="1.72572">
        <ele>123</ele>
        <time>2014-10-12T06:52:53.000Z</time>
      </trkpt>
      <trkpt lat="48.72588" lon="1.72561">
        <ele>123</ele>
        <time>2014-10-12T06:53:00.000Z</time>
      </trkpt>
      <trkpt lat="48.72583" lon="1.72553">
        <ele>123</ele>
        <time>2014-10-12T06:53:06.000Z</time>
      </trkpt>
      <trkpt lat="48.72578" lon="1.72543">
        <ele>123</ele>
        <time>2014-10-12T06:53:13.000Z</time>
      </trkpt>
      <trkpt lat="48.72574" lon="1.72539">
        <ele>123</ele>
        <time>2014-10-12T06:53:16.000Z</time>
      </trkpt>
      <trkpt lat="48.72565" lon="1.72528">
        <ele>123</ele>
        <time>2014-10-12T06:53:23.000Z</time>
      </trkpt>
      <trkpt lat="48.72554" lon="1.72516">
        <ele>123</ele>
        <time>2014-10-12T06:53:31.000Z</time>
      </trkpt>
      <trkpt lat="48.7255" lon="1.72502">
        <ele>123</ele>
        <time>2014-10-12T06:53:39.000Z</time>
      </trkpt>
      <trkpt lat="48.72544" lon="1.72493">
        <ele>123</ele>
        <time>2014-10-12T06:53:44.000Z</time>
      </trkpt>
      <trkpt lat="48.7254" lon="1.72483">
        <ele>122.80000305176</ele>
        <time>2014-10-12T06:53:50.000Z</time>
      </trkpt>
      <trkpt lat="48.72536" lon="1.72478">
        <ele>122.59999847412</ele>
        <time>2014-10-12T06:53:54.000Z</time>
      </trkpt>
      <trkpt lat="48.7253" lon="1.72469">
        <ele>122.40000152588</ele>
        <time>2014-10-12T06:54:01.000Z</time>
      </trkpt>
      <trkpt lat="48.72522" lon="1.72462">
        <ele>122</ele>
        <time>2014-10-12T06:54:08.000Z</time>
      </trkpt>
      <trkpt lat="48.7251" lon="1.72454">
        <ele>122</ele>
        <time>2014-10-12T06:54:16.000Z</time>
      </trkpt>
      <trkpt lat="48.72508" lon="1.72453">
        <ele>122</ele>
        <time>2014-10-12T06:54:17.000Z</time>
      </trkpt>
      <trkpt lat="48.72498" lon="1.7245">
        <ele>122.19999694824</ele>
        <time>2014-10-12T06:54:24.000Z</time>
      </trkpt>
      <trkpt lat="48.7249" lon="1.72444">
        <ele>122.19999694824</ele>
        <time>2014-10-12T06:54:31.000Z</time>
      </trkpt>
      <trkpt lat="48.7248" lon="1.72437">
        <ele>122.19999694824</ele>
        <time>2014-10-12T06:54:39.000Z</time>
      </trkpt>
      <trkpt lat="48.72475" lon="1.72433">
        <ele>122.19999694824</ele>
        <time>2014-10-12T06:54:43.000Z</time>
      </trkpt>
      <trkpt lat="48.72464" lon="1.72425">
        <ele>122.19999694824</ele>
        <time>2014-10-12T06:54:51.000Z</time>
      </trkpt>
      <trkpt lat="48.72452" lon="1.72417">
        <ele>122.19999694824</ele>
        <time>2014-10-12T06:54:59.000Z</time>
      </trkpt>
      <trkpt lat="48.72451" lon="1.72415">
        <ele>122</ele>
        <time>2014-10-12T06:55:01.000Z</time>
      </trkpt>
      <trkpt lat="48.72449" lon="1.72414">
        <ele>122</ele>
        <time>2014-10-12T06:55:05.000Z</time>
      </trkpt>
      <trkpt lat="48.72444" lon="1.72411">
        <ele>122</ele>
        <time>2014-10-12T06:55:23.000Z</time>
      </trkpt>
      <trkpt lat="48.72439" lon="1.72408">
        <ele>122</ele>
        <time>2014-10-12T06:55:26.000Z</time>
      </trkpt>
      <trkpt lat="48.7243" lon="1.72403">
        <ele>121.80000305176</ele>
        <time>2014-10-12T06:55:32.000Z</time>
      </trkpt>
      <trkpt lat="48.7242" lon="1.72398">
        <ele>121.40000152588</ele>
        <time>2014-10-12T06:55:39.000Z</time>
      </trkpt>
      <trkpt lat="48.72412" lon="1.72392">
        <ele>121.40000152588</ele>
        <time>2014-10-12T06:55:45.000Z</time>
      </trkpt>
      <trkpt lat="48.72408" lon="1.7239">
        <ele>121.19999694824</ele>
        <time>2014-10-12T06:55:49.000Z</time>
      </trkpt>
      <trkpt lat="48.72405" lon="1.72388">
        <ele>121.19999694824</ele>
        <time>2014-10-12T06:55:52.000Z</time>
      </trkpt>
      <trkpt lat="48.72399" lon="1.72386">
        <ele>121</ele>
        <time>2014-10-12T06:55:56.000Z</time>
      </trkpt>
      <trkpt lat="48.72397" lon="1.72384">
        <ele>121</ele>
        <time>2014-10-12T06:56:00.000Z</time>
      </trkpt>
      <trkpt lat="48.72394" lon="1.72382">
        <ele>121</ele>
        <time>2014-10-12T06:56:07.000Z</time>
      </trkpt>
      <trkpt lat="48.72394" lon="1.72381">
        <ele>121</ele>
        <time>2014-10-12T06:56:11.000Z</time>
      </trkpt>
      <trkpt lat="48.72387" lon="1.72378">
        <ele>120.80000305176</ele>
        <time>2014-10-12T06:56:20.000Z</time>
      </trkpt>
      <trkpt lat="48.72386" lon="1.72378">
        <ele>120.80000305176</ele>
        <time>2014-10-12T06:56:21.000Z</time>
      </trkpt>
      <trkpt lat="48.72377" lon="1.72377">
        <ele>120.40000152588</ele>
        <time>2014-10-12T06:56:27.000Z</time>
      </trkpt>
      <trkpt lat="48.72372" lon="1.72375">
        <ele>120.19999694824</ele>
        <time>2014-10-12T06:56:32.000Z</time>
      </trkpt>
      <trkpt lat="48.72361" lon="1.7237">
        <ele>120</ele>
        <time>2014-10-12T06:56:40.000Z</time>
      </trkpt>
      <trkpt lat="48.72359" lon="1.72368">
        <ele>120</ele>
        <time>2014-10-12T06:56:42.000Z</time>
      </trkpt>
      <trkpt lat="48.7235" lon="1.72363">
        <ele>119.80000305176</ele>
        <time>2014-10-12T06:56:50.000Z</time>
      </trkpt>
      <trkpt lat="48.72346" lon="1.7236">
        <ele>120</ele>
        <time>2014-10-12T06:56:53.000Z</time>
      </trkpt>
      <trkpt lat="48.72342" lon="1.72357">
        <ele>120</ele>
        <time>2014-10-12T06:56:57.000Z</time>
      </trkpt>
      <trkpt lat="48.72334" lon="1.72351">
        <ele>120</ele>
        <time>2014-10-12T06:57:04.000Z</time>
      </trkpt>
      <trkpt lat="48.72329" lon="1.72348">
        <ele>120</ele>
        <time>2014-10-12T06:57:09.000Z</time>
      </trkpt>
      <trkpt lat="48.72328" lon="1.72346">
        <ele>120.19999694824</ele>
        <time>2014-10-12T06:57:10.000Z</time>
      </trkpt>
      <trkpt lat="48.72316" lon="1.72341">
        <ele>120.19999694824</ele>
        <time>2014-10-12T06:57:20.000Z</time>
      </trkpt>
      <trkpt lat="48.72313" lon="1.72337">
        <ele>120.19999694824</ele>
        <time>2014-10-12T06:57:25.000Z</time>
      </trkpt>
      <trkpt lat="48.72309" lon="1.72332">
        <ele>120.40000152588</ele>
        <time>2014-10-12T06:57:32.000Z</time>
      </trkpt>
      <trkpt lat="48.72305" lon="1.7233">
        <ele>120.40000152588</ele>
        <time>2014-10-12T06:57:36.000Z</time>
      </trkpt>
      <trkpt lat="48.72292" lon="1.72323">
        <ele>120.40000152588</ele>
        <time>2014-10-12T06:57:45.000Z</time>
      </trkpt>
      <trkpt lat="48.72285" lon="1.72318">
        <ele>120.19999694824</ele>
        <time>2014-10-12T06:57:52.000Z</time>
      </trkpt>
      <trkpt lat="48.72276" lon="1.72316">
        <ele>120</ele>
        <time>2014-10-12T06:57:58.000Z</time>
      </trkpt>
      <trkpt lat="48.72271" lon="1.72315">
        <ele>119.80000305176</ele>
        <time>2014-10-12T06:58:02.000Z</time>
      </trkpt>
      <trkpt lat="48.72268" lon="1.72314">
        <ele>120</ele>
        <time>2014-10-12T06:58:05.000Z</time>
      </trkpt>
      <trkpt lat="48.72262" lon="1.72313">
        <ele>120</ele>
        <time>2014-10-12T06:58:10.000Z</time>
      </trkpt>
      <trkpt lat="48.7226" lon="1.72313">
        <ele>119.80000305176</ele>
        <time>2014-10-12T06:58:14.000Z</time>
      </trkpt>
      <trkpt lat="48.72248" lon="1.72295">
        <ele>120</ele>
        <time>2014-10-12T06:58:35.000Z</time>
      </trkpt>
      <trkpt lat="48.72241" lon="1.72288">
        <ele>120</ele>
        <time>2014-10-12T06:58:40.000Z</time>
      </trkpt>
      <trkpt lat="48.72232" lon="1.72286">
        <ele>119.80000305176</ele>
        <time>2014-10-12T06:58:46.000Z</time>
      </trkpt>
      <trkpt lat="48.72226" lon="1.72284">
        <ele>119.59999847412</ele>
        <time>2014-10-12T06:58:52.000Z</time>
      </trkpt>
      <trkpt lat="48.72221" lon="1.72282">
        <ele>119.59999847412</ele>
        <time>2014-10-12T06:58:56.000Z</time>
      </trkpt>
      <trkpt lat="48.72211" lon="1.72279">
        <ele>119.40000152588</ele>
        <time>2014-10-12T06:59:04.000Z</time>
      </trkpt>
      <trkpt lat="48.72206" lon="1.72276">
        <ele>119.19999694824</ele>
        <time>2014-10-12T06:59:10.000Z</time>
      </trkpt>
      <trkpt lat="48.72198" lon="1.72269">
        <ele>119.19999694824</ele>
        <time>2014-10-12T06:59:15.000Z</time>
      </trkpt>
      <trkpt lat="48.72194" lon="1.72266">
        <ele>119.19999694824</ele>
        <time>2014-10-12T06:59:18.000Z</time>
      </trkpt>
      <trkpt lat="48.72188" lon="1.72259">
        <ele>119.19999694824</ele>
        <time>2014-10-12T06:59:23.000Z</time>
      </trkpt>
      <trkpt lat="48.72178" lon="1.72256">
        <ele>119.59999847412</ele>
        <time>2014-10-12T06:59:27.000Z</time>
      </trkpt>
      <trkpt lat="48.72171" lon="1.72247">
        <ele>120</ele>
        <time>2014-10-12T06:59:34.000Z</time>
      </trkpt>
      <trkpt lat="48.72168" lon="1.72244">
        <ele>120.19999694824</ele>
        <time>2014-10-12T06:59:37.000Z</time>
      </trkpt>
      <trkpt lat="48.72161" lon="1.72233">
        <ele>120.80000305176</ele>
        <time>2014-10-12T06:59:45.000Z</time>
      </trkpt>
      <trkpt lat="48.72161" lon="1.72231">
        <ele>121</ele>
        <time>2014-10-12T06:59:46.000Z</time>
      </trkpt>
      <trkpt lat="48.72157" lon="1.72228">
        <ele>121.19999694824</ele>
        <time>2014-10-12T06:59:49.000Z</time>
      </trkpt>
      <trkpt lat="48.72154" lon="1.72221">
        <ele>121.59999847412</ele>
        <time>2014-10-12T06:59:54.000Z</time>
      </trkpt>
      <trkpt lat="48.72152" lon="1.7222">
        <ele>121.59999847412</ele>
        <time>2014-10-12T06:59:56.000Z</time>
      </trkpt>
      <trkpt lat="48.72149" lon="1.72217">
        <ele>121.80000305176</ele>
        <time>2014-10-12T06:59:59.000Z</time>
      </trkpt>
      <trkpt lat="48.72139" lon="1.72212">
        <ele>122.40000152588</ele>
        <time>2014-10-12T07:00:05.000Z</time>
      </trkpt>
      <trkpt lat="48.72131" lon="1.72207">
        <ele>122.80000305176</ele>
        <time>2014-10-12T07:00:10.000Z</time>
      </trkpt>
      <trkpt lat="48.72127" lon="1.72205">
        <ele>123</ele>
        <time>2014-10-12T07:00:12.000Z</time>
      </trkpt>
      <trkpt lat="48.7212" lon="1.72201">
        <ele>123.40000152588</ele>
        <time>2014-10-12T07:00:19.000Z</time>
      </trkpt>
      <trkpt lat="48.72113" lon="1.72193">
        <ele>124</ele>
        <time>2014-10-12T07:00:26.000Z</time>
      </trkpt>
      <trkpt lat="48.72098" lon="1.72187">
        <ele>124.80000305176</ele>
        <time>2014-10-12T07:00:36.000Z</time>
      </trkpt>
      <trkpt lat="48.72088" lon="1.72178">
        <ele>126</ele>
        <time>2014-10-12T07:00:43.000Z</time>
      </trkpt>
      <trkpt lat="48.72086" lon="1.72177">
        <ele>126.19999694824</ele>
        <time>2014-10-12T07:00:44.000Z</time>
      </trkpt>
      <trkpt lat="48.72075" lon="1.72173">
        <ele>127.19999694824</ele>
        <time>2014-10-12T07:00:53.000Z</time>
      </trkpt>
      <trkpt lat="48.72066" lon="1.72168">
        <ele>128</ele>
        <time>2014-10-12T07:01:00.000Z</time>
      </trkpt>
      <trkpt lat="48.72061" lon="1.72163">
        <ele>128.60000610352</ele>
        <time>2014-10-12T07:01:05.000Z</time>
      </trkpt>
      <trkpt lat="48.72059" lon="1.72159">
        <ele>129</ele>
        <time>2014-10-12T07:01:08.000Z</time>
      </trkpt>
      <trkpt lat="48.72056" lon="1.7215">
        <ele>129.39999389648</ele>
        <time>2014-10-12T07:01:14.000Z</time>
      </trkpt>
      <trkpt lat="48.72048" lon="1.72148">
        <ele>130</ele>
        <time>2014-10-12T07:01:21.000Z</time>
      </trkpt>
      <trkpt lat="48.7204" lon="1.72147">
        <ele>130.60000610352</ele>
        <time>2014-10-12T07:01:28.000Z</time>
      </trkpt>
      <trkpt lat="48.72037" lon="1.72146">
        <ele>130.80000305176</ele>
        <time>2014-10-12T07:01:30.000Z</time>
      </trkpt>
      <trkpt lat="48.72032" lon="1.72139">
        <ele>131.19999694824</ele>
        <time>2014-10-12T07:01:37.000Z</time>
      </trkpt>
      <trkpt lat="48.72032" lon="1.72138">
        <ele>131.19999694824</ele>
        <time>2014-10-12T07:01:38.000Z</time>
      </trkpt>
      <trkpt lat="48.72022" lon="1.72129">
        <ele>131.80000305176</ele>
        <time>2014-10-12T07:01:55.000Z</time>
      </trkpt>
      <trkpt lat="48.72017" lon="1.72124">
        <ele>132</ele>
        <time>2014-10-12T07:02:01.000Z</time>
      </trkpt>
      <trkpt lat="48.72011" lon="1.72122">
        <ele>131.80000305176</ele>
        <time>2014-10-12T07:02:06.000Z</time>
      </trkpt>
      <trkpt lat="48.72004" lon="1.72118">
        <ele>131.80000305176</ele>
        <time>2014-10-12T07:02:13.000Z</time>
      </trkpt>
      <trkpt lat="48.71996" lon="1.72112">
        <ele>131.80000305176</ele>
        <time>2014-10-12T07:02:21.000Z</time>
      </trkpt>
      <trkpt lat="48.71989" lon="1.72105">
        <ele>131.60000610352</ele>
        <time>2014-10-12T07:02:27.000Z</time>
      </trkpt>
      <trkpt lat="48.71978" lon="1.72098">
        <ele>131.39999389648</ele>
        <time>2014-10-12T07:02:38.000Z</time>
      </trkpt>
      <trkpt lat="48.7197" lon="1.72092">
        <ele>131.39999389648</ele>
        <time>2014-10-12T07:02:46.000Z</time>
      </trkpt>
      <trkpt lat="48.71967" lon="1.72091">
        <ele>131.39999389648</ele>
        <time>2014-10-12T07:02:49.000Z</time>
      </trkpt>
      <trkpt lat="48.71959" lon="1.72088">
        <ele>131.19999694824</ele>
        <time>2014-10-12T07:02:54.000Z</time>
      </trkpt>
      <trkpt lat="48.71955" lon="1.72085">
        <ele>131.19999694824</ele>
        <time>2014-10-12T07:03:00.000Z</time>
      </trkpt>
      <trkpt lat="48.71936" lon="1.72071">
        <ele>131</ele>
        <time>2014-10-12T07:04:22.000Z</time>
      </trkpt>
      <trkpt lat="48.71933" lon="1.72069">
        <ele>131</ele>
        <time>2014-10-12T07:04:23.000Z</time>
      </trkpt>
      <trkpt lat="48.71919" lon="1.72068">
        <ele>131.19999694824</ele>
        <time>2014-10-12T07:04:31.000Z</time>
      </trkpt>
      <trkpt lat="48.71918" lon="1.72068">
        <ele>131.39999389648</ele>
        <time>2014-10-12T07:04:32.000Z</time>
      </trkpt>
      <trkpt lat="48.71913" lon="1.72065">
        <ele>131.39999389648</ele>
        <time>2014-10-12T07:04:37.000Z</time>
      </trkpt>
      <trkpt lat="48.71904" lon="1.72062">
        <ele>131.80000305176</ele>
        <time>2014-10-12T07:04:45.000Z</time>
      </trkpt>
      <trkpt lat="48.71894" lon="1.72058">
        <ele>132</ele>
        <time>2014-10-12T07:04:52.000Z</time>
      </trkpt>
      <trkpt lat="48.71883" lon="1.72054">
        <ele>132.19999694824</ele>
        <time>2014-10-12T07:04:59.000Z</time>
      </trkpt>
      <trkpt lat="48.71882" lon="1.72053">
        <ele>132.19999694824</ele>
        <time>2014-10-12T07:05:01.000Z</time>
      </trkpt>
      <trkpt lat="48.71878" lon="1.72049">
        <ele>132.39999389648</ele>
        <time>2014-10-12T07:05:08.000Z</time>
      </trkpt>
      <trkpt lat="48.71872" lon="1.72045">
        <ele>132.60000610352</ele>
        <time>2014-10-12T07:05:14.000Z</time>
      </trkpt>
      <trkpt lat="48.71866" lon="1.72041">
        <ele>133</ele>
        <time>2014-10-12T07:05:19.000Z</time>
      </trkpt>
      <trkpt lat="48.71858" lon="1.72035">
        <ele>133.19999694824</ele>
        <time>2014-10-12T07:05:26.000Z</time>
      </trkpt>
      <trkpt lat="48.71853" lon="1.7203">
        <ele>133.39999389648</ele>
        <time>2014-10-12T07:05:32.000Z</time>
      </trkpt>
      <trkpt lat="48.71844" lon="1.72026">
        <ele>133.39999389648</ele>
        <time>2014-10-12T07:05:37.000Z</time>
      </trkpt>
      <trkpt lat="48.71836" lon="1.72021">
        <ele>133.39999389648</ele>
        <time>2014-10-12T07:05:44.000Z</time>
      </trkpt>
      <trkpt lat="48.7183" lon="1.72017">
        <ele>133.39999389648</ele>
        <time>2014-10-12T07:05:49.000Z</time>
      </trkpt>
      <trkpt lat="48.71828" lon="1.72015">
        <ele>133.39999389648</ele>
        <time>2014-10-12T07:05:51.000Z</time>
      </trkpt>
      <trkpt lat="48.71825" lon="1.72013">
        <ele>133.39999389648</ele>
        <time>2014-10-12T07:05:53.000Z</time>
      </trkpt>
      <trkpt lat="48.71815" lon="1.72008">
        <ele>133.39999389648</ele>
        <time>2014-10-12T07:06:01.000Z</time>
      </trkpt>
      <trkpt lat="48.71808" lon="1.72006">
        <ele>133.19999694824</ele>
        <time>2014-10-12T07:06:06.000Z</time>
      </trkpt>
      <trkpt lat="48.71797" lon="1.72003">
        <ele>133</ele>
        <time>2014-10-12T07:06:13.000Z</time>
      </trkpt>
      <trkpt lat="48.71792" lon="1.71999">
        <ele>133</ele>
        <time>2014-10-12T07:06:18.000Z</time>
      </trkpt>
      <trkpt lat="48.7178" lon="1.71992">
        <ele>133</ele>
        <time>2014-10-12T07:06:28.000Z</time>
      </trkpt>
      <trkpt lat="48.71774" lon="1.71988">
        <ele>133</ele>
        <time>2014-10-12T07:06:35.000Z</time>
      </trkpt>
      <trkpt lat="48.71774" lon="1.71987">
        <ele>133</ele>
        <time>2014-10-12T07:06:37.000Z</time>
      </trkpt>
      <trkpt lat="48.71769" lon="1.71983">
        <ele>133.19999694824</ele>
        <time>2014-10-12T07:06:44.000Z</time>
      </trkpt>
      <trkpt lat="48.71763" lon="1.71978">
        <ele>133.60000610352</ele>
        <time>2014-10-12T07:06:49.000Z</time>
      </trkpt>
      <trkpt lat="48.7175" lon="1.71969">
        <ele>134.39999389648</ele>
        <time>2014-10-12T07:07:00.000Z</time>
      </trkpt>
      <trkpt lat="48.71741" lon="1.71963">
        <ele>134.80000305176</ele>
        <time>2014-10-12T07:07:07.000Z</time>
      </trkpt>
      <trkpt lat="48.71732" lon="1.71958">
        <ele>135.39999389648</ele>
        <time>2014-10-12T07:07:15.000Z</time>
      </trkpt>
      <trkpt lat="48.71725" lon="1.71954">
        <ele>135.60000610352</ele>
        <time>2014-10-12T07:07:21.000Z</time>
      </trkpt>
      <trkpt lat="48.71716" lon="1.71948">
        <ele>136.19999694824</ele>
        <time>2014-10-12T07:07:28.000Z</time>
      </trkpt>
      <trkpt lat="48.71708" lon="1.71945">
        <ele>136.39999389648</ele>
        <time>2014-10-12T07:07:34.000Z</time>
      </trkpt>
      <trkpt lat="48.71699" lon="1.7194">
        <ele>137</ele>
        <time>2014-10-12T07:07:41.000Z</time>
      </trkpt>
      <trkpt lat="48.7169" lon="1.71937">
        <ele>137.39999389648</ele>
        <time>2014-10-12T07:07:48.000Z</time>
      </trkpt>
      <trkpt lat="48.71689" lon="1.71936">
        <ele>137.39999389648</ele>
        <time>2014-10-12T07:07:55.000Z</time>
      </trkpt>
      <trkpt lat="48.71689" lon="1.71934">
        <ele>137.60000610352</ele>
        <time>2014-10-12T07:08:00.000Z</time>
      </trkpt>
      <trkpt lat="48.71668" lon="1.7192">
        <ele>138.80000305176</ele>
        <time>2014-10-12T07:10:26.000Z</time>
      </trkpt>
      <trkpt lat="48.7166" lon="1.71915">
        <ele>139.39999389648</ele>
        <time>2014-10-12T07:10:32.000Z</time>
      </trkpt>
      <trkpt lat="48.71653" lon="1.71911">
        <ele>139.80000305176</ele>
        <time>2014-10-12T07:10:38.000Z</time>
      </trkpt>
      <trkpt lat="48.71644" lon="1.71906">
        <ele>140.39999389648</ele>
        <time>2014-10-12T07:10:46.000Z</time>
      </trkpt>
      <trkpt lat="48.71635" lon="1.71901">
        <ele>140.80000305176</ele>
        <time>2014-10-12T07:10:54.000Z</time>
      </trkpt>
      <trkpt lat="48.71626" lon="1.71897">
        <ele>141.19999694824</ele>
        <time>2014-10-12T07:11:02.000Z</time>
      </trkpt>
      <trkpt lat="48.71615" lon="1.71895">
        <ele>141.60000610352</ele>
        <time>2014-10-12T07:11:11.000Z</time>
      </trkpt>
      <trkpt lat="48.71606" lon="1.71893">
        <ele>142</ele>
        <time>2014-10-12T07:11:19.000Z</time>
      </trkpt>
      <trkpt lat="48.71602" lon="1.71893">
        <ele>142.19999694824</ele>
        <time>2014-10-12T07:11:22.000Z</time>
      </trkpt>
      <trkpt lat="48.71595" lon="1.71892">
        <ele>142.60000610352</ele>
        <time>2014-10-12T07:11:29.000Z</time>
      </trkpt>
      <trkpt lat="48.71587" lon="1.71889">
        <ele>143</ele>
        <time>2014-10-12T07:11:36.000Z</time>
      </trkpt>
      <trkpt lat="48.7158" lon="1.7189">
        <ele>143.19999694824</ele>
        <time>2014-10-12T07:11:42.000Z</time>
      </trkpt>
      <trkpt lat="48.71574" lon="1.71888">
        <ele>143.39999389648</ele>
        <time>2014-10-12T07:11:47.000Z</time>
      </trkpt>
      <trkpt lat="48.71567" lon="1.71887">
        <ele>143.80000305176</ele>
        <time>2014-10-12T07:11:54.000Z</time>
      </trkpt>
      <trkpt lat="48.71563" lon="1.71887">
        <ele>143.80000305176</ele>
        <time>2014-10-12T07:11:58.000Z</time>
      </trkpt>
      <trkpt lat="48.71562" lon="1.71887">
        <ele>144</ele>
        <time>2014-10-12T07:11:59.000Z</time>
      </trkpt>
      <trkpt lat="48.71555" lon="1.71885">
        <ele>144.19999694824</ele>
        <time>2014-10-12T07:12:04.000Z</time>
      </trkpt>
      <trkpt lat="48.71549" lon="1.71884">
        <ele>144.39999389648</ele>
        <time>2014-10-12T07:12:10.000Z</time>
      </trkpt>
      <trkpt lat="48.71539" lon="1.71882">
        <ele>144.80000305176</ele>
        <time>2014-10-12T07:12:18.000Z</time>
      </trkpt>
      <trkpt lat="48.71536" lon="1.7188">
        <ele>145</ele>
        <time>2014-10-12T07:12:20.000Z</time>
      </trkpt>
      <trkpt lat="48.7153" lon="1.71878">
        <ele>145.19999694824</ele>
        <time>2014-10-12T07:12:25.000Z</time>
      </trkpt>
      <trkpt lat="48.7152" lon="1.71876">
        <ele>145.60000610352</ele>
        <time>2014-10-12T07:12:33.000Z</time>
      </trkpt>
      <trkpt lat="48.71513" lon="1.71877">
        <ele>145.60000610352</ele>
        <time>2014-10-12T07:12:40.000Z</time>
      </trkpt>
      <trkpt lat="48.71512" lon="1.71876">
        <ele>145.60000610352</ele>
        <time>2014-10-12T07:12:41.000Z</time>
      </trkpt>
      <trkpt lat="48.71497" lon="1.71872">
        <ele>145.80000305176</ele>
        <time>2014-10-12T07:12:51.000Z</time>
      </trkpt>
      <trkpt lat="48.7149" lon="1.71874">
        <ele>145.80000305176</ele>
        <time>2014-10-12T07:12:59.000Z</time>
      </trkpt>
      <trkpt lat="48.71481" lon="1.71873">
        <ele>146</ele>
        <time>2014-10-12T07:13:11.000Z</time>
      </trkpt>
      <trkpt lat="48.71473" lon="1.71873">
        <ele>146.39999389648</ele>
        <time>2014-10-12T07:13:18.000Z</time>
      </trkpt>
      <trkpt lat="48.71468" lon="1.71873">
        <ele>146.39999389648</ele>
        <time>2014-10-12T07:13:23.000Z</time>
      </trkpt>
      <trkpt lat="48.71461" lon="1.7187">
        <ele>146.80000305176</ele>
        <time>2014-10-12T07:13:29.000Z</time>
      </trkpt>
      <trkpt lat="48.71452" lon="1.71865">
        <ele>147</ele>
        <time>2014-10-12T07:13:36.000Z</time>
      </trkpt>
      <trkpt lat="48.71439" lon="1.71863">
        <ele>147.39999389648</ele>
        <time>2014-10-12T07:13:45.000Z</time>
      </trkpt>
      <trkpt lat="48.71432" lon="1.71863">
        <ele>147.60000610352</ele>
        <time>2014-10-12T07:13:52.000Z</time>
      </trkpt>
      <trkpt lat="48.71428" lon="1.71864">
        <ele>147.80000305176</ele>
        <time>2014-10-12T07:13:57.000Z</time>
      </trkpt>
      <trkpt lat="48.71427" lon="1.71865">
        <ele>148</ele>
        <time>2014-10-12T07:14:00.000Z</time>
      </trkpt>
      <trkpt lat="48.71419" lon="1.7186">
        <ele>148.19999694824</ele>
        <time>2014-10-12T07:14:05.000Z</time>
      </trkpt>
      <trkpt lat="48.71405" lon="1.71854">
        <ele>148.60000610352</ele>
        <time>2014-10-12T07:14:14.000Z</time>
      </trkpt>
      <trkpt lat="48.71392" lon="1.71852">
        <ele>149</ele>
        <time>2014-10-12T07:14:21.000Z</time>
      </trkpt>
      <trkpt lat="48.71382" lon="1.71851">
        <ele>149.19999694824</ele>
        <time>2014-10-12T07:14:29.000Z</time>
      </trkpt>
      <trkpt lat="48.71374" lon="1.71852">
        <ele>149.19999694824</ele>
        <time>2014-10-12T07:14:35.000Z</time>
      </trkpt>
      <trkpt lat="48.71366" lon="1.71851">
        <ele>149.19999694824</ele>
        <time>2014-10-12T07:14:42.000Z</time>
      </trkpt>
      <trkpt lat="48.71357" lon="1.71847">
        <ele>149.39999389648</ele>
        <time>2014-10-12T07:14:49.000Z</time>
      </trkpt>
      <trkpt lat="48.71352" lon="1.71845">
        <ele>149.60000610352</ele>
        <time>2014-10-12T07:14:53.000Z</time>
      </trkpt>
      <trkpt lat="48.71344" lon="1.71839">
        <ele>150.80000305176</ele>
        <time>2014-10-12T07:15:01.000Z</time>
      </trkpt>
      <trkpt lat="48.71339" lon="1.71838">
        <ele>151.39999389648</ele>
        <time>2014-10-12T07:15:06.000Z</time>
      </trkpt>
      <trkpt lat="48.71332" lon="1.71837">
        <ele>152.39999389648</ele>
        <time>2014-10-12T07:15:19.000Z</time>
      </trkpt>
      <trkpt lat="48.71332" lon="1.71837">
        <ele>152.39999389648</ele>
        <time>2014-10-12T07:15:21.000Z</time>
      </trkpt>
      <trkpt lat="48.7132" lon="1.71837">
        <ele>154</ele>
        <time>2014-10-12T07:19:46.000Z</time>
      </trkpt>
      <trkpt lat="48.71326" lon="1.71837">
        <ele>153.39999389648</ele>
        <time>2014-10-12T07:19:53.000Z</time>
      </trkpt>
      <trkpt lat="48.71329" lon="1.71839">
        <ele>152.80000305176</ele>
        <time>2014-10-12T07:19:59.000Z</time>
      </trkpt>
      <trkpt lat="48.71325" lon="1.71855">
        <ele>153</ele>
        <time>2014-10-12T07:26:06.000Z</time>
      </trkpt>
      <trkpt lat="48.71322" lon="1.71872">
        <ele>153</ele>
        <time>2014-10-12T07:26:14.000Z</time>
      </trkpt>
      <trkpt lat="48.71317" lon="1.7188">
        <ele>153.19999694824</ele>
        <time>2014-10-12T07:26:19.000Z</time>
      </trkpt>
      <trkpt lat="48.71316" lon="1.71888">
        <ele>153.19999694824</ele>
        <time>2014-10-12T07:26:23.000Z</time>
      </trkpt>
      <trkpt lat="48.71314" lon="1.71901">
        <ele>153</ele>
        <time>2014-10-12T07:26:29.000Z</time>
      </trkpt>
      <trkpt lat="48.71311" lon="1.71909">
        <ele>153.19999694824</ele>
        <time>2014-10-12T07:26:34.000Z</time>
      </trkpt>
      <trkpt lat="48.7131" lon="1.71912">
        <ele>153.19999694824</ele>
        <time>2014-10-12T07:26:36.000Z</time>
      </trkpt>
      <trkpt lat="48.71308" lon="1.7192">
        <ele>153.39999389648</ele>
        <time>2014-10-12T07:26:40.000Z</time>
      </trkpt>
      <trkpt lat="48.71307" lon="1.71925">
        <ele>153.60000610352</ele>
        <time>2014-10-12T07:26:46.000Z</time>
      </trkpt>
      <trkpt lat="48.71309" lon="1.71931">
        <ele>153.39999389648</ele>
        <time>2014-10-12T07:26:51.000Z</time>
      </trkpt>
      <trkpt lat="48.71309" lon="1.7194">
        <ele>153.39999389648</ele>
        <time>2014-10-12T07:26:56.000Z</time>
      </trkpt>
      <trkpt lat="48.7131" lon="1.71948">
        <ele>153</ele>
        <time>2014-10-12T07:27:00.000Z</time>
      </trkpt>
      <trkpt lat="48.71316" lon="1.71959">
        <ele>152.19999694824</ele>
        <time>2014-10-12T07:27:07.000Z</time>
      </trkpt>
      <trkpt lat="48.71317" lon="1.71961">
        <ele>152.19999694824</ele>
        <time>2014-10-12T07:27:08.000Z</time>
      </trkpt>
      <trkpt lat="48.7132" lon="1.71964">
        <ele>151.80000305176</ele>
        <time>2014-10-12T07:27:11.000Z</time>
      </trkpt>
      <trkpt lat="48.71324" lon="1.71966">
        <ele>151.39999389648</ele>
        <time>2014-10-12T07:27:15.000Z</time>
      </trkpt>
      <trkpt lat="48.71329" lon="1.71969">
        <ele>150.80000305176</ele>
        <time>2014-10-12T07:27:20.000Z</time>
      </trkpt>
      <trkpt lat="48.71337" lon="1.71977">
        <ele>149.80000305176</ele>
        <time>2014-10-12T07:27:27.000Z</time>
      </trkpt>
      <trkpt lat="48.71341" lon="1.71983">
        <ele>149.39999389648</ele>
        <time>2014-10-12T07:27:32.000Z</time>
      </trkpt>
      <trkpt lat="48.71344" lon="1.71988">
        <ele>149</ele>
        <time>2014-10-12T07:27:35.000Z</time>
      </trkpt>
      <trkpt lat="48.71349" lon="1.71993">
        <ele>149</ele>
        <time>2014-10-12T07:27:40.000Z</time>
      </trkpt>
      <trkpt lat="48.71352" lon="1.71995">
        <ele>148.80000305176</ele>
        <time>2014-10-12T07:27:44.000Z</time>
      </trkpt>
      <trkpt lat="48.71353" lon="1.71997">
        <ele>148.80000305176</ele>
        <time>2014-10-12T07:27:46.000Z</time>
      </trkpt>
      <trkpt lat="48.71358" lon="1.72001">
        <ele>148.60000610352</ele>
        <time>2014-10-12T07:27:51.000Z</time>
      </trkpt>
      <trkpt lat="48.71364" lon="1.72009">
        <ele>148.39999389648</ele>
        <time>2014-10-12T07:27:56.000Z</time>
      </trkpt>
      <trkpt lat="48.71368" lon="1.7201">
        <ele>147.80000305176</ele>
        <time>2014-10-12T07:27:59.000Z</time>
      </trkpt>
      <trkpt lat="48.71375" lon="1.72015">
        <ele>147.19999694824</ele>
        <time>2014-10-12T07:28:05.000Z</time>
      </trkpt>
      <trkpt lat="48.7138" lon="1.72026">
        <ele>147.60000610352</ele>
        <time>2014-10-12T07:28:11.000Z</time>
      </trkpt>
      <trkpt lat="48.71387" lon="1.72034">
        <ele>147.19999694824</ele>
        <time>2014-10-12T07:28:17.000Z</time>
      </trkpt>
      <trkpt lat="48.71395" lon="1.7204">
        <ele>146.60000610352</ele>
        <time>2014-10-12T07:28:24.000Z</time>
      </trkpt>
      <trkpt lat="48.71396" lon="1.72042">
        <ele>146.39999389648</ele>
        <time>2014-10-12T07:28:26.000Z</time>
      </trkpt>
      <trkpt lat="48.714" lon="1.72048">
        <ele>146.39999389648</ele>
        <time>2014-10-12T07:28:30.000Z</time>
      </trkpt>
      <trkpt lat="48.71404" lon="1.72053">
        <ele>146.39999389648</ele>
        <time>2014-10-12T07:28:34.000Z</time>
      </trkpt>
      <trkpt lat="48.71406" lon="1.72055">
        <ele>146.19999694824</ele>
        <time>2014-10-12T07:28:36.000Z</time>
      </trkpt>
      <trkpt lat="48.71406" lon="1.72061">
        <ele>146.80000305176</ele>
        <time>2014-10-12T07:28:42.000Z</time>
      </trkpt>
      <trkpt lat="48.71409" lon="1.72068">
        <ele>146.80000305176</ele>
        <time>2014-10-12T07:28:48.000Z</time>
      </trkpt>
      <trkpt lat="48.71409" lon="1.7207">
        <ele>147</ele>
        <time>2014-10-12T07:28:49.000Z</time>
      </trkpt>
      <trkpt lat="48.7141" lon="1.72074">
        <ele>147</ele>
        <time>2014-10-12T07:28:51.000Z</time>
      </trkpt>
      <trkpt lat="48.71413" lon="1.7208">
        <ele>147</ele>
        <time>2014-10-12T07:28:55.000Z</time>
      </trkpt>
      <trkpt lat="48.71419" lon="1.72083">
        <ele>146.19999694824</ele>
        <time>2014-10-12T07:29:02.000Z</time>
      </trkpt>
      <trkpt lat="48.71419" lon="1.72084">
        <ele>146.19999694824</ele>
        <time>2014-10-12T07:29:08.000Z</time>
      </trkpt>
      <trkpt lat="48.71422" lon="1.72091">
        <ele>146.19999694824</ele>
        <time>2014-10-12T07:29:13.000Z</time>
      </trkpt>
      <trkpt lat="48.71422" lon="1.72095">
        <ele>146.39999389648</ele>
        <time>2014-10-12T07:29:18.000Z</time>
      </trkpt>
      <trkpt lat="48.71425" lon="1.72097">
        <ele>146</ele>
        <time>2014-10-12T07:29:21.000Z</time>
      </trkpt>
      <trkpt lat="48.71433" lon="1.7211">
        <ele>145.39999389648</ele>
        <time>2014-10-12T07:29:29.000Z</time>
      </trkpt>
      <trkpt lat="48.71432" lon="1.72117">
        <ele>146</ele>
        <time>2014-10-12T07:29:33.000Z</time>
      </trkpt>
      <trkpt lat="48.71432" lon="1.72124">
        <ele>146.39999389648</ele>
        <time>2014-10-12T07:29:36.000Z</time>
      </trkpt>
      <trkpt lat="48.71434" lon="1.72134">
        <ele>146.39999389648</ele>
        <time>2014-10-12T07:29:41.000Z</time>
      </trkpt>
      <trkpt lat="48.71435" lon="1.7214">
        <ele>146.60000610352</ele>
        <time>2014-10-12T07:29:44.000Z</time>
      </trkpt>
      <trkpt lat="48.71436" lon="1.72152">
        <ele>147</ele>
        <time>2014-10-12T07:29:51.000Z</time>
      </trkpt>
      <trkpt lat="48.71439" lon="1.72164">
        <ele>146.39999389648</ele>
        <time>2014-10-12T07:29:57.000Z</time>
      </trkpt>
      <trkpt lat="48.71443" lon="1.72173">
        <ele>145.60000610352</ele>
        <time>2014-10-12T07:30:05.000Z</time>
      </trkpt>
      <trkpt lat="48.71449" lon="1.72179">
        <ele>145</ele>
        <time>2014-10-12T07:30:12.000Z</time>
      </trkpt>
      <trkpt lat="48.71453" lon="1.72181">
        <ele>144.60000610352</ele>
        <time>2014-10-12T07:30:17.000Z</time>
      </trkpt>
      <trkpt lat="48.71469" lon="1.72186">
        <ele>143.19999694824</ele>
        <time>2014-10-12T07:30:26.000Z</time>
      </trkpt>
      <trkpt lat="48.7147" lon="1.72186">
        <ele>143</ele>
        <time>2014-10-12T07:30:27.000Z</time>
      </trkpt>
      <trkpt lat="48.71475" lon="1.72204">
        <ele>141.80000305176</ele>
        <time>2014-10-12T07:30:36.000Z</time>
      </trkpt>
      <trkpt lat="48.71476" lon="1.72216">
        <ele>141.19999694824</ele>
        <time>2014-10-12T07:30:43.000Z</time>
      </trkpt>
      <trkpt lat="48.71482" lon="1.72227">
        <ele>140.19999694824</ele>
        <time>2014-10-12T07:30:49.000Z</time>
      </trkpt>
      <trkpt lat="48.71484" lon="1.72238">
        <ele>139.60000610352</ele>
        <time>2014-10-12T07:30:55.000Z</time>
      </trkpt>
      <trkpt lat="48.71488" lon="1.7225">
        <ele>139.39999389648</ele>
        <time>2014-10-12T07:31:02.000Z</time>
      </trkpt>
      <trkpt lat="48.71487" lon="1.72253">
        <ele>139.60000610352</ele>
        <time>2014-10-12T07:31:04.000Z</time>
      </trkpt>
      <trkpt lat="48.7149" lon="1.72266">
        <ele>139.39999389648</ele>
        <time>2014-10-12T07:31:11.000Z</time>
      </trkpt>
      <trkpt lat="48.71492" lon="1.72272">
        <ele>139.39999389648</ele>
        <time>2014-10-12T07:31:15.000Z</time>
      </trkpt>
      <trkpt lat="48.71496" lon="1.72282">
        <ele>139.19999694824</ele>
        <time>2014-10-12T07:31:21.000Z</time>
      </trkpt>
      <trkpt lat="48.71495" lon="1.72283">
        <ele>139.39999389648</ele>
        <time>2014-10-12T07:31:24.000Z</time>
      </trkpt>
      <trkpt lat="48.71493" lon="1.72298">
        <ele>139.60000610352</ele>
        <time>2014-10-12T07:31:30.000Z</time>
      </trkpt>
      <trkpt lat="48.7149" lon="1.72311">
        <ele>139.60000610352</ele>
        <time>2014-10-12T07:31:36.000Z</time>
      </trkpt>
      <trkpt lat="48.71491" lon="1.72317">
        <ele>139.39999389648</ele>
        <time>2014-10-12T07:31:41.000Z</time>
      </trkpt>
      <trkpt lat="48.71491" lon="1.72322">
        <ele>139.39999389648</ele>
        <time>2014-10-12T07:31:43.000Z</time>
      </trkpt>
      <trkpt lat="48.71492" lon="1.72334">
        <ele>139.60000610352</ele>
        <time>2014-10-12T07:31:47.000Z</time>
      </trkpt>
      <trkpt lat="48.7149" lon="1.72353">
        <ele>139.80000305176</ele>
        <time>2014-10-12T07:31:55.000Z</time>
      </trkpt>
      <trkpt lat="48.71487" lon="1.72367">
        <ele>140.19999694824</ele>
        <time>2014-10-12T07:32:02.000Z</time>
      </trkpt>
      <trkpt lat="48.71486" lon="1.7237">
        <ele>140.19999694824</ele>
        <time>2014-10-12T07:32:03.000Z</time>
      </trkpt>
      <trkpt lat="48.71485" lon="1.72378">
        <ele>140.39999389648</ele>
        <time>2014-10-12T07:32:09.000Z</time>
      </trkpt>
      <trkpt lat="48.71485" lon="1.72384">
        <ele>140.60000610352</ele>
        <time>2014-10-12T07:32:14.000Z</time>
      </trkpt>
      <trkpt lat="48.71486" lon="1.72392">
        <ele>140.80000305176</ele>
        <time>2014-10-12T07:32:18.000Z</time>
      </trkpt>
      <trkpt lat="48.71486" lon="1.72406">
        <ele>141.19999694824</ele>
        <time>2014-10-12T07:32:24.000Z</time>
      </trkpt>
      <trkpt lat="48.71486" lon="1.72412">
        <ele>141.19999694824</ele>
        <time>2014-10-12T07:32:27.000Z</time>
      </trkpt>
      <trkpt lat="48.71487" lon="1.72423">
        <ele>141.39999389648</ele>
        <time>2014-10-12T07:32:33.000Z</time>
      </trkpt>
      <trkpt lat="48.71487" lon="1.72432">
        <ele>141.60000610352</ele>
        <time>2014-10-12T07:32:38.000Z</time>
      </trkpt>
      <trkpt lat="48.71488" lon="1.72441">
        <ele>141.80000305176</ele>
        <time>2014-10-12T07:32:43.000Z</time>
      </trkpt>
      <trkpt lat="48.71489" lon="1.72446">
        <ele>141.80000305176</ele>
        <time>2014-10-12T07:32:46.000Z</time>
      </trkpt>
      <trkpt lat="48.71489" lon="1.72461">
        <ele>142.19999694824</ele>
        <time>2014-10-12T07:32:53.000Z</time>
      </trkpt>
      <trkpt lat="48.71492" lon="1.7247">
        <ele>142.19999694824</ele>
        <time>2014-10-12T07:32:59.000Z</time>
      </trkpt>
      <trkpt lat="48.71492" lon="1.72472">
        <ele>142.39999389648</ele>
        <time>2014-10-12T07:33:00.000Z</time>
      </trkpt>
      <trkpt lat="48.7149" lon="1.72484">
        <ele>142.80000305176</ele>
        <time>2014-10-12T07:33:06.000Z</time>
      </trkpt>
      <trkpt lat="48.71491" lon="1.72488">
        <ele>142.80000305176</ele>
        <time>2014-10-12T07:33:08.000Z</time>
      </trkpt>
      <trkpt lat="48.71494" lon="1.72499">
        <ele>142.80000305176</ele>
        <time>2014-10-12T07:33:14.000Z</time>
      </trkpt>
      <trkpt lat="48.71495" lon="1.72508">
        <ele>142.80000305176</ele>
        <time>2014-10-12T07:33:18.000Z</time>
      </trkpt>
      <trkpt lat="48.715" lon="1.7252">
        <ele>142.60000610352</ele>
        <time>2014-10-12T07:33:24.000Z</time>
      </trkpt>
      <trkpt lat="48.71501" lon="1.72521">
        <ele>142.60000610352</ele>
        <time>2014-10-12T07:33:25.000Z</time>
      </trkpt>
      <trkpt lat="48.71501" lon="1.72529">
        <ele>142.60000610352</ele>
        <time>2014-10-12T07:33:29.000Z</time>
      </trkpt>
      <trkpt lat="48.715" lon="1.72535">
        <ele>142.80000305176</ele>
        <time>2014-10-12T07:33:33.000Z</time>
      </trkpt>
      <trkpt lat="48.71501" lon="1.72542">
        <ele>142.80000305176</ele>
        <time>2014-10-12T07:33:37.000Z</time>
      </trkpt>
      <trkpt lat="48.71504" lon="1.72556">
        <ele>142.80000305176</ele>
        <time>2014-10-12T07:33:43.000Z</time>
      </trkpt>
      <trkpt lat="48.71506" lon="1.72568">
        <ele>142.80000305176</ele>
        <time>2014-10-12T07:33:50.000Z</time>
      </trkpt>
      <trkpt lat="48.71506" lon="1.72571">
        <ele>142.80000305176</ele>
        <time>2014-10-12T07:33:51.000Z</time>
      </trkpt>
      <trkpt lat="48.71506" lon="1.72581">
        <ele>143.19999694824</ele>
        <time>2014-10-12T07:33:57.000Z</time>
      </trkpt>
      <trkpt lat="48.71508" lon="1.72592">
        <ele>143.19999694824</ele>
        <time>2014-10-12T07:34:02.000Z</time>
      </trkpt>
      <trkpt lat="48.71508" lon="1.72603">
        <ele>143.60000610352</ele>
        <time>2014-10-12T07:34:07.000Z</time>
      </trkpt>
      <trkpt lat="48.71509" lon="1.72611">
        <ele>143.60000610352</ele>
        <time>2014-10-12T07:34:11.000Z</time>
      </trkpt>
      <trkpt lat="48.71511" lon="1.72627">
        <ele>144</ele>
        <time>2014-10-12T07:34:18.000Z</time>
      </trkpt>
      <trkpt lat="48.71517" lon="1.72636">
        <ele>143.80000305176</ele>
        <time>2014-10-12T07:34:25.000Z</time>
      </trkpt>
      <trkpt lat="48.71523" lon="1.72648">
        <ele>143.80000305176</ele>
        <time>2014-10-12T07:34:33.000Z</time>
      </trkpt>
      <trkpt lat="48.71526" lon="1.72657">
        <ele>143.80000305176</ele>
        <time>2014-10-12T07:34:38.000Z</time>
      </trkpt>
      <trkpt lat="48.71533" lon="1.72667">
        <ele>143.60000610352</ele>
        <time>2014-10-12T07:34:45.000Z</time>
      </trkpt>
      <trkpt lat="48.71533" lon="1.72669">
        <ele>143.60000610352</ele>
        <time>2014-10-12T07:34:46.000Z</time>
      </trkpt>
      <trkpt lat="48.71535" lon="1.72678">
        <ele>143.80000305176</ele>
        <time>2014-10-12T07:34:50.000Z</time>
      </trkpt>
      <trkpt lat="48.71537" lon="1.72686">
        <ele>143.80000305176</ele>
        <time>2014-10-12T07:34:54.000Z</time>
      </trkpt>
      <trkpt lat="48.71538" lon="1.72695">
        <ele>144</ele>
        <time>2014-10-12T07:34:58.000Z</time>
      </trkpt>
      <trkpt lat="48.71539" lon="1.72705">
        <ele>144.19999694824</ele>
        <time>2014-10-12T07:35:04.000Z</time>
      </trkpt>
      <trkpt lat="48.71541" lon="1.72714">
        <ele>144.19999694824</ele>
        <time>2014-10-12T07:35:10.000Z</time>
      </trkpt>
      <trkpt lat="48.71542" lon="1.7272">
        <ele>144.19999694824</ele>
        <time>2014-10-12T07:35:13.000Z</time>
      </trkpt>
      <trkpt lat="48.71545" lon="1.72729">
        <ele>144.39999389648</ele>
        <time>2014-10-12T07:35:18.000Z</time>
      </trkpt>
      <trkpt lat="48.71545" lon="1.72731">
        <ele>144.39999389648</ele>
        <time>2014-10-12T07:35:19.000Z</time>
      </trkpt>
      <trkpt lat="48.71548" lon="1.72739">
        <ele>144.39999389648</ele>
        <time>2014-10-12T07:35:23.000Z</time>
      </trkpt>
      <trkpt lat="48.7155" lon="1.7274">
        <ele>144.19999694824</ele>
        <time>2014-10-12T07:35:25.000Z</time>
      </trkpt>
      <trkpt lat="48.71554" lon="1.72743">
        <ele>143.80000305176</ele>
        <time>2014-10-12T07:35:29.000Z</time>
      </trkpt>
      <trkpt lat="48.71557" lon="1.7275">
        <ele>143.60000610352</ele>
        <time>2014-10-12T07:35:35.000Z</time>
      </trkpt>
      <trkpt lat="48.71558" lon="1.72753">
        <ele>143.60000610352</ele>
        <time>2014-10-12T07:35:37.000Z</time>
      </trkpt>
      <trkpt lat="48.71563" lon="1.72761">
        <ele>143.19999694824</ele>
        <time>2014-10-12T07:35:43.000Z</time>
      </trkpt>
      <trkpt lat="48.71567" lon="1.7277">
        <ele>142.80000305176</ele>
        <time>2014-10-12T07:35:49.000Z</time>
      </trkpt>
      <trkpt lat="48.71571" lon="1.72776">
        <ele>142.39999389648</ele>
        <time>2014-10-12T07:35:55.000Z</time>
      </trkpt>
      <trkpt lat="48.71572" lon="1.72778">
        <ele>142.39999389648</ele>
        <time>2014-10-12T07:35:56.000Z</time>
      </trkpt>
      <trkpt lat="48.71576" lon="1.72789">
        <ele>142</ele>
        <time>2014-10-12T07:36:02.000Z</time>
      </trkpt>
      <trkpt lat="48.7158" lon="1.72798">
        <ele>141.60000610352</ele>
        <time>2014-10-12T07:36:06.000Z</time>
      </trkpt>
      <trkpt lat="48.71588" lon="1.72813">
        <ele>141</ele>
        <time>2014-10-12T07:36:14.000Z</time>
      </trkpt>
      <trkpt lat="48.71589" lon="1.72815">
        <ele>141</ele>
        <time>2014-10-12T07:36:15.000Z</time>
      </trkpt>
      <trkpt lat="48.7159" lon="1.72822">
        <ele>140.80000305176</ele>
        <time>2014-10-12T07:36:19.000Z</time>
      </trkpt>
      <trkpt lat="48.71596" lon="1.72829">
        <ele>140.60000610352</ele>
        <time>2014-10-12T07:36:25.000Z</time>
      </trkpt>
      <trkpt lat="48.71601" lon="1.72835">
        <ele>140.39999389648</ele>
        <time>2014-10-12T07:36:29.000Z</time>
      </trkpt>
      <trkpt lat="48.71606" lon="1.72847">
        <ele>140.19999694824</ele>
        <time>2014-10-12T07:36:37.000Z</time>
      </trkpt>
      <trkpt lat="48.71608" lon="1.72855">
        <ele>140.19999694824</ele>
        <time>2014-10-12T07:36:42.000Z</time>
      </trkpt>
      <trkpt lat="48.71609" lon="1.72863">
        <ele>140.19999694824</ele>
        <time>2014-10-12T07:36:46.000Z</time>
      </trkpt>
      <trkpt lat="48.71612" lon="1.72866">
        <ele>140.19999694824</ele>
        <time>2014-10-12T07:36:48.000Z</time>
      </trkpt>
      <trkpt lat="48.71617" lon="1.72874">
        <ele>140</ele>
        <time>2014-10-12T07:36:54.000Z</time>
      </trkpt>
      <trkpt lat="48.71624" lon="1.72881">
        <ele>139.80000305176</ele>
        <time>2014-10-12T07:37:00.000Z</time>
      </trkpt>
      <trkpt lat="48.71628" lon="1.72891">
        <ele>139.60000610352</ele>
        <time>2014-10-12T07:37:07.000Z</time>
      </trkpt>
      <trkpt lat="48.7163" lon="1.72894">
        <ele>139.60000610352</ele>
        <time>2014-10-12T07:37:09.000Z</time>
      </trkpt>
      <trkpt lat="48.71635" lon="1.72904">
        <ele>139.60000610352</ele>
        <time>2014-10-12T07:37:16.000Z</time>
      </trkpt>
      <trkpt lat="48.71636" lon="1.72906">
        <ele>139.39999389648</ele>
        <time>2014-10-12T07:37:17.000Z</time>
      </trkpt>
      <trkpt lat="48.71638" lon="1.72918">
        <ele>139.60000610352</ele>
        <time>2014-10-12T07:37:24.000Z</time>
      </trkpt>
      <trkpt lat="48.71641" lon="1.72926">
        <ele>139.39999389648</ele>
        <time>2014-10-12T07:37:29.000Z</time>
      </trkpt>
      <trkpt lat="48.71645" lon="1.72938">
        <ele>139.39999389648</ele>
        <time>2014-10-12T07:37:35.000Z</time>
      </trkpt>
      <trkpt lat="48.71651" lon="1.72948">
        <ele>139.19999694824</ele>
        <time>2014-10-12T07:37:40.000Z</time>
      </trkpt>
      <trkpt lat="48.71653" lon="1.72955">
        <ele>139.19999694824</ele>
        <time>2014-10-12T07:37:46.000Z</time>
      </trkpt>
      <trkpt lat="48.71656" lon="1.7297">
        <ele>139.19999694824</ele>
        <time>2014-10-12T07:37:54.000Z</time>
      </trkpt>
      <trkpt lat="48.71657" lon="1.72979">
        <ele>139.39999389648</ele>
        <time>2014-10-12T07:37:59.000Z</time>
      </trkpt>
      <trkpt lat="48.71657" lon="1.7298">
        <ele>139.39999389648</ele>
        <time>2014-10-12T07:38:00.000Z</time>
      </trkpt>
      <trkpt lat="48.71656" lon="1.7298">
        <ele>139.39999389648</ele>
        <time>2014-10-12T07:38:05.000Z</time>
      </trkpt>
      <trkpt lat="48.71648" lon="1.72983">
        <ele>139.80000305176</ele>
        <time>2014-10-12T07:40:33.000Z</time>
      </trkpt>
      <trkpt lat="48.71656" lon="1.72986">
        <ele>139.39999389648</ele>
        <time>2014-10-12T07:41:01.000Z</time>
      </trkpt>
      <trkpt lat="48.71651" lon="1.72991">
        <ele>139.80000305176</ele>
        <time>2014-10-12T07:41:57.000Z</time>
      </trkpt>
      <trkpt lat="48.71654" lon="1.72989">
        <ele>139.60000610352</ele>
        <time>2014-10-12T07:42:07.000Z</time>
      </trkpt>
      <trkpt lat="48.71643" lon="1.73004">
        <ele>140.39999389648</ele>
        <time>2014-10-12T07:43:18.000Z</time>
      </trkpt>
      <trkpt lat="48.7164" lon="1.73012">
        <ele>140.60000610352</ele>
        <time>2014-10-12T07:43:21.000Z</time>
      </trkpt>
      <trkpt lat="48.71637" lon="1.73016">
        <ele>140.80000305176</ele>
        <time>2014-10-12T07:43:24.000Z</time>
      </trkpt>
      <trkpt lat="48.71633" lon="1.73024">
        <ele>140.80000305176</ele>
        <time>2014-10-12T07:43:29.000Z</time>
      </trkpt>
      <trkpt lat="48.71632" lon="1.73025">
        <ele>140.80000305176</ele>
        <time>2014-10-12T07:43:31.000Z</time>
      </trkpt>
      <trkpt lat="48.71628" lon="1.73037">
        <ele>140.80000305176</ele>
        <time>2014-10-12T07:43:42.000Z</time>
      </trkpt>
      <trkpt lat="48.71626" lon="1.73043">
        <ele>140.80000305176</ele>
        <time>2014-10-12T07:43:46.000Z</time>
      </trkpt>
      <trkpt lat="48.71617" lon="1.73066">
        <ele>140.80000305176</ele>
        <time>2014-10-12T07:44:07.000Z</time>
      </trkpt>
      <trkpt lat="48.71614" lon="1.73071">
        <ele>140.80000305176</ele>
        <time>2014-10-12T07:44:09.000Z</time>
      </trkpt>
      <trkpt lat="48.71609" lon="1.73081">
        <ele>140.60000610352</ele>
        <time>2014-10-12T07:44:15.000Z</time>
      </trkpt>
      <trkpt lat="48.71605" lon="1.73091">
        <ele>140.39999389648</ele>
        <time>2014-10-12T07:44:22.000Z</time>
      </trkpt>
      <trkpt lat="48.71601" lon="1.73101">
        <ele>140.39999389648</ele>
        <time>2014-10-12T07:44:29.000Z</time>
      </trkpt>
      <trkpt lat="48.71598" lon="1.73105">
        <ele>140.60000610352</ele>
        <time>2014-10-12T07:44:32.000Z</time>
      </trkpt>
      <trkpt lat="48.71594" lon="1.73115">
        <ele>140.60000610352</ele>
        <time>2014-10-12T07:44:37.000Z</time>
      </trkpt>
      <trkpt lat="48.71591" lon="1.73122">
        <ele>140.60000610352</ele>
        <time>2014-10-12T07:44:44.000Z</time>
      </trkpt>
      <trkpt lat="48.71587" lon="1.73129">
        <ele>140.80000305176</ele>
        <time>2014-10-12T07:44:49.000Z</time>
      </trkpt>
      <trkpt lat="48.71583" lon="1.73138">
        <ele>140.80000305176</ele>
        <time>2014-10-12T07:44:55.000Z</time>
      </trkpt>
      <trkpt lat="48.71579" lon="1.73146">
        <ele>140.60000610352</ele>
        <time>2014-10-12T07:45:01.000Z</time>
      </trkpt>
      <trkpt lat="48.71573" lon="1.73158">
        <ele>140.39999389648</ele>
        <time>2014-10-12T07:45:07.000Z</time>
      </trkpt>
      <trkpt lat="48.71572" lon="1.7316">
        <ele>140.60000610352</ele>
        <time>2014-10-12T07:45:08.000Z</time>
      </trkpt>
      <trkpt lat="48.7157" lon="1.73165">
        <ele>140.60000610352</ele>
        <time>2014-10-12T07:45:12.000Z</time>
      </trkpt>
      <trkpt lat="48.71567" lon="1.73175">
        <ele>140.80000305176</ele>
        <time>2014-10-12T07:45:17.000Z</time>
      </trkpt>
      <trkpt lat="48.71563" lon="1.73187">
        <ele>141</ele>
        <time>2014-10-12T07:45:23.000Z</time>
      </trkpt>
      <trkpt lat="48.71559" lon="1.73194">
        <ele>141.19999694824</ele>
        <time>2014-10-12T07:45:27.000Z</time>
      </trkpt>
      <trkpt lat="48.71554" lon="1.732">
        <ele>141.39999389648</ele>
        <time>2014-10-12T07:45:32.000Z</time>
      </trkpt>
      <trkpt lat="48.71549" lon="1.73213">
        <ele>141.60000610352</ele>
        <time>2014-10-12T07:45:38.000Z</time>
      </trkpt>
      <trkpt lat="48.71545" lon="1.73223">
        <ele>141.80000305176</ele>
        <time>2014-10-12T07:45:43.000Z</time>
      </trkpt>
      <trkpt lat="48.71541" lon="1.7323">
        <ele>142</ele>
        <time>2014-10-12T07:45:46.000Z</time>
      </trkpt>
      <trkpt lat="48.71541" lon="1.73231">
        <ele>142</ele>
        <time>2014-10-12T07:45:48.000Z</time>
      </trkpt>
      <trkpt lat="48.71534" lon="1.73242">
        <ele>142.60000610352</ele>
        <time>2014-10-12T07:45:55.000Z</time>
      </trkpt>
      <trkpt lat="48.71533" lon="1.73245">
        <ele>142.80000305176</ele>
        <time>2014-10-12T07:45:57.000Z</time>
      </trkpt>
      <trkpt lat="48.71532" lon="1.73253">
        <ele>143.19999694824</ele>
        <time>2014-10-12T07:46:02.000Z</time>
      </trkpt>
      <trkpt lat="48.71531" lon="1.73255">
        <ele>143.39999389648</ele>
        <time>2014-10-12T07:46:03.000Z</time>
      </trkpt>
      <trkpt lat="48.71528" lon="1.73261">
        <ele>143.60000610352</ele>
        <time>2014-10-12T07:46:07.000Z</time>
      </trkpt>
      <trkpt lat="48.71524" lon="1.73265">
        <ele>143.80000305176</ele>
        <time>2014-10-12T07:46:10.000Z</time>
      </trkpt>
      <trkpt lat="48.71521" lon="1.73272">
        <ele>144.19999694824</ele>
        <time>2014-10-12T07:46:14.000Z</time>
      </trkpt>
      <trkpt lat="48.71517" lon="1.73281">
        <ele>145</ele>
        <time>2014-10-12T07:46:20.000Z</time>
      </trkpt>
      <trkpt lat="48.71514" lon="1.73287">
        <ele>145.39999389648</ele>
        <time>2014-10-12T07:46:25.000Z</time>
      </trkpt>
      <trkpt lat="48.7151" lon="1.73292">
        <ele>146</ele>
        <time>2014-10-12T07:46:33.000Z</time>
      </trkpt>
      <trkpt lat="48.71506" lon="1.73299">
        <ele>146.60000610352</ele>
        <time>2014-10-12T07:46:39.000Z</time>
      </trkpt>
      <trkpt lat="48.71503" lon="1.73306">
        <ele>147</ele>
        <time>2014-10-12T07:46:43.000Z</time>
      </trkpt>
      <trkpt lat="48.71502" lon="1.73309">
        <ele>147.19999694824</ele>
        <time>2014-10-12T07:46:45.000Z</time>
      </trkpt>
      <trkpt lat="48.71499" lon="1.73317">
        <ele>147.19999694824</ele>
        <time>2014-10-12T07:46:50.000Z</time>
      </trkpt>
      <trkpt lat="48.71493" lon="1.73326">
        <ele>147.80000305176</ele>
        <time>2014-10-12T07:46:56.000Z</time>
      </trkpt>
      <trkpt lat="48.71491" lon="1.73328">
        <ele>148</ele>
        <time>2014-10-12T07:46:58.000Z</time>
      </trkpt>
      <trkpt lat="48.71487" lon="1.73338">
        <ele>148.39999389648</ele>
        <time>2014-10-12T07:47:04.000Z</time>
      </trkpt>
      <trkpt lat="48.71484" lon="1.73345">
        <ele>148.80000305176</ele>
        <time>2014-10-12T07:47:08.000Z</time>
      </trkpt>
      <trkpt lat="48.71484" lon="1.73349">
        <ele>148.80000305176</ele>
        <time>2014-10-12T07:47:10.000Z</time>
      </trkpt>
      <trkpt lat="48.71477" lon="1.73361">
        <ele>149.60000610352</ele>
        <time>2014-10-12T07:47:17.000Z</time>
      </trkpt>
      <trkpt lat="48.71472" lon="1.73366">
        <ele>150.60000610352</ele>
        <time>2014-10-12T07:47:22.000Z</time>
      </trkpt>
      <trkpt lat="48.71465" lon="1.73368">
        <ele>151.60000610352</ele>
        <time>2014-10-12T07:47:26.000Z</time>
      </trkpt>
      <trkpt lat="48.7146" lon="1.7337">
        <ele>152.39999389648</ele>
        <time>2014-10-12T07:47:30.000Z</time>
      </trkpt>
      <trkpt lat="48.71449" lon="1.73376">
        <ele>154.19999694824</ele>
        <time>2014-10-12T07:47:38.000Z</time>
      </trkpt>
      <trkpt lat="48.71445" lon="1.73376">
        <ele>154.60000610352</ele>
        <time>2014-10-12T07:47:42.000Z</time>
      </trkpt>
      <trkpt lat="48.71439" lon="1.73385">
        <ele>156.19999694824</ele>
        <time>2014-10-12T07:47:49.000Z</time>
      </trkpt>
      <trkpt lat="48.71435" lon="1.73392">
        <ele>157.19999694824</ele>
        <time>2014-10-12T07:47:54.000Z</time>
      </trkpt>
      <trkpt lat="48.71429" lon="1.73397">
        <ele>159</ele>
        <time>2014-10-12T07:48:01.000Z</time>
      </trkpt>
      <trkpt lat="48.71425" lon="1.734">
        <ele>160</ele>
        <time>2014-10-12T07:48:07.000Z</time>
      </trkpt>
      <trkpt lat="48.71421" lon="1.73398">
        <ele>160.60000610352</ele>
        <time>2014-10-12T07:48:11.000Z</time>
      </trkpt>
      <trkpt lat="48.71415" lon="1.73395">
        <ele>161.39999389648</ele>
        <time>2014-10-12T07:48:14.000Z</time>
      </trkpt>
      <trkpt lat="48.7141" lon="1.73391">
        <ele>162</ele>
        <time>2014-10-12T07:48:18.000Z</time>
      </trkpt>
      <trkpt lat="48.71408" lon="1.73391">
        <ele>162.39999389648</ele>
        <time>2014-10-12T07:48:20.000Z</time>
      </trkpt>
      <trkpt lat="48.71405" lon="1.73389">
        <ele>162.80000305176</ele>
        <time>2014-10-12T07:48:24.000Z</time>
      </trkpt>
      <trkpt lat="48.71401" lon="1.73384">
        <ele>163.19999694824</ele>
        <time>2014-10-12T07:48:29.000Z</time>
      </trkpt>
      <trkpt lat="48.71397" lon="1.73383">
        <ele>164</ele>
        <time>2014-10-12T07:48:33.000Z</time>
      </trkpt>
      <trkpt lat="48.71395" lon="1.73379">
        <ele>164</ele>
        <time>2014-10-12T07:48:40.000Z</time>
      </trkpt>
      <trkpt lat="48.71397" lon="1.73374">
        <ele>163.19999694824</ele>
        <time>2014-10-12T07:48:49.000Z</time>
      </trkpt>
      <trkpt lat="48.71374" lon="1.73361">
        <ele>166.39999389648</ele>
        <time>2014-10-12T07:49:18.000Z</time>
      </trkpt>
      <trkpt lat="48.7137" lon="1.73356">
        <ele>166.80000305176</ele>
        <time>2014-10-12T07:49:21.000Z</time>
      </trkpt>
      <trkpt lat="48.71369" lon="1.73349">
        <ele>166.39999389648</ele>
        <time>2014-10-12T07:49:26.000Z</time>
      </trkpt>
      <trkpt lat="48.7137" lon="1.73346">
        <ele>166</ele>
        <time>2014-10-12T07:49:31.000Z</time>
      </trkpt>
      <trkpt lat="48.71364" lon="1.73336">
        <ele>166.39999389648</ele>
        <time>2014-10-12T07:49:47.000Z</time>
      </trkpt>
      <trkpt lat="48.71363" lon="1.73336">
        <ele>166.39999389648</ele>
        <time>2014-10-12T07:49:48.000Z</time>
      </trkpt>
      <trkpt lat="48.71357" lon="1.73329">
        <ele>167</ele>
        <time>2014-10-12T07:49:53.000Z</time>
      </trkpt>
      <trkpt lat="48.71351" lon="1.73319">
        <ele>167.39999389648</ele>
        <time>2014-10-12T07:49:59.000Z</time>
      </trkpt>
      <trkpt lat="48.71351" lon="1.73307">
        <ele>167.19999694824</ele>
        <time>2014-10-12T07:50:05.000Z</time>
      </trkpt>
      <trkpt lat="48.71344" lon="1.73303">
        <ele>168.60000610352</ele>
        <time>2014-10-12T07:50:13.000Z</time>
      </trkpt>
      <trkpt lat="48.7134" lon="1.73297">
        <ele>169.19999694824</ele>
        <time>2014-10-12T07:50:19.000Z</time>
      </trkpt>
      <trkpt lat="48.71332" lon="1.73286">
        <ele>170.60000610352</ele>
        <time>2014-10-12T07:50:27.000Z</time>
      </trkpt>
      <trkpt lat="48.71331" lon="1.73276">
        <ele>170.60000610352</ele>
        <time>2014-10-12T07:50:33.000Z</time>
      </trkpt>
      <trkpt lat="48.71336" lon="1.73273">
        <ele>169.39999389648</ele>
        <time>2014-10-12T07:50:41.000Z</time>
      </trkpt>
      <trkpt lat="48.71336" lon="1.73273">
        <ele>169.39999389648</ele>
        <time>2014-10-12T07:50:43.000Z</time>
      </trkpt>
      <trkpt lat="48.71332" lon="1.73254">
        <ele>169.80000305176</ele>
        <time>2014-10-12T07:51:09.000Z</time>
      </trkpt>
      <trkpt lat="48.71331" lon="1.73249">
        <ele>169.80000305176</ele>
        <time>2014-10-12T07:51:11.000Z</time>
      </trkpt>
      <trkpt lat="48.71328" lon="1.73244">
        <ele>170.39999389648</ele>
        <time>2014-10-12T07:51:15.000Z</time>
      </trkpt>
      <trkpt lat="48.71324" lon="1.73239">
        <ele>171.19999694824</ele>
        <time>2014-10-12T07:51:20.000Z</time>
      </trkpt>
      <trkpt lat="48.71319" lon="1.73226">
        <ele>172</ele>
        <time>2014-10-12T07:51:28.000Z</time>
      </trkpt>
      <trkpt lat="48.71313" lon="1.73214">
        <ele>173.19999694824</ele>
        <time>2014-10-12T07:51:35.000Z</time>
      </trkpt>
      <trkpt lat="48.71309" lon="1.73207">
        <ele>174.19999694824</ele>
        <time>2014-10-12T07:51:41.000Z</time>
      </trkpt>
      <trkpt lat="48.71306" lon="1.73203">
        <ele>174.60000610352</ele>
        <time>2014-10-12T07:51:44.000Z</time>
      </trkpt>
      <trkpt lat="48.71304" lon="1.73192">
        <ele>175</ele>
        <time>2014-10-12T07:51:49.000Z</time>
      </trkpt>
      <trkpt lat="48.71304" lon="1.73186">
        <ele>175.19999694824</ele>
        <time>2014-10-12T07:51:53.000Z</time>
      </trkpt>
      <trkpt lat="48.71303" lon="1.73179">
        <ele>175.60000610352</ele>
        <time>2014-10-12T07:51:56.000Z</time>
      </trkpt>
      <trkpt lat="48.71304" lon="1.7317">
        <ele>175.80000305176</ele>
        <time>2014-10-12T07:52:01.000Z</time>
      </trkpt>
      <trkpt lat="48.71306" lon="1.73161">
        <ele>175.80000305176</ele>
        <time>2014-10-12T07:52:06.000Z</time>
      </trkpt>
      <trkpt lat="48.71305" lon="1.73156">
        <ele>176</ele>
        <time>2014-10-12T07:52:11.000Z</time>
      </trkpt>
      <trkpt lat="48.71307" lon="1.73147">
        <ele>176</ele>
        <time>2014-10-12T07:52:17.000Z</time>
      </trkpt>
      <trkpt lat="48.71306" lon="1.73137">
        <ele>176.19999694824</ele>
        <time>2014-10-12T07:52:22.000Z</time>
      </trkpt>
      <trkpt lat="48.71305" lon="1.73127">
        <ele>176.60000610352</ele>
        <time>2014-10-12T07:52:27.000Z</time>
      </trkpt>
      <trkpt lat="48.71306" lon="1.7312">
        <ele>176.39999389648</ele>
        <time>2014-10-12T07:52:33.000Z</time>
      </trkpt>
      <trkpt lat="48.71308" lon="1.73115">
        <ele>176.19999694824</ele>
        <time>2014-10-12T07:52:36.000Z</time>
      </trkpt>
      <trkpt lat="48.71309" lon="1.73113">
        <ele>176</ele>
        <time>2014-10-12T07:52:38.000Z</time>
      </trkpt>
      <trkpt lat="48.71312" lon="1.73108">
        <ele>175.80000305176</ele>
        <time>2014-10-12T07:52:41.000Z</time>
      </trkpt>
      <trkpt lat="48.7132" lon="1.73093">
        <ele>176.60000610352</ele>
        <time>2014-10-12T07:52:49.000Z</time>
      </trkpt>
      <trkpt lat="48.71322" lon="1.73089">
        <ele>176.80000305176</ele>
        <time>2014-10-12T07:52:53.000Z</time>
      </trkpt>
      <trkpt lat="48.71324" lon="1.73085">
        <ele>177</ele>
        <time>2014-10-12T07:52:58.000Z</time>
      </trkpt>
      <trkpt lat="48.71328" lon="1.73084">
        <ele>176.80000305176</ele>
        <time>2014-10-12T07:53:03.000Z</time>
      </trkpt>
      <trkpt lat="48.7133" lon="1.7308">
        <ele>177.19999694824</ele>
        <time>2014-10-12T07:53:08.000Z</time>
      </trkpt>
      <trkpt lat="48.71329" lon="1.73074">
        <ele>177.80000305176</ele>
        <time>2014-10-12T07:53:12.000Z</time>
      </trkpt>
      <trkpt lat="48.71331" lon="1.73067">
        <ele>178</ele>
        <time>2014-10-12T07:53:18.000Z</time>
      </trkpt>
      <trkpt lat="48.71332" lon="1.73063">
        <ele>177.80000305176</ele>
        <time>2014-10-12T07:53:24.000Z</time>
      </trkpt>
      <trkpt lat="48.71334" lon="1.73057">
        <ele>177.60000610352</ele>
        <time>2014-10-12T07:53:30.000Z</time>
      </trkpt>
      <trkpt lat="48.71337" lon="1.7305">
        <ele>177.60000610352</ele>
        <time>2014-10-12T07:53:35.000Z</time>
      </trkpt>
      <trkpt lat="48.71335" lon="1.73044">
        <ele>178</ele>
        <time>2014-10-12T07:53:41.000Z</time>
      </trkpt>
      <trkpt lat="48.71333" lon="1.73037">
        <ele>178.39999389648</ele>
        <time>2014-10-12T07:53:45.000Z</time>
      </trkpt>
      <trkpt lat="48.71335" lon="1.73029">
        <ele>179</ele>
        <time>2014-10-12T07:53:49.000Z</time>
      </trkpt>
      <trkpt lat="48.71335" lon="1.73023">
        <ele>179.39999389648</ele>
        <time>2014-10-12T07:53:53.000Z</time>
      </trkpt>
      <trkpt lat="48.71334" lon="1.73018">
        <ele>179.60000610352</ele>
        <time>2014-10-12T07:53:57.000Z</time>
      </trkpt>
      <trkpt lat="48.71336" lon="1.73005">
        <ele>180.39999389648</ele>
        <time>2014-10-12T07:54:04.000Z</time>
      </trkpt>
      <trkpt lat="48.71339" lon="1.72996">
        <ele>180.80000305176</ele>
        <time>2014-10-12T07:54:12.000Z</time>
      </trkpt>
      <trkpt lat="48.71339" lon="1.72994">
        <ele>181</ele>
        <time>2014-10-12T07:54:15.000Z</time>
      </trkpt>
      <trkpt lat="48.71339" lon="1.7298">
        <ele>181.39999389648</ele>
        <time>2014-10-12T07:57:21.000Z</time>
      </trkpt>
      <trkpt lat="48.71344" lon="1.72975">
        <ele>181.19999694824</ele>
        <time>2014-10-12T07:57:24.000Z</time>
      </trkpt>
      <trkpt lat="48.71348" lon="1.72969">
        <ele>180.60000610352</ele>
        <time>2014-10-12T07:57:30.000Z</time>
      </trkpt>
      <trkpt lat="48.71348" lon="1.7296">
        <ele>180.39999389648</ele>
        <time>2014-10-12T07:57:37.000Z</time>
      </trkpt>
      <trkpt lat="48.71345" lon="1.72948">
        <ele>180.19999694824</ele>
        <time>2014-10-12T07:57:44.000Z</time>
      </trkpt>
      <trkpt lat="48.71343" lon="1.72934">
        <ele>179.80000305176</ele>
        <time>2014-10-12T07:57:51.000Z</time>
      </trkpt>
      <trkpt lat="48.71342" lon="1.72923">
        <ele>179.39999389648</ele>
        <time>2014-10-12T07:57:57.000Z</time>
      </trkpt>
      <trkpt lat="48.71339" lon="1.72911">
        <ele>179.19999694824</ele>
        <time>2014-10-12T07:58:04.000Z</time>
      </trkpt>
      <trkpt lat="48.71336" lon="1.72901">
        <ele>179</ele>
        <time>2014-10-12T07:58:10.000Z</time>
      </trkpt>
      <trkpt lat="48.71335" lon="1.72888">
        <ele>178.80000305176</ele>
        <time>2014-10-12T07:58:17.000Z</time>
      </trkpt>
      <trkpt lat="48.71334" lon="1.72881">
        <ele>178.60000610352</ele>
        <time>2014-10-12T07:58:22.000Z</time>
      </trkpt>
      <trkpt lat="48.71336" lon="1.72875">
        <ele>178</ele>
        <time>2014-10-12T07:58:30.000Z</time>
      </trkpt>
      <trkpt lat="48.71338" lon="1.72873">
        <ele>177.80000305176</ele>
        <time>2014-10-12T07:58:34.000Z</time>
      </trkpt>
      <trkpt lat="48.71342" lon="1.72904">
        <ele>178.60000610352</ele>
        <time>2014-10-12T08:00:15.000Z</time>
      </trkpt>
      <trkpt lat="48.71343" lon="1.7291">
        <ele>178.80000305176</ele>
        <time>2014-10-12T08:00:17.000Z</time>
      </trkpt>
      <trkpt lat="48.71344" lon="1.72913">
        <ele>178.80000305176</ele>
        <time>2014-10-12T08:00:19.000Z</time>
      </trkpt>
      <trkpt lat="48.71346" lon="1.72917">
        <ele>179</ele>
        <time>2014-10-12T08:00:22.000Z</time>
      </trkpt>
      <trkpt lat="48.71348" lon="1.72928">
        <ele>179.19999694824</ele>
        <time>2014-10-12T08:00:29.000Z</time>
      </trkpt>
      <trkpt lat="48.71351" lon="1.72942">
        <ele>179.60000610352</ele>
        <time>2014-10-12T08:00:36.000Z</time>
      </trkpt>
      <trkpt lat="48.71353" lon="1.7295">
        <ele>179.60000610352</ele>
        <time>2014-10-12T08:00:42.000Z</time>
      </trkpt>
      <trkpt lat="48.71356" lon="1.72963">
        <ele>179.60000610352</ele>
        <time>2014-10-12T08:00:50.000Z</time>
      </trkpt>
      <trkpt lat="48.71351" lon="1.72982">
        <ele>181</ele>
        <time>2014-10-12T08:00:58.000Z</time>
      </trkpt>
      <trkpt lat="48.71351" lon="1.72984">
        <ele>181</ele>
        <time>2014-10-12T08:00:59.000Z</time>
      </trkpt>
      <trkpt lat="48.71341" lon="1.72994">
        <ele>181</ele>
        <time>2014-10-12T08:01:07.000Z</time>
      </trkpt>
      <trkpt lat="48.71332" lon="1.73">
        <ele>180.80000305176</ele>
        <time>2014-10-12T08:01:14.000Z</time>
      </trkpt>
      <trkpt lat="48.71325" lon="1.73005">
        <ele>180.60000610352</ele>
        <time>2014-10-12T08:01:21.000Z</time>
      </trkpt>
      <trkpt lat="48.7132" lon="1.73007">
        <ele>180.60000610352</ele>
        <time>2014-10-12T08:01:25.000Z</time>
      </trkpt>
      <trkpt lat="48.71312" lon="1.73015">
        <ele>180.39999389648</ele>
        <time>2014-10-12T08:01:33.000Z</time>
      </trkpt>
      <trkpt lat="48.71304" lon="1.73019">
        <ele>180.19999694824</ele>
        <time>2014-10-12T08:01:39.000Z</time>
      </trkpt>
      <trkpt lat="48.713" lon="1.73021">
        <ele>180.39999389648</ele>
        <time>2014-10-12T08:01:45.000Z</time>
      </trkpt>
      <trkpt lat="48.71282" lon="1.73028">
        <ele>182</ele>
        <time>2014-10-12T08:02:46.000Z</time>
      </trkpt>
      <trkpt lat="48.71275" lon="1.73033">
        <ele>182.60000610352</ele>
        <time>2014-10-12T08:02:51.000Z</time>
      </trkpt>
      <trkpt lat="48.71274" lon="1.73033">
        <ele>182.60000610352</ele>
        <time>2014-10-12T08:02:52.000Z</time>
      </trkpt>
      <trkpt lat="48.71269" lon="1.73039">
        <ele>183</ele>
        <time>2014-10-12T08:02:57.000Z</time>
      </trkpt>
      <trkpt lat="48.71267" lon="1.7304">
        <ele>182.80000305176</ele>
        <time>2014-10-12T08:02:59.000Z</time>
      </trkpt>
      <trkpt lat="48.71263" lon="1.73043">
        <ele>182.80000305176</ele>
        <time>2014-10-12T08:03:03.000Z</time>
      </trkpt>
      <trkpt lat="48.71253" lon="1.73055">
        <ele>182.39999389648</ele>
        <time>2014-10-12T08:03:09.000Z</time>
      </trkpt>
      <trkpt lat="48.71249" lon="1.73057">
        <ele>182.60000610352</ele>
        <time>2014-10-12T08:03:12.000Z</time>
      </trkpt>
      <trkpt lat="48.71249" lon="1.7306">
        <ele>182.60000610352</ele>
        <time>2014-10-12T08:03:17.000Z</time>
      </trkpt>
      <trkpt lat="48.71246" lon="1.73083">
        <ele>182.80000305176</ele>
        <time>2014-10-12T08:04:07.000Z</time>
      </trkpt>
      <trkpt lat="48.71244" lon="1.73093">
        <ele>182.80000305176</ele>
        <time>2014-10-12T08:04:11.000Z</time>
      </trkpt>
      <trkpt lat="48.71244" lon="1.73102">
        <ele>182.60000610352</ele>
        <time>2014-10-12T08:04:17.000Z</time>
      </trkpt>
      <trkpt lat="48.71243" lon="1.73107">
        <ele>182.60000610352</ele>
        <time>2014-10-12T08:04:21.000Z</time>
      </trkpt>
      <trkpt lat="48.71243" lon="1.73116">
        <ele>182.39999389648</ele>
        <time>2014-10-12T08:04:27.000Z</time>
      </trkpt>
      <trkpt lat="48.71241" lon="1.73126">
        <ele>182.39999389648</ele>
        <time>2014-10-12T08:04:32.000Z</time>
      </trkpt>
      <trkpt lat="48.7124" lon="1.73135">
        <ele>182.60000610352</ele>
        <time>2014-10-12T08:04:38.000Z</time>
      </trkpt>
      <trkpt lat="48.71234" lon="1.73153">
        <ele>183.19999694824</ele>
        <time>2014-10-12T08:04:44.000Z</time>
      </trkpt>
      <trkpt lat="48.7123" lon="1.73163">
        <ele>183.39999389648</ele>
        <time>2014-10-12T08:04:50.000Z</time>
      </trkpt>
      <trkpt lat="48.71229" lon="1.73167">
        <ele>183.39999389648</ele>
        <time>2014-10-12T08:04:53.000Z</time>
      </trkpt>
      <trkpt lat="48.71228" lon="1.73181">
        <ele>183.60000610352</ele>
        <time>2014-10-12T08:05:00.000Z</time>
      </trkpt>
      <trkpt lat="48.71228" lon="1.73182">
        <ele>183.60000610352</ele>
        <time>2014-10-12T08:05:01.000Z</time>
      </trkpt>
      <trkpt lat="48.71223" lon="1.73195">
        <ele>183.80000305176</ele>
        <time>2014-10-12T08:05:08.000Z</time>
      </trkpt>
      <trkpt lat="48.71219" lon="1.73206">
        <ele>183.80000305176</ele>
        <time>2014-10-12T08:05:15.000Z</time>
      </trkpt>
      <trkpt lat="48.71219" lon="1.73209">
        <ele>183.80000305176</ele>
        <time>2014-10-12T08:05:18.000Z</time>
      </trkpt>
      <trkpt lat="48.71219" lon="1.73216">
        <ele>183.80000305176</ele>
        <time>2014-10-12T08:05:22.000Z</time>
      </trkpt>
      <trkpt lat="48.71218" lon="1.73224">
        <ele>183.80000305176</ele>
        <time>2014-10-12T08:05:28.000Z</time>
      </trkpt>
      <trkpt lat="48.7122" lon="1.73229">
        <ele>183.80000305176</ele>
        <time>2014-10-12T08:05:31.000Z</time>
      </trkpt>
      <trkpt lat="48.71217" lon="1.73241">
        <ele>184</ele>
        <time>2014-10-12T08:05:38.000Z</time>
      </trkpt>
      <trkpt lat="48.71217" lon="1.73242">
        <ele>184</ele>
        <time>2014-10-12T08:05:39.000Z</time>
      </trkpt>
      <trkpt lat="48.71216" lon="1.73248">
        <ele>184</ele>
        <time>2014-10-12T08:05:44.000Z</time>
      </trkpt>
      <trkpt lat="48.71213" lon="1.73256">
        <ele>184</ele>
        <time>2014-10-12T08:05:50.000Z</time>
      </trkpt>
      <trkpt lat="48.71211" lon="1.73267">
        <ele>184</ele>
        <time>2014-10-12T08:05:55.000Z</time>
      </trkpt>
      <trkpt lat="48.7121" lon="1.73277">
        <ele>184</ele>
        <time>2014-10-12T08:06:00.000Z</time>
      </trkpt>
      <trkpt lat="48.71207" lon="1.73287">
        <ele>184</ele>
        <time>2014-10-12T08:06:06.000Z</time>
      </trkpt>
      <trkpt lat="48.71206" lon="1.73294">
        <ele>183.80000305176</ele>
        <time>2014-10-12T08:06:11.000Z</time>
      </trkpt>
      <trkpt lat="48.71204" lon="1.73301">
        <ele>183.80000305176</ele>
        <time>2014-10-12T08:06:14.000Z</time>
      </trkpt>
      <trkpt lat="48.71201" lon="1.73316">
        <ele>183.80000305176</ele>
        <time>2014-10-12T08:06:20.000Z</time>
      </trkpt>
      <trkpt lat="48.71199" lon="1.73326">
        <ele>183.80000305176</ele>
        <time>2014-10-12T08:06:24.000Z</time>
      </trkpt>
      <trkpt lat="48.71195" lon="1.73336">
        <ele>183.80000305176</ele>
        <time>2014-10-12T08:06:29.000Z</time>
      </trkpt>
      <trkpt lat="48.71194" lon="1.73346">
        <ele>183.60000610352</ele>
        <time>2014-10-12T08:06:35.000Z</time>
      </trkpt>
      <trkpt lat="48.71192" lon="1.7335">
        <ele>183.60000610352</ele>
        <time>2014-10-12T08:06:37.000Z</time>
      </trkpt>
      <trkpt lat="48.71191" lon="1.73357">
        <ele>183.60000610352</ele>
        <time>2014-10-12T08:06:43.000Z</time>
      </trkpt>
      <trkpt lat="48.71191" lon="1.73363">
        <ele>183.39999389648</ele>
        <time>2014-10-12T08:06:47.000Z</time>
      </trkpt>
      <trkpt lat="48.7119" lon="1.73371">
        <ele>183.39999389648</ele>
        <time>2014-10-12T08:06:52.000Z</time>
      </trkpt>
      <trkpt lat="48.71187" lon="1.73381">
        <ele>183.19999694824</ele>
        <time>2014-10-12T08:06:59.000Z</time>
      </trkpt>
      <trkpt lat="48.71182" lon="1.73397">
        <ele>182.80000305176</ele>
        <time>2014-10-12T08:07:05.000Z</time>
      </trkpt>
      <trkpt lat="48.71181" lon="1.73405">
        <ele>182.60000610352</ele>
        <time>2014-10-12T08:07:09.000Z</time>
      </trkpt>
      <trkpt lat="48.71181" lon="1.73413">
        <ele>182.39999389648</ele>
        <time>2014-10-12T08:07:15.000Z</time>
      </trkpt>
      <trkpt lat="48.71179" lon="1.73423">
        <ele>182</ele>
        <time>2014-10-12T08:07:23.000Z</time>
      </trkpt>
      <trkpt lat="48.71179" lon="1.73425">
        <ele>182</ele>
        <time>2014-10-12T08:07:24.000Z</time>
      </trkpt>
      <trkpt lat="48.71176" lon="1.73436">
        <ele>181.60000610352</ele>
        <time>2014-10-12T08:07:29.000Z</time>
      </trkpt>
      <trkpt lat="48.71175" lon="1.73437">
        <ele>181.60000610352</ele>
        <time>2014-10-12T08:07:30.000Z</time>
      </trkpt>
      <trkpt lat="48.71175" lon="1.73445">
        <ele>181.19999694824</ele>
        <time>2014-10-12T08:07:33.000Z</time>
      </trkpt>
      <trkpt lat="48.71169" lon="1.73458">
        <ele>180.60000610352</ele>
        <time>2014-10-12T08:07:40.000Z</time>
      </trkpt>
      <trkpt lat="48.71165" lon="1.73468">
        <ele>180.19999694824</ele>
        <time>2014-10-12T08:07:47.000Z</time>
      </trkpt>
      <trkpt lat="48.71164" lon="1.73473">
        <ele>180.19999694824</ele>
        <time>2014-10-12T08:07:50.000Z</time>
      </trkpt>
      <trkpt lat="48.71165" lon="1.73481">
        <ele>180.39999389648</ele>
        <time>2014-10-12T08:07:56.000Z</time>
      </trkpt>
      <trkpt lat="48.71166" lon="1.7349">
        <ele>180.39999389648</ele>
        <time>2014-10-12T08:08:01.000Z</time>
      </trkpt>
      <trkpt lat="48.71169" lon="1.735">
        <ele>180.39999389648</ele>
        <time>2014-10-12T08:08:06.000Z</time>
      </trkpt>
      <trkpt lat="48.7117" lon="1.73502">
        <ele>180.39999389648</ele>
        <time>2014-10-12T08:08:08.000Z</time>
      </trkpt>
      <trkpt lat="48.71171" lon="1.73508">
        <ele>180.39999389648</ele>
        <time>2014-10-12T08:08:12.000Z</time>
      </trkpt>
      <trkpt lat="48.71173" lon="1.73514">
        <ele>180.39999389648</ele>
        <time>2014-10-12T08:08:15.000Z</time>
      </trkpt>
      <trkpt lat="48.71174" lon="1.7352">
        <ele>180.39999389648</ele>
        <time>2014-10-12T08:08:18.000Z</time>
      </trkpt>
      <trkpt lat="48.71177" lon="1.73529">
        <ele>180.19999694824</ele>
        <time>2014-10-12T08:08:23.000Z</time>
      </trkpt>
      <trkpt lat="48.7118" lon="1.73535">
        <ele>180.19999694824</ele>
        <time>2014-10-12T08:08:28.000Z</time>
      </trkpt>
      <trkpt lat="48.71183" lon="1.73542">
        <ele>180.19999694824</ele>
        <time>2014-10-12T08:08:32.000Z</time>
      </trkpt>
      <trkpt lat="48.71186" lon="1.73549">
        <ele>180.19999694824</ele>
        <time>2014-10-12T08:08:36.000Z</time>
      </trkpt>
      <trkpt lat="48.71189" lon="1.73556">
        <ele>180.19999694824</ele>
        <time>2014-10-12T08:08:40.000Z</time>
      </trkpt>
      <trkpt lat="48.7119" lon="1.73559">
        <ele>180.39999389648</ele>
        <time>2014-10-12T08:08:42.000Z</time>
      </trkpt>
      <trkpt lat="48.71196" lon="1.73567">
        <ele>180.60000610352</ele>
        <time>2014-10-12T08:08:48.000Z</time>
      </trkpt>
      <trkpt lat="48.71199" lon="1.7357">
        <ele>180.80000305176</ele>
        <time>2014-10-12T08:08:51.000Z</time>
      </trkpt>
      <trkpt lat="48.71204" lon="1.73587">
        <ele>180.60000610352</ele>
        <time>2014-10-12T08:08:59.000Z</time>
      </trkpt>
      <trkpt lat="48.7121" lon="1.73601">
        <ele>181</ele>
        <time>2014-10-12T08:09:07.000Z</time>
      </trkpt>
      <trkpt lat="48.71214" lon="1.73609">
        <ele>181.39999389648</ele>
        <time>2014-10-12T08:09:12.000Z</time>
      </trkpt>
      <trkpt lat="48.71216" lon="1.73612">
        <ele>181.39999389648</ele>
        <time>2014-10-12T08:09:17.000Z</time>
      </trkpt>
      <trkpt lat="48.71208" lon="1.73603">
        <ele>181.19999694824</ele>
        <time>2014-10-12T08:09:44.000Z</time>
      </trkpt>
      <trkpt lat="48.71205" lon="1.73602">
        <ele>181.19999694824</ele>
        <time>2014-10-12T08:09:46.000Z</time>
      </trkpt>
      <trkpt lat="48.71201" lon="1.73602">
        <ele>181.19999694824</ele>
        <time>2014-10-12T08:09:50.000Z</time>
      </trkpt>
      <trkpt lat="48.71199" lon="1.73606">
        <ele>181.19999694824</ele>
        <time>2014-10-12T08:09:53.000Z</time>
      </trkpt>
      <trkpt lat="48.71192" lon="1.73617">
        <ele>181.60000610352</ele>
        <time>2014-10-12T08:10:00.000Z</time>
      </trkpt>
      <trkpt lat="48.71185" lon="1.73628">
        <ele>182</ele>
        <time>2014-10-12T08:10:06.000Z</time>
      </trkpt>
      <trkpt lat="48.7118" lon="1.73631">
        <ele>182</ele>
        <time>2014-10-12T08:10:10.000Z</time>
      </trkpt>
      <trkpt lat="48.71174" lon="1.73636">
        <ele>182</ele>
        <time>2014-10-12T08:10:17.000Z</time>
      </trkpt>
      <trkpt lat="48.71166" lon="1.73646">
        <ele>182</ele>
        <time>2014-10-12T08:10:24.000Z</time>
      </trkpt>
      <trkpt lat="48.71159" lon="1.73656">
        <ele>181.60000610352</ele>
        <time>2014-10-12T08:10:31.000Z</time>
      </trkpt>
      <trkpt lat="48.71154" lon="1.73661">
        <ele>181.39999389648</ele>
        <time>2014-10-12T08:10:36.000Z</time>
      </trkpt>
      <trkpt lat="48.71149" lon="1.73664">
        <ele>181.19999694824</ele>
        <time>2014-10-12T08:10:40.000Z</time>
      </trkpt>
      <trkpt lat="48.71143" lon="1.7367">
        <ele>181</ele>
        <time>2014-10-12T08:10:46.000Z</time>
      </trkpt>
      <trkpt lat="48.71136" lon="1.73677">
        <ele>180.80000305176</ele>
        <time>2014-10-12T08:10:52.000Z</time>
      </trkpt>
      <trkpt lat="48.71135" lon="1.73679">
        <ele>180.80000305176</ele>
        <time>2014-10-12T08:10:54.000Z</time>
      </trkpt>
      <trkpt lat="48.71131" lon="1.73683">
        <ele>180.80000305176</ele>
        <time>2014-10-12T08:10:59.000Z</time>
      </trkpt>
      <trkpt lat="48.71122" lon="1.73694">
        <ele>181.19999694824</ele>
        <time>2014-10-12T08:11:06.000Z</time>
      </trkpt>
      <trkpt lat="48.71113" lon="1.73701">
        <ele>181.39999389648</ele>
        <time>2014-10-12T08:11:13.000Z</time>
      </trkpt>
      <trkpt lat="48.71108" lon="1.73706">
        <ele>181.60000610352</ele>
        <time>2014-10-12T08:11:17.000Z</time>
      </trkpt>
      <trkpt lat="48.71106" lon="1.73708">
        <ele>181.60000610352</ele>
        <time>2014-10-12T08:11:19.000Z</time>
      </trkpt>
      <trkpt lat="48.71098" lon="1.73716">
        <ele>181.80000305176</ele>
        <time>2014-10-12T08:11:26.000Z</time>
      </trkpt>
      <trkpt lat="48.71093" lon="1.73719">
        <ele>182</ele>
        <time>2014-10-12T08:11:31.000Z</time>
      </trkpt>
      <trkpt lat="48.71089" lon="1.73723">
        <ele>182.19999694824</ele>
        <time>2014-10-12T08:11:35.000Z</time>
      </trkpt>
      <trkpt lat="48.71085" lon="1.73728">
        <ele>182.19999694824</ele>
        <time>2014-10-12T08:11:39.000Z</time>
      </trkpt>
      <trkpt lat="48.71083" lon="1.73729">
        <ele>182.19999694824</ele>
        <time>2014-10-12T08:11:41.000Z</time>
      </trkpt>
      <trkpt lat="48.71075" lon="1.73737">
        <ele>182.19999694824</ele>
        <time>2014-10-12T08:11:48.000Z</time>
      </trkpt>
      <trkpt lat="48.71074" lon="1.73737">
        <ele>182.19999694824</ele>
        <time>2014-10-12T08:11:49.000Z</time>
      </trkpt>
      <trkpt lat="48.71068" lon="1.7374">
        <ele>182.19999694824</ele>
        <time>2014-10-12T08:11:53.000Z</time>
      </trkpt>
      <trkpt lat="48.71062" lon="1.73747">
        <ele>181.80000305176</ele>
        <time>2014-10-12T08:11:57.000Z</time>
      </trkpt>
      <trkpt lat="48.71056" lon="1.73753">
        <ele>181.60000610352</ele>
        <time>2014-10-12T08:12:03.000Z</time>
      </trkpt>
      <trkpt lat="48.7105" lon="1.73756">
        <ele>181.39999389648</ele>
        <time>2014-10-12T08:12:09.000Z</time>
      </trkpt>
      <trkpt lat="48.71049" lon="1.73756">
        <ele>181.39999389648</ele>
        <time>2014-10-12T08:12:10.000Z</time>
      </trkpt>
      <trkpt lat="48.71045" lon="1.7376">
        <ele>181.39999389648</ele>
        <time>2014-10-12T08:12:16.000Z</time>
      </trkpt>
      <trkpt lat="48.7104" lon="1.73765">
        <ele>181.39999389648</ele>
        <time>2014-10-12T08:12:20.000Z</time>
      </trkpt>
      <trkpt lat="48.71036" lon="1.73773">
        <ele>181.60000610352</ele>
        <time>2014-10-12T08:12:24.000Z</time>
      </trkpt>
      <trkpt lat="48.7103" lon="1.73781">
        <ele>182</ele>
        <time>2014-10-12T08:12:29.000Z</time>
      </trkpt>
      <trkpt lat="48.71022" lon="1.73785">
        <ele>182.19999694824</ele>
        <time>2014-10-12T08:12:36.000Z</time>
      </trkpt>
      <trkpt lat="48.7102" lon="1.73788">
        <ele>182.19999694824</ele>
        <time>2014-10-12T08:12:37.000Z</time>
      </trkpt>
      <trkpt lat="48.7102" lon="1.73792">
        <ele>182.19999694824</ele>
        <time>2014-10-12T08:12:39.000Z</time>
      </trkpt>
      <trkpt lat="48.71017" lon="1.73796">
        <ele>182.19999694824</ele>
        <time>2014-10-12T08:12:43.000Z</time>
      </trkpt>
      <trkpt lat="48.71013" lon="1.73799">
        <ele>182.19999694824</ele>
        <time>2014-10-12T08:12:47.000Z</time>
      </trkpt>
      <trkpt lat="48.71009" lon="1.73802">
        <ele>182</ele>
        <time>2014-10-12T08:12:50.000Z</time>
      </trkpt>
      <trkpt lat="48.71007" lon="1.73805">
        <ele>182</ele>
        <time>2014-10-12T08:12:52.000Z</time>
      </trkpt>
      <trkpt lat="48.71005" lon="1.73811">
        <ele>182.19999694824</ele>
        <time>2014-10-12T08:12:55.000Z</time>
      </trkpt>
      <trkpt lat="48.71003" lon="1.73818">
        <ele>182.19999694824</ele>
        <time>2014-10-12T08:12:59.000Z</time>
      </trkpt>
      <trkpt lat="48.71" lon="1.73831">
        <ele>182.60000610352</ele>
        <time>2014-10-12T08:13:06.000Z</time>
      </trkpt>
      <trkpt lat="48.70999" lon="1.73835">
        <ele>182.60000610352</ele>
        <time>2014-10-12T08:13:08.000Z</time>
      </trkpt>
      <trkpt lat="48.70997" lon="1.73845">
        <ele>182.80000305176</ele>
        <time>2014-10-12T08:13:13.000Z</time>
      </trkpt>
      <trkpt lat="48.70995" lon="1.73852">
        <ele>182.80000305176</ele>
        <time>2014-10-12T08:13:18.000Z</time>
      </trkpt>
      <trkpt lat="48.70994" lon="1.73853">
        <ele>182.80000305176</ele>
        <time>2014-10-12T08:13:19.000Z</time>
      </trkpt>
      <trkpt lat="48.70992" lon="1.73855">
        <ele>182.80000305176</ele>
        <time>2014-10-12T08:13:25.000Z</time>
      </trkpt>
      <trkpt lat="48.70975" lon="1.73901">
        <ele>183.80000305176</ele>
        <time>2014-10-12T08:14:40.000Z</time>
      </trkpt>
      <trkpt lat="48.70973" lon="1.73909">
        <ele>183.60000610352</ele>
        <time>2014-10-12T08:14:44.000Z</time>
      </trkpt>
      <trkpt lat="48.70973" lon="1.73913">
        <ele>183.60000610352</ele>
        <time>2014-10-12T08:14:46.000Z</time>
      </trkpt>
      <trkpt lat="48.70972" lon="1.73928">
        <ele>183</ele>
        <time>2014-10-12T08:14:53.000Z</time>
      </trkpt>
      <trkpt lat="48.7097" lon="1.7394">
        <ele>182.60000610352</ele>
        <time>2014-10-12T08:15:00.000Z</time>
      </trkpt>
      <trkpt lat="48.70966" lon="1.73949">
        <ele>182.80000305176</ele>
        <time>2014-10-12T08:15:06.000Z</time>
      </trkpt>
      <trkpt lat="48.70963" lon="1.73961">
        <ele>183</ele>
        <time>2014-10-12T08:15:14.000Z</time>
      </trkpt>
      <trkpt lat="48.70963" lon="1.73964">
        <ele>183</ele>
        <time>2014-10-12T08:15:16.000Z</time>
      </trkpt>
      <trkpt lat="48.70962" lon="1.73975">
        <ele>183.19999694824</ele>
        <time>2014-10-12T08:15:23.000Z</time>
      </trkpt>
      <trkpt lat="48.70963" lon="1.73982">
        <ele>183.39999389648</ele>
        <time>2014-10-12T08:15:27.000Z</time>
      </trkpt>
      <trkpt lat="48.70959" lon="1.73989">
        <ele>183.39999389648</ele>
        <time>2014-10-12T08:15:34.000Z</time>
      </trkpt>
      <trkpt lat="48.70957" lon="1.73999">
        <ele>183.39999389648</ele>
        <time>2014-10-12T08:15:41.000Z</time>
      </trkpt>
      <trkpt lat="48.70953" lon="1.7401">
        <ele>183.39999389648</ele>
        <time>2014-10-12T08:15:47.000Z</time>
      </trkpt>
      <trkpt lat="48.70952" lon="1.74012">
        <ele>183.39999389648</ele>
        <time>2014-10-12T08:15:48.000Z</time>
      </trkpt>
      <trkpt lat="48.70951" lon="1.74019">
        <ele>183.19999694824</ele>
        <time>2014-10-12T08:15:53.000Z</time>
      </trkpt>
      <trkpt lat="48.7095" lon="1.74029">
        <ele>183.19999694824</ele>
        <time>2014-10-12T08:16:00.000Z</time>
      </trkpt>
      <trkpt lat="48.70946" lon="1.74044">
        <ele>183.19999694824</ele>
        <time>2014-10-12T08:16:07.000Z</time>
      </trkpt>
      <trkpt lat="48.70941" lon="1.74057">
        <ele>183</ele>
        <time>2014-10-12T08:16:14.000Z</time>
      </trkpt>
      <trkpt lat="48.7094" lon="1.74065">
        <ele>183</ele>
        <time>2014-10-12T08:16:20.000Z</time>
      </trkpt>
      <trkpt lat="48.70938" lon="1.74071">
        <ele>183</ele>
        <time>2014-10-12T08:16:24.000Z</time>
      </trkpt>
      <trkpt lat="48.70935" lon="1.74085">
        <ele>183.19999694824</ele>
        <time>2014-10-12T08:16:32.000Z</time>
      </trkpt>
      <trkpt lat="48.70933" lon="1.74092">
        <ele>183.19999694824</ele>
        <time>2014-10-12T08:16:38.000Z</time>
      </trkpt>
      <trkpt lat="48.70932" lon="1.741">
        <ele>183.39999389648</ele>
        <time>2014-10-12T08:16:44.000Z</time>
      </trkpt>
      <trkpt lat="48.7093" lon="1.74108">
        <ele>183.60000610352</ele>
        <time>2014-10-12T08:16:49.000Z</time>
      </trkpt>
      <trkpt lat="48.70929" lon="1.74119">
        <ele>183.60000610352</ele>
        <time>2014-10-12T08:16:56.000Z</time>
      </trkpt>
      <trkpt lat="48.70929" lon="1.74129">
        <ele>183.80000305176</ele>
        <time>2014-10-12T08:17:02.000Z</time>
      </trkpt>
      <trkpt lat="48.70927" lon="1.74134">
        <ele>183.80000305176</ele>
        <time>2014-10-12T08:17:06.000Z</time>
      </trkpt>
      <trkpt lat="48.70927" lon="1.74139">
        <ele>184</ele>
        <time>2014-10-12T08:17:09.000Z</time>
      </trkpt>
      <trkpt lat="48.70924" lon="1.74151">
        <ele>183.80000305176</ele>
        <time>2014-10-12T08:17:16.000Z</time>
      </trkpt>
      <trkpt lat="48.70923" lon="1.74158">
        <ele>183.60000610352</ele>
        <time>2014-10-12T08:17:20.000Z</time>
      </trkpt>
      <trkpt lat="48.70922" lon="1.74163">
        <ele>183.39999389648</ele>
        <time>2014-10-12T08:17:24.000Z</time>
      </trkpt>
      <trkpt lat="48.70919" lon="1.74175">
        <ele>183</ele>
        <time>2014-10-12T08:17:30.000Z</time>
      </trkpt>
      <trkpt lat="48.70915" lon="1.7419">
        <ele>182.39999389648</ele>
        <time>2014-10-12T08:17:39.000Z</time>
      </trkpt>
      <trkpt lat="48.70914" lon="1.74192">
        <ele>182.39999389648</ele>
        <time>2014-10-12T08:17:40.000Z</time>
      </trkpt>
      <trkpt lat="48.70914" lon="1.74199">
        <ele>182.19999694824</ele>
        <time>2014-10-12T08:17:44.000Z</time>
      </trkpt>
      <trkpt lat="48.70909" lon="1.74209">
        <ele>181.60000610352</ele>
        <time>2014-10-12T08:17:50.000Z</time>
      </trkpt>
      <trkpt lat="48.70907" lon="1.74212">
        <ele>181.60000610352</ele>
        <time>2014-10-12T08:17:52.000Z</time>
      </trkpt>
      <trkpt lat="48.70905" lon="1.74228">
        <ele>181</ele>
        <time>2014-10-12T08:18:00.000Z</time>
      </trkpt>
      <trkpt lat="48.70905" lon="1.74233">
        <ele>180.80000305176</ele>
        <time>2014-10-12T08:18:04.000Z</time>
      </trkpt>
      <trkpt lat="48.70907" lon="1.74238">
        <ele>180.60000610352</ele>
        <time>2014-10-12T08:18:07.000Z</time>
      </trkpt>
      <trkpt lat="48.70908" lon="1.74244">
        <ele>180.19999694824</ele>
        <time>2014-10-12T08:18:11.000Z</time>
      </trkpt>
      <trkpt lat="48.70907" lon="1.74248">
        <ele>180</ele>
        <time>2014-10-12T08:18:13.000Z</time>
      </trkpt>
      <trkpt lat="48.70901" lon="1.74257">
        <ele>179.39999389648</ele>
        <time>2014-10-12T08:18:19.000Z</time>
      </trkpt>
      <trkpt lat="48.70901" lon="1.74258">
        <ele>179.39999389648</ele>
        <time>2014-10-12T08:18:20.000Z</time>
      </trkpt>
      <trkpt lat="48.70897" lon="1.74268">
        <ele>178.60000610352</ele>
        <time>2014-10-12T08:18:27.000Z</time>
      </trkpt>
      <trkpt lat="48.70892" lon="1.74277">
        <ele>178.19999694824</ele>
        <time>2014-10-12T08:18:33.000Z</time>
      </trkpt>
      <trkpt lat="48.7089" lon="1.7428">
        <ele>178</ele>
        <time>2014-10-12T08:18:35.000Z</time>
      </trkpt>
      <trkpt lat="48.70887" lon="1.74285">
        <ele>177.80000305176</ele>
        <time>2014-10-12T08:18:38.000Z</time>
      </trkpt>
      <trkpt lat="48.70882" lon="1.74297">
        <ele>177.60000610352</ele>
        <time>2014-10-12T08:18:44.000Z</time>
      </trkpt>
      <trkpt lat="48.70878" lon="1.74309">
        <ele>177.19999694824</ele>
        <time>2014-10-12T08:18:51.000Z</time>
      </trkpt>
      <trkpt lat="48.70872" lon="1.7432">
        <ele>176.80000305176</ele>
        <time>2014-10-12T08:18:57.000Z</time>
      </trkpt>
      <trkpt lat="48.70866" lon="1.74332">
        <ele>176.80000305176</ele>
        <time>2014-10-12T08:19:04.000Z</time>
      </trkpt>
      <trkpt lat="48.70859" lon="1.74342">
        <ele>176.60000610352</ele>
        <time>2014-10-12T08:19:11.000Z</time>
      </trkpt>
      <trkpt lat="48.7085" lon="1.74355">
        <ele>176.60000610352</ele>
        <time>2014-10-12T08:19:21.000Z</time>
      </trkpt>
      <trkpt lat="48.70847" lon="1.74362">
        <ele>176.60000610352</ele>
        <time>2014-10-12T08:19:27.000Z</time>
      </trkpt>
      <trkpt lat="48.70841" lon="1.74372">
        <ele>176.60000610352</ele>
        <time>2014-10-12T08:19:35.000Z</time>
      </trkpt>
      <trkpt lat="48.70833" lon="1.74383">
        <ele>176.80000305176</ele>
        <time>2014-10-12T08:19:44.000Z</time>
      </trkpt>
      <trkpt lat="48.70825" lon="1.74393">
        <ele>176.80000305176</ele>
        <time>2014-10-12T08:19:53.000Z</time>
      </trkpt>
      <trkpt lat="48.70816" lon="1.74401">
        <ele>177</ele>
        <time>2014-10-12T08:20:01.000Z</time>
      </trkpt>
      <trkpt lat="48.70807" lon="1.74409">
        <ele>177.19999694824</ele>
        <time>2014-10-12T08:20:08.000Z</time>
      </trkpt>
      <trkpt lat="48.70802" lon="1.74412">
        <ele>177.19999694824</ele>
        <time>2014-10-12T08:20:12.000Z</time>
      </trkpt>
      <trkpt lat="48.70796" lon="1.74415">
        <ele>177.39999389648</ele>
        <time>2014-10-12T08:20:18.000Z</time>
      </trkpt>
      <trkpt lat="48.70784" lon="1.74424">
        <ele>177.60000610352</ele>
        <time>2014-10-12T08:20:28.000Z</time>
      </trkpt>
      <trkpt lat="48.70773" lon="1.7443">
        <ele>177.60000610352</ele>
        <time>2014-10-12T08:20:37.000Z</time>
      </trkpt>
      <trkpt lat="48.70762" lon="1.74437">
        <ele>177.80000305176</ele>
        <time>2014-10-12T08:20:46.000Z</time>
      </trkpt>
      <trkpt lat="48.70753" lon="1.74443">
        <ele>178.19999694824</ele>
        <time>2014-10-12T08:20:54.000Z</time>
      </trkpt>
      <trkpt lat="48.70745" lon="1.74447">
        <ele>178.39999389648</ele>
        <time>2014-10-12T08:21:01.000Z</time>
      </trkpt>
      <trkpt lat="48.70735" lon="1.74455">
        <ele>178.60000610352</ele>
        <time>2014-10-12T08:21:10.000Z</time>
      </trkpt>
      <trkpt lat="48.70728" lon="1.74464">
        <ele>178.80000305176</ele>
        <time>2014-10-12T08:21:18.000Z</time>
      </trkpt>
      <trkpt lat="48.70727" lon="1.74466">
        <ele>178.80000305176</ele>
        <time>2014-10-12T08:21:20.000Z</time>
      </trkpt>
      <trkpt lat="48.70728" lon="1.74468">
        <ele>178.80000305176</ele>
        <time>2014-10-12T08:21:25.000Z</time>
      </trkpt>
      <trkpt lat="48.70746" lon="1.74489">
        <ele>177.80000305176</ele>
        <time>2014-10-12T08:22:25.000Z</time>
      </trkpt>
      <trkpt lat="48.7075" lon="1.74494">
        <ele>177.80000305176</ele>
        <time>2014-10-12T08:22:29.000Z</time>
      </trkpt>
      <trkpt lat="48.70755" lon="1.745">
        <ele>177.60000610352</ele>
        <time>2014-10-12T08:22:36.000Z</time>
      </trkpt>
      <trkpt lat="48.70763" lon="1.74509">
        <ele>177.19999694824</ele>
        <time>2014-10-12T08:22:44.000Z</time>
      </trkpt>
      <trkpt lat="48.70767" lon="1.74517">
        <ele>177.19999694824</ele>
        <time>2014-10-12T08:22:50.000Z</time>
      </trkpt>
      <trkpt lat="48.7077" lon="1.74522">
        <ele>177</ele>
        <time>2014-10-12T08:22:54.000Z</time>
      </trkpt>
      <trkpt lat="48.70776" lon="1.74529">
        <ele>177</ele>
        <time>2014-10-12T08:23:00.000Z</time>
      </trkpt>
      <trkpt lat="48.7078" lon="1.74537">
        <ele>176.80000305176</ele>
        <time>2014-10-12T08:23:06.000Z</time>
      </trkpt>
      <trkpt lat="48.70781" lon="1.74539">
        <ele>176.80000305176</ele>
        <time>2014-10-12T08:23:07.000Z</time>
      </trkpt>
      <trkpt lat="48.70786" lon="1.74543">
        <ele>176.80000305176</ele>
        <time>2014-10-12T08:23:12.000Z</time>
      </trkpt>
      <trkpt lat="48.70795" lon="1.74552">
        <ele>176.60000610352</ele>
        <time>2014-10-12T08:23:21.000Z</time>
      </trkpt>
      <trkpt lat="48.708" lon="1.74557">
        <ele>176.60000610352</ele>
        <time>2014-10-12T08:23:25.000Z</time>
      </trkpt>
      <trkpt lat="48.70804" lon="1.74562">
        <ele>176.60000610352</ele>
        <time>2014-10-12T08:23:30.000Z</time>
      </trkpt>
      <trkpt lat="48.70812" lon="1.74571">
        <ele>176.60000610352</ele>
        <time>2014-10-12T08:23:37.000Z</time>
      </trkpt>
      <trkpt lat="48.70816" lon="1.74576">
        <ele>176.39999389648</ele>
        <time>2014-10-12T08:23:42.000Z</time>
      </trkpt>
      <trkpt lat="48.70814" lon="1.7458">
        <ele>176.39999389648</ele>
        <time>2014-10-12T08:23:48.000Z</time>
      </trkpt>
      <trkpt lat="48.70814" lon="1.74581">
        <ele>176.39999389648</ele>
        <time>2014-10-12T08:23:52.000Z</time>
      </trkpt>
      <trkpt lat="48.70824" lon="1.74593">
        <ele>176.39999389648</ele>
        <time>2014-10-12T08:25:08.000Z</time>
      </trkpt>
      <trkpt lat="48.70829" lon="1.74598">
        <ele>176.19999694824</ele>
        <time>2014-10-12T08:25:12.000Z</time>
      </trkpt>
      <trkpt lat="48.70837" lon="1.74606">
        <ele>176.19999694824</ele>
        <time>2014-10-12T08:25:19.000Z</time>
      </trkpt>
      <trkpt lat="48.70838" lon="1.74608">
        <ele>176.19999694824</ele>
        <time>2014-10-12T08:25:21.000Z</time>
      </trkpt>
      <trkpt lat="48.70838" lon="1.74611">
        <ele>176.19999694824</ele>
        <time>2014-10-12T08:25:26.000Z</time>
      </trkpt>
      <trkpt lat="48.70846" lon="1.74613">
        <ele>176</ele>
        <time>2014-10-12T08:25:56.000Z</time>
      </trkpt>
      <trkpt lat="48.7085" lon="1.74617">
        <ele>176</ele>
        <time>2014-10-12T08:25:59.000Z</time>
      </trkpt>
      <trkpt lat="48.70861" lon="1.74631">
        <ele>176</ele>
        <time>2014-10-12T08:26:09.000Z</time>
      </trkpt>
      <trkpt lat="48.70866" lon="1.74638">
        <ele>176</ele>
        <time>2014-10-12T08:26:15.000Z</time>
      </trkpt>
      <trkpt lat="48.70872" lon="1.74645">
        <ele>176</ele>
        <time>2014-10-12T08:26:22.000Z</time>
      </trkpt>
      <trkpt lat="48.70878" lon="1.74654">
        <ele>176</ele>
        <time>2014-10-12T08:26:29.000Z</time>
      </trkpt>
      <trkpt lat="48.70884" lon="1.74662">
        <ele>176.19999694824</ele>
        <time>2014-10-12T08:26:35.000Z</time>
      </trkpt>
      <trkpt lat="48.70887" lon="1.74665">
        <ele>176.19999694824</ele>
        <time>2014-10-12T08:26:38.000Z</time>
      </trkpt>
      <trkpt lat="48.70894" lon="1.74676">
        <ele>176.60000610352</ele>
        <time>2014-10-12T08:26:46.000Z</time>
      </trkpt>
      <trkpt lat="48.70902" lon="1.74687">
        <ele>176.80000305176</ele>
        <time>2014-10-12T08:26:53.000Z</time>
      </trkpt>
      <trkpt lat="48.70904" lon="1.74694">
        <ele>177</ele>
        <time>2014-10-12T08:26:57.000Z</time>
      </trkpt>
      <trkpt lat="48.70904" lon="1.74698">
        <ele>177</ele>
        <time>2014-10-12T08:27:02.000Z</time>
      </trkpt>
      <trkpt lat="48.70904" lon="1.74699">
        <ele>177</ele>
        <time>2014-10-12T08:27:04.000Z</time>
      </trkpt>
      <trkpt lat="48.70914" lon="1.7471">
        <ele>177.39999389648</ele>
        <time>2014-10-12T08:27:22.000Z</time>
      </trkpt>
      <trkpt lat="48.7092" lon="1.74717">
        <ele>177.60000610352</ele>
        <time>2014-10-12T08:27:27.000Z</time>
      </trkpt>
      <trkpt lat="48.70927" lon="1.74727">
        <ele>177.80000305176</ele>
        <time>2014-10-12T08:27:36.000Z</time>
      </trkpt>
      <trkpt lat="48.70933" lon="1.74734">
        <ele>178</ele>
        <time>2014-10-12T08:27:42.000Z</time>
      </trkpt>
      <trkpt lat="48.7094" lon="1.7474">
        <ele>178</ele>
        <time>2014-10-12T08:27:48.000Z</time>
      </trkpt>
      <trkpt lat="48.70944" lon="1.74745">
        <ele>178</ele>
        <time>2014-10-12T08:27:52.000Z</time>
      </trkpt>
      <trkpt lat="48.70951" lon="1.74751">
        <ele>178.19999694824</ele>
        <time>2014-10-12T08:27:57.000Z</time>
      </trkpt>
      <trkpt lat="48.70953" lon="1.74756">
        <ele>178.19999694824</ele>
        <time>2014-10-12T08:28:00.000Z</time>
      </trkpt>
      <trkpt lat="48.70959" lon="1.74766">
        <ele>178.19999694824</ele>
        <time>2014-10-12T08:28:08.000Z</time>
      </trkpt>
      <trkpt lat="48.70965" lon="1.74776">
        <ele>178.39999389648</ele>
        <time>2014-10-12T08:28:15.000Z</time>
      </trkpt>
      <trkpt lat="48.70972" lon="1.74786">
        <ele>178.39999389648</ele>
        <time>2014-10-12T08:28:22.000Z</time>
      </trkpt>
      <trkpt lat="48.70978" lon="1.74796">
        <ele>178.39999389648</ele>
        <time>2014-10-12T08:28:29.000Z</time>
      </trkpt>
      <trkpt lat="48.70979" lon="1.74797">
        <ele>178.60000610352</ele>
        <time>2014-10-12T08:28:30.000Z</time>
      </trkpt>
      <trkpt lat="48.70983" lon="1.74802">
        <ele>178.60000610352</ele>
        <time>2014-10-12T08:28:35.000Z</time>
      </trkpt>
      <trkpt lat="48.70988" lon="1.74808">
        <ele>178.60000610352</ele>
        <time>2014-10-12T08:28:39.000Z</time>
      </trkpt>
      <trkpt lat="48.70995" lon="1.74816">
        <ele>178.80000305176</ele>
        <time>2014-10-12T08:28:46.000Z</time>
      </trkpt>
      <trkpt lat="48.70998" lon="1.74819">
        <ele>178.80000305176</ele>
        <time>2014-10-12T08:28:48.000Z</time>
      </trkpt>
      <trkpt lat="48.71003" lon="1.74825">
        <ele>178.80000305176</ele>
        <time>2014-10-12T08:28:52.000Z</time>
      </trkpt>
      <trkpt lat="48.71008" lon="1.74832">
        <ele>178.80000305176</ele>
        <time>2014-10-12T08:28:57.000Z</time>
      </trkpt>
      <trkpt lat="48.7101" lon="1.74839">
        <ele>178.80000305176</ele>
        <time>2014-10-12T08:29:02.000Z</time>
      </trkpt>
      <trkpt lat="48.7101" lon="1.74842">
        <ele>178.80000305176</ele>
        <time>2014-10-12T08:29:06.000Z</time>
      </trkpt>
      <trkpt lat="48.71011" lon="1.74854">
        <ele>178.80000305176</ele>
        <time>2014-10-12T08:29:30.000Z</time>
      </trkpt>
      <trkpt lat="48.71007" lon="1.74862">
        <ele>178.80000305176</ele>
        <time>2014-10-12T08:29:34.000Z</time>
      </trkpt>
      <trkpt lat="48.70999" lon="1.74871">
        <ele>178.80000305176</ele>
        <time>2014-10-12T08:29:41.000Z</time>
      </trkpt>
      <trkpt lat="48.70994" lon="1.74875">
        <ele>178.60000610352</ele>
        <time>2014-10-12T08:29:46.000Z</time>
      </trkpt>
      <trkpt lat="48.70991" lon="1.74879">
        <ele>178.60000610352</ele>
        <time>2014-10-12T08:29:49.000Z</time>
      </trkpt>
      <trkpt lat="48.70989" lon="1.74882">
        <ele>178.19999694824</ele>
        <time>2014-10-12T08:29:51.000Z</time>
      </trkpt>
      <trkpt lat="48.70983" lon="1.74886">
        <ele>177.80000305176</ele>
        <time>2014-10-12T08:29:57.000Z</time>
      </trkpt>
      <trkpt lat="48.7098" lon="1.7489">
        <ele>177.60000610352</ele>
        <time>2014-10-12T08:30:01.000Z</time>
      </trkpt>
      <trkpt lat="48.70975" lon="1.74899">
        <ele>177</ele>
        <time>2014-10-12T08:30:07.000Z</time>
      </trkpt>
      <trkpt lat="48.70971" lon="1.74907">
        <ele>176.60000610352</ele>
        <time>2014-10-12T08:30:12.000Z</time>
      </trkpt>
      <trkpt lat="48.70963" lon="1.74918">
        <ele>176</ele>
        <time>2014-10-12T08:30:20.000Z</time>
      </trkpt>
      <trkpt lat="48.70956" lon="1.74925">
        <ele>175.60000610352</ele>
        <time>2014-10-12T08:30:25.000Z</time>
      </trkpt>
      <trkpt lat="48.70953" lon="1.74932">
        <ele>175.60000610352</ele>
        <time>2014-10-12T08:30:30.000Z</time>
      </trkpt>
      <trkpt lat="48.70947" lon="1.74941">
        <ele>175.39999389648</ele>
        <time>2014-10-12T08:30:36.000Z</time>
      </trkpt>
      <trkpt lat="48.70943" lon="1.74945">
        <ele>175.19999694824</ele>
        <time>2014-10-12T08:30:39.000Z</time>
      </trkpt>
      <trkpt lat="48.70936" lon="1.74956">
        <ele>175</ele>
        <time>2014-10-12T08:30:46.000Z</time>
      </trkpt>
      <trkpt lat="48.70932" lon="1.74963">
        <ele>175</ele>
        <time>2014-10-12T08:30:51.000Z</time>
      </trkpt>
      <trkpt lat="48.70927" lon="1.74973">
        <ele>174.80000305176</ele>
        <time>2014-10-12T08:30:57.000Z</time>
      </trkpt>
      <trkpt lat="48.70923" lon="1.7498">
        <ele>175</ele>
        <time>2014-10-12T08:31:02.000Z</time>
      </trkpt>
      <trkpt lat="48.70921" lon="1.74984">
        <ele>175</ele>
        <time>2014-10-12T08:31:04.000Z</time>
      </trkpt>
      <trkpt lat="48.70916" lon="1.74991">
        <ele>175</ele>
        <time>2014-10-12T08:31:11.000Z</time>
      </trkpt>
      <trkpt lat="48.70914" lon="1.74994">
        <ele>175</ele>
        <time>2014-10-12T08:31:14.000Z</time>
      </trkpt>
      <trkpt lat="48.70908" lon="1.75008">
        <ele>174.80000305176</ele>
        <time>2014-10-12T08:31:22.000Z</time>
      </trkpt>
      <trkpt lat="48.70902" lon="1.75021">
        <ele>174.60000610352</ele>
        <time>2014-10-12T08:31:30.000Z</time>
      </trkpt>
      <trkpt lat="48.70901" lon="1.75023">
        <ele>174.60000610352</ele>
        <time>2014-10-12T08:31:31.000Z</time>
      </trkpt>
      <trkpt lat="48.70901" lon="1.75025">
        <ele>174.60000610352</ele>
        <time>2014-10-12T08:31:33.000Z</time>
      </trkpt>
      <trkpt lat="48.70898" lon="1.75034">
        <ele>174.39999389648</ele>
        <time>2014-10-12T08:31:38.000Z</time>
      </trkpt>
      <trkpt lat="48.70897" lon="1.75037">
        <ele>174.39999389648</ele>
        <time>2014-10-12T08:31:40.000Z</time>
      </trkpt>
      <trkpt lat="48.70895" lon="1.75045">
        <ele>174.39999389648</ele>
        <time>2014-10-12T08:31:44.000Z</time>
      </trkpt>
      <trkpt lat="48.70891" lon="1.75049">
        <ele>174.19999694824</ele>
        <time>2014-10-12T08:31:47.000Z</time>
      </trkpt>
      <trkpt lat="48.70888" lon="1.75053">
        <ele>174.19999694824</ele>
        <time>2014-10-12T08:31:52.000Z</time>
      </trkpt>
      <trkpt lat="48.70884" lon="1.7506">
        <ele>174.19999694824</ele>
        <time>2014-10-12T08:31:58.000Z</time>
      </trkpt>
      <trkpt lat="48.70882" lon="1.75066">
        <ele>174</ele>
        <time>2014-10-12T08:32:03.000Z</time>
      </trkpt>
      <trkpt lat="48.7088" lon="1.7507">
        <ele>174</ele>
        <time>2014-10-12T08:32:07.000Z</time>
      </trkpt>
      <trkpt lat="48.70875" lon="1.75078">
        <ele>174</ele>
        <time>2014-10-12T08:32:15.000Z</time>
      </trkpt>
      <trkpt lat="48.70872" lon="1.75082">
        <ele>174.19999694824</ele>
        <time>2014-10-12T08:32:22.000Z</time>
      </trkpt>
      <trkpt lat="48.70861" lon="1.75108">
        <ele>173.80000305176</ele>
        <time>2014-10-12T08:33:21.000Z</time>
      </trkpt>
      <trkpt lat="48.70856" lon="1.75118">
        <ele>173.60000610352</ele>
        <time>2014-10-12T08:33:26.000Z</time>
      </trkpt>
      <trkpt lat="48.70855" lon="1.75122">
        <ele>173.39999389648</ele>
        <time>2014-10-12T08:33:29.000Z</time>
      </trkpt>
      <trkpt lat="48.70853" lon="1.75126">
        <ele>173.39999389648</ele>
        <time>2014-10-12T08:33:32.000Z</time>
      </trkpt>
      <trkpt lat="48.70851" lon="1.75131">
        <ele>173.39999389648</ele>
        <time>2014-10-12T08:33:36.000Z</time>
      </trkpt>
      <trkpt lat="48.70849" lon="1.75135">
        <ele>173.19999694824</ele>
        <time>2014-10-12T08:33:41.000Z</time>
      </trkpt>
      <trkpt lat="48.70848" lon="1.75135">
        <ele>173.19999694824</ele>
        <time>2014-10-12T08:33:44.000Z</time>
      </trkpt>
      <trkpt lat="48.70841" lon="1.75151">
        <ele>173</ele>
        <time>2014-10-12T08:34:23.000Z</time>
      </trkpt>
      <trkpt lat="48.70839" lon="1.75157">
        <ele>173</ele>
        <time>2014-10-12T08:34:26.000Z</time>
      </trkpt>
      <trkpt lat="48.70836" lon="1.75162">
        <ele>173</ele>
        <time>2014-10-12T08:34:31.000Z</time>
      </trkpt>
      <trkpt lat="48.70835" lon="1.75168">
        <ele>173.19999694824</ele>
        <time>2014-10-12T08:34:35.000Z</time>
      </trkpt>
      <trkpt lat="48.70831" lon="1.75178">
        <ele>173.19999694824</ele>
        <time>2014-10-12T08:34:42.000Z</time>
      </trkpt>
      <trkpt lat="48.70828" lon="1.75182">
        <ele>173.39999389648</ele>
        <time>2014-10-12T08:34:48.000Z</time>
      </trkpt>
      <trkpt lat="48.70825" lon="1.75185">
        <ele>173.39999389648</ele>
        <time>2014-10-12T08:34:53.000Z</time>
      </trkpt>
      <trkpt lat="48.70818" lon="1.75205">
        <ele>173.60000610352</ele>
        <time>2014-10-12T08:35:30.000Z</time>
      </trkpt>
      <trkpt lat="48.70815" lon="1.75215">
        <ele>173.60000610352</ele>
        <time>2014-10-12T08:35:35.000Z</time>
      </trkpt>
      <trkpt lat="48.70809" lon="1.7523">
        <ele>173.39999389648</ele>
        <time>2014-10-12T08:35:43.000Z</time>
      </trkpt>
      <trkpt lat="48.70804" lon="1.75241">
        <ele>173.39999389648</ele>
        <time>2014-10-12T08:35:50.000Z</time>
      </trkpt>
      <trkpt lat="48.708" lon="1.75252">
        <ele>173.39999389648</ele>
        <time>2014-10-12T08:35:56.000Z</time>
      </trkpt>
      <trkpt lat="48.70796" lon="1.75259">
        <ele>173.39999389648</ele>
        <time>2014-10-12T08:36:01.000Z</time>
      </trkpt>
      <trkpt lat="48.70791" lon="1.7527">
        <ele>173.19999694824</ele>
        <time>2014-10-12T08:36:07.000Z</time>
      </trkpt>
      <trkpt lat="48.70789" lon="1.75274">
        <ele>173</ele>
        <time>2014-10-12T08:36:10.000Z</time>
      </trkpt>
      <trkpt lat="48.70787" lon="1.75274">
        <ele>173</ele>
        <time>2014-10-12T08:36:16.000Z</time>
      </trkpt>
      <trkpt lat="48.70787" lon="1.75274">
        <ele>173</ele>
        <time>2014-10-12T08:36:17.000Z</time>
      </trkpt>
      <trkpt lat="48.70781" lon="1.75292">
        <ele>172.60000610352</ele>
        <time>2014-10-12T08:36:38.000Z</time>
      </trkpt>
      <trkpt lat="48.70781" lon="1.75297">
        <ele>172.60000610352</ele>
        <time>2014-10-12T08:36:41.000Z</time>
      </trkpt>
      <trkpt lat="48.70776" lon="1.7531">
        <ele>172.19999694824</ele>
        <time>2014-10-12T08:36:48.000Z</time>
      </trkpt>
      <trkpt lat="48.70773" lon="1.75318">
        <ele>172.19999694824</ele>
        <time>2014-10-12T08:36:53.000Z</time>
      </trkpt>
      <trkpt lat="48.7077" lon="1.75324">
        <ele>172</ele>
        <time>2014-10-12T08:36:57.000Z</time>
      </trkpt>
      <trkpt lat="48.70769" lon="1.75326">
        <ele>172</ele>
        <time>2014-10-12T08:36:59.000Z</time>
      </trkpt>
      <trkpt lat="48.70766" lon="1.75332">
        <ele>172</ele>
        <time>2014-10-12T08:37:05.000Z</time>
      </trkpt>
      <trkpt lat="48.70762" lon="1.7534">
        <ele>172</ele>
        <time>2014-10-12T08:37:09.000Z</time>
      </trkpt>
      <trkpt lat="48.70761" lon="1.75343">
        <ele>171.80000305176</ele>
        <time>2014-10-12T08:37:11.000Z</time>
      </trkpt>
      <trkpt lat="48.70756" lon="1.75354">
        <ele>171.80000305176</ele>
        <time>2014-10-12T08:37:18.000Z</time>
      </trkpt>
      <trkpt lat="48.70751" lon="1.75368">
        <ele>171.80000305176</ele>
        <time>2014-10-12T08:37:26.000Z</time>
      </trkpt>
      <trkpt lat="48.70748" lon="1.75378">
        <ele>171.80000305176</ele>
        <time>2014-10-12T08:37:32.000Z</time>
      </trkpt>
      <trkpt lat="48.70746" lon="1.75383">
        <ele>171.80000305176</ele>
        <time>2014-10-12T08:37:35.000Z</time>
      </trkpt>
      <trkpt lat="48.70745" lon="1.75384">
        <ele>171.60000610352</ele>
        <time>2014-10-12T08:37:38.000Z</time>
      </trkpt>
      <trkpt lat="48.70737" lon="1.75401">
        <ele>171.60000610352</ele>
        <time>2014-10-12T08:38:01.000Z</time>
      </trkpt>
      <trkpt lat="48.70732" lon="1.75416">
        <ele>171.39999389648</ele>
        <time>2014-10-12T08:38:09.000Z</time>
      </trkpt>
      <trkpt lat="48.70732" lon="1.75418">
        <ele>171.39999389648</ele>
        <time>2014-10-12T08:38:10.000Z</time>
      </trkpt>
      <trkpt lat="48.70726" lon="1.75433">
        <ele>171.19999694824</ele>
        <time>2014-10-12T08:38:19.000Z</time>
      </trkpt>
      <trkpt lat="48.70721" lon="1.75444">
        <ele>171.19999694824</ele>
        <time>2014-10-12T08:38:26.000Z</time>
      </trkpt>
      <trkpt lat="48.70717" lon="1.75455">
        <ele>171.39999389648</ele>
        <time>2014-10-12T08:38:32.000Z</time>
      </trkpt>
      <trkpt lat="48.70712" lon="1.75466">
        <ele>171.80000305176</ele>
        <time>2014-10-12T08:38:39.000Z</time>
      </trkpt>
      <trkpt lat="48.70708" lon="1.75475">
        <ele>172.19999694824</ele>
        <time>2014-10-12T08:38:44.000Z</time>
      </trkpt>
      <trkpt lat="48.70703" lon="1.75487">
        <ele>172.60000610352</ele>
        <time>2014-10-12T08:38:51.000Z</time>
      </trkpt>
      <trkpt lat="48.70701" lon="1.75492">
        <ele>172.60000610352</ele>
        <time>2014-10-12T08:38:54.000Z</time>
      </trkpt>
      <trkpt lat="48.70696" lon="1.75494">
        <ele>172.80000305176</ele>
        <time>2014-10-12T08:39:00.000Z</time>
      </trkpt>
      <trkpt lat="48.70681" lon="1.75471">
        <ele>172.60000610352</ele>
        <time>2014-10-12T08:40:25.000Z</time>
      </trkpt>
      <trkpt lat="48.70679" lon="1.75469">
        <ele>172.60000610352</ele>
        <time>2014-10-12T08:40:26.000Z</time>
      </trkpt>
    </trkseg>
  </trk>
</gpx>